[[{"header":{"parameterUnit":"m.s-1","parameterCategory":1,"la1":30.6,"la2":29.2853,"lo1":-89.7004,"lo2":-87.6739,"dy":0.0162,"dx":0.0183,"nx":112,"ny":82,"refTime":"2024-11-22T06:00:00:Z","depth":0,"parameterNumber":2,"parameterNumberName":"U-component_of_WINDS"},"data":[0.0,0.0,0.0,0.0,0.0,0.0,0.0,0.0,0.0,0.0,0.0,0.0,0.0,0.0,0.0,0.0,0.0,0.0,0.0,0.0,0.0,0.0,0.0,0.0,0.0,0.0,0.0,0.0,0.0,0.0,0.0,0.0,0.0,0.0,0.0,0.0,0.0,0.0,0.0,0.0,0.0,0.0,0.0,0.0,0.0,0.0,0.0,0.0,0.0,0.0,0.0,0.0,0.0,0.0,0.0,0.0,0.0,0.0,0.0,0.0,0.0,0.0,0.0,0.0,0.0,0.0,0.0,0.0,0.0,0.0,0.0,0.0,0.0,0.0,0.0,0.0,0.0,0.0,0.0,0.0,0.0,0.0,0.0,0.0,0.0,0.0,0.0,0.0,0.0,0.0,0.0,4.3681,4.3571,4.3497,4.3497,4.3497,4.3497,4.3497,0.0,0.0,0.0,0.0,0.0,0.0,0.0,0.0,0.0,0.0,0.0,0.0,0.0,0.0,0.0,0.0,0.0,0.0,0.0,0.0,0.0,0.0,0.0,0.0,0.0,0.0,0.0,0.0,0.0,0.0,0.0,0.0,0.0,0.0,0.0,0.0,0.0,0.0,0.0,0.0,0.0,0.0,0.0,0.0,0.0,0.0,0.0,0.0,0.0,0.0,0.0,0.0,0.0,0.0,0.0,0.0,0.0,0.0,0.0,0.0,0.0,0.0,0.0,0.0,0.0,0.0,0.0,0.0,0.0,0.0,0.0,0.0,0.0,0.0,0.0,0.0,0.0,0.0,0.0,0.0,0.0,0.0,0.0,0.0,0.0,0.0,0.0,0.0,0.0,0.0,0.0,0.0,0.0,0.0,0.0,0.0,0.0,0.0,0.0,0.0,0.0,0.0,0.0,0.0,4.4525,4.4525,4.3901,4.3497,4.3497,4.3497,4.3497,4.3497,0.0,0.0,0.0,0.0,0.0,0.0,0.0,0.0,0.0,0.0,0.0,0.0,0.0,0.0,0.0,0.0,0.0,0.0,0.0,0.0,0.0,0.0,0.0,0.0,0.0,0.0,0.0,0.0,0.0,0.0,0.0,0.0,0.0,0.0,0.0,0.0,0.0,0.0,0.0,0.0,0.0,0.0,0.0,0.0,0.0,0.0,0.0,0.0,0.0,0.0,0.0,0.0,0.0,0.0,0.0,0.0,0.0,0.0,0.0,0.0,0.0,0.0,0.0,0.0,0.0,0.0,0.0,0.0,0.0,0.0,0.0,0.0,0.0,0.0,0.0,0.0,0.0,0.0,0.0,0.0,0.0,0.0,0.0,0.0,0.0,0.0,0.0,0.0,0.0,0.0,0.0,0.0,0.0,0.0,0.0,0.0,0.0,0.0,0.0,0.0,0.0,0.0,0.0,4.3864,4.4232,4.4672,4.3975,4.3497,4.3497,4.3497,4.3497,4.3497,4.2323,0.0,0.0,0.0,0.0,0.0,0.0,0.0,0.0,0.0,0.0,0.0,0.0,0.0,0.0,0.0,0.0,0.0,0.0,0.0,0.0,0.0,0.0,0.0,0.0,0.0,0.0,0.0,0.0,0.0,0.0,0.0,0.0,0.0,0.0,0.0,0.0,0.0,0.0,0.0,0.0,0.0,0.0,0.0,0.0,0.0,0.0,0.0,0.0,0.0,0.0,0.0,0.0,0.0,0.0,0.0,0.0,0.0,0.0,0.0,0.0,0.0,0.0,0.0,0.0,0.0,0.0,0.0,0.0,0.0,0.0,0.0,0.0,0.0,0.0,0.0,0.0,0.0,0.0,0.0,0.0,0.0,0.0,0.0,0.0,0.0,0.0,0.0,0.0,0.0,0.0,0.0,0.0,0.0,0.0,0.0,0.0,0.0,0.0,0.0,0.0,0.0,0.0,4.4121,4.3864,4.4892,4.4085,4.3497,4.3497,4.3497,4.3497,4.3497,4.1992,0.0,0.0,0.0,0.0,0.0,0.0,0.0,0.0,0.0,0.0,0.0,0.0,0.0,0.0,0.0,0.0,0.0,0.0,0.0,0.0,0.0,0.0,0.0,0.0,0.0,0.0,0.0,0.0,0.0,0.0,0.0,0.0,0.0,0.0,0.0,0.0,0.0,0.0,0.0,0.0,0.0,0.0,0.0,0.0,0.0,0.0,0.0,0.0,0.0,0.0,0.0,0.0,0.0,0.0,0.0,0.0,0.0,0.0,0.0,0.0,0.0,0.0,0.0,0.0,0.0,0.0,0.0,0.0,0.0,0.0,0.0,0.0,0.0,0.0,0.0,0.0,0.0,0.0,0.0,0.0,0.0,0.0,0.0,0.0,0.0,0.0,0.0,0.0,0.0,0.0,0.0,0.0,0.0,0.0,0.0,0.0,0.0,0.0,0.0,0.0,0.0,0.0,4.4452,4.4085,4.5663,4.4415,4.3497,4.3497,4.3497,4.3497,4.3497,4.1992,0.0,0.0,0.0,0.0,0.0,0.0,0.0,0.0,0.0,0.0,0.0,0.0,0.0,0.0,0.0,0.0,0.0,0.0,0.0,0.0,0.0,0.0,0.0,0.0,0.0,0.0,0.0,0.0,0.0,0.0,0.0,0.0,0.0,0.0,0.0,0.0,0.0,0.0,0.0,0.0,0.0,0.0,0.0,0.0,0.0,0.0,0.0,0.0,0.0,0.0,0.0,0.0,0.0,0.0,0.0,0.0,0.0,0.0,0.0,0.0,0.0,0.0,0.0,0.0,0.0,0.0,0.0,0.0,0.0,0.0,0.0,0.0,0.0,0.0,0.0,0.0,0.0,0.0,0.0,0.0,0.0,0.0,0.0,0.0,0.0,0.0,0.0,0.0,0.0,0.0,0.0,0.0,0.0,0.0,0.0,0.0,0.0,0.0,0.0,0.0,0.0,0.0,4.5369,4.5223,0.0,4.4929,4.4048,4.3534,4.3497,4.3277,4.2763,0.0,0.0,0.0,0.0,0.0,0.0,0.0,0.0,0.0,0.0,0.0,0.0,0.0,0.0,0.0,0.0,0.0,0.0,0.0,0.0,0.0,0.0,0.0,0.0,0.0,0.0,0.0,0.0,0.0,0.0,0.0,0.0,0.0,0.0,0.0,0.0,0.0,0.0,0.0,0.0,0.0,0.0,0.0,0.0,0.0,0.0,0.0,0.0,0.0,0.0,0.0,0.0,0.0,0.0,0.0,0.0,0.0,0.0,0.0,0.0,0.0,0.0,0.0,0.0,0.0,0.0,0.0,0.0,0.0,0.0,0.0,0.0,0.0,0.0,0.0,0.0,0.0,0.0,0.0,0.0,0.0,0.0,0.0,0.0,0.0,0.0,0.0,0.0,0.0,0.0,0.0,0.0,0.0,0.0,0.0,0.0,0.0,0.0,0.0,0.0,0.0,0.0,4.57,4.5883,4.5993,0.0,4.5553,4.4745,4.3938,4.3864,4.3424,4.2359,0.0,0.0,0.0,0.0,0.0,0.0,0.0,0.0,0.0,0.0,0.0,0.0,0.0,0.0,0.0,0.0,0.0,0.0,0.0,0.0,0.0,0.0,0.0,0.0,0.0,0.0,0.0,0.0,0.0,0.0,0.0,0.0,0.0,0.0,0.0,0.0,0.0,0.0,0.0,0.0,0.0,0.0,0.0,0.0,0.0,0.0,0.0,0.0,0.0,0.0,0.0,0.0,0.0,0.0,0.0,0.0,0.0,0.0,0.0,0.0,0.0,0.0,0.0,0.0,0.0,0.0,0.0,0.0,0.0,0.0,0.0,0.0,0.0,0.0,0.0,0.0,0.0,0.0,0.0,0.0,0.0,0.0,0.0,0.0,0.0,0.0,0.0,0.0,0.0,0.0,0.0,0.0,0.0,0.0,0.0,0.0,0.0,0.0,0.0,0.0,0.0,0.0,4.57,4.592,4.625,4.7021,4.6397,4.559,4.4782,4.4709,4.4011,0.0,0.0,0.0,0.0,0.0,0.0,0.0,0.0,0.0,0.0,0.0,0.0,0.0,0.0,0.0,0.0,0.0,0.0,0.0,0.0,0.0,0.0,0.0,0.0,0.0,0.0,0.0,0.0,0.0,0.0,0.0,0.0,0.0,0.0,0.0,0.0,0.0,0.0,0.0,0.0,0.0,0.0,0.0,0.0,0.0,0.0,0.0,0.0,0.0,0.0,0.0,0.0,0.0,0.0,0.0,0.0,0.0,0.0,0.0,0.0,0.0,0.0,0.0,0.0,0.0,0.0,0.0,0.0,0.0,0.0,0.0,0.0,0.0,0.0,0.0,0.0,0.0,0.0,0.0,0.0,0.0,0.0,0.0,0.0,0.0,0.0,0.0,0.0,0.0,0.0,0.0,0.0,0.0,0.0,0.0,0.0,0.0,0.0,0.0,0.0,0.0,0.0,0.0,0.0,4.6874,4.7462,4.7168,4.6911,4.6214,4.4819,4.4709,4.3791,4.1589,0.0,0.0,0.0,0.0,0.0,0.0,0.0,0.0,0.0,0.0,0.0,0.0,0.0,0.0,0.0,0.0,0.0,0.0,0.0,0.0,0.0,0.0,0.0,0.0,0.0,0.0,0.0,0.0,0.0,0.0,0.0,0.0,0.0,0.0,0.0,0.0,0.0,0.0,0.0,0.0,0.0,0.0,0.0,0.0,0.0,0.0,0.0,0.0,0.0,0.0,0.0,0.0,0.0,0.0,0.0,0.0,0.0,0.0,0.0,0.0,0.0,0.0,0.0,0.0,0.0,0.0,0.0,0.0,0.0,0.0,0.0,0.0,0.0,0.0,0.0,0.0,0.0,0.0,0.0,0.0,0.0,0.0,0.0,0.0,0.0,0.0,0.0,0.0,0.0,0.0,0.0,0.0,0.0,0.0,0.0,0.0,0.0,0.0,0.0,0.0,0.0,0.0,4.5773,4.7315,4.8122,4.7645,4.7609,4.6948,4.5333,4.5186,4.4011,4.1295,0.0,0.0,0.0,0.0,0.0,0.0,0.0,0.0,0.0,0.0,0.0,0.0,0.0,0.0,0.0,0.0,0.0,0.0,0.0,0.0,0.0,0.0,0.0,0.0,0.0,0.0,0.0,0.0,0.0,0.0,0.0,0.0,0.0,0.0,0.0,0.0,0.0,0.0,0.0,0.0,0.0,0.0,0.0,0.0,0.0,0.0,0.0,0.0,0.0,0.0,0.0,0.0,0.0,0.0,0.0,0.0,0.0,0.0,0.0,0.0,0.0,0.0,0.0,0.0,0.0,0.0,0.0,0.0,0.0,0.0,0.0,0.0,0.0,0.0,0.0,0.0,0.0,0.0,0.0,0.0,0.0,0.0,0.0,0.0,0.0,0.0,0.0,0.0,0.0,0.0,0.0,0.0,0.0,0.0,0.0,0.0,0.0,0.0,0.0,0.0,0.0,0.0,4.57,4.7315,4.8306,4.8306,4.8306,4.7645,4.603,4.5883,4.4562,4.1405,0.0,0.0,0.0,0.0,0.0,0.0,0.0,0.0,0.0,0.0,0.0,0.0,0.0,0.0,0.0,0.0,0.0,0.0,0.0,0.0,0.0,0.0,0.0,0.0,0.0,0.0,0.0,0.0,0.0,0.0,0.0,0.0,0.0,0.0,0.0,0.0,0.0,0.0,0.0,0.0,0.0,0.0,0.0,0.0,0.0,0.0,0.0,0.0,0.0,0.0,0.0,0.0,0.0,0.0,0.0,0.0,0.0,0.0,0.0,0.0,3.9827,0.0,0.0,0.0,0.0,0.0,0.0,0.0,0.0,0.0,0.0,0.0,0.0,0.0,0.0,0.0,0.0,0.0,0.0,0.0,0.0,0.0,0.0,0.0,0.0,0.0,0.0,0.0,0.0,0.0,0.0,0.0,0.0,0.0,0.0,0.0,0.0,0.0,0.0,0.0,0.0,0.0,4.5773,4.7315,4.8306,4.8306,4.8306,4.7645,4.603,4.5883,4.4782,4.2213,0.0,0.0,0.0,0.0,0.0,0.0,0.0,0.0,0.0,0.0,0.0,0.0,0.0,0.0,0.0,0.0,0.0,0.0,0.0,0.0,0.0,0.0,0.0,0.0,0.0,0.0,0.0,0.0,0.0,0.0,0.0,0.0,0.0,0.0,0.0,0.0,0.0,0.0,0.0,0.0,0.0,0.0,0.0,0.0,0.0,0.0,0.0,0.0,0.0,0.0,0.0,0.0,0.0,0.0,0.0,0.0,0.0,0.0,0.0,0.0,0.0,4.0928,0.0,0.0,0.0,0.0,0.0,0.0,0.0,0.0,0.0,0.0,0.0,0.0,0.0,0.0,0.0,0.0,0.0,0.0,0.0,0.0,0.0,0.0,0.0,0.0,0.0,0.0,0.0,0.0,0.0,0.0,0.0,0.0,0.0,0.0,0.0,0.0,0.0,0.0,0.0,0.0,4.581,4.7315,4.8306,4.8306,4.8306,4.7645,4.603,4.5883,4.4856,4.247,4.1552,0.0,0.0,0.0,0.0,0.0,0.0,0.0,0.0,0.0,0.0,0.0,0.0,0.0,0.0,0.0,0.0,0.0,0.0,0.0,0.0,0.0,0.0,0.0,0.0,0.0,0.0,0.0,0.0,0.0,0.0,0.0,0.0,0.0,0.0,0.0,0.0,0.0,0.0,0.0,0.0,0.0,0.0,0.0,0.0,0.0,0.0,0.0,0.0,0.0,0.0,0.0,0.0,0.0,0.0,0.0,4.4929,4.4929,4.4929,4.4819,4.28,4.2323,4.2837,0.0,0.0,0.0,0.0,0.0,0.0,0.0,0.0,0.0,0.0,0.0,0.0,0.0,0.0,0.0,0.0,0.0,0.0,0.0,0.0,0.0,0.0,0.0,0.0,0.0,4.7352,4.6764,0.0,0.0,0.0,0.0,0.0,0.0,0.0,0.0,0.0,0.0,0.0,0.0,4.581,4.7315,4.8306,4.8306,4.8306,4.7645,4.603,4.5883,4.4929,4.2653,4.1772,4.1001,0.0,0.0,0.0,0.0,0.0,0.0,0.0,0.0,0.0,0.0,0.0,0.0,0.0,0.0,0.0,0.0,0.0,0.0,0.0,0.0,0.0,0.0,0.0,0.0,0.0,0.0,0.0,0.0,0.0,0.0,0.0,0.0,3.99,4.0855,0.0,0.0,0.0,0.0,0.0,0.0,0.0,0.0,0.0,0.0,0.0,0.0,0.0,0.0,4.5259,4.5259,4.5369,4.559,4.559,4.5626,4.5736,4.5736,4.5736,4.5736,4.5406,0.0,4.5296,4.3791,0.0,0.0,0.0,0.0,0.0,0.0,0.0,0.0,0.0,0.0,0.0,0.0,0.0,0.0,0.0,0.0,0.0,0.0,0.0,0.0,0.0,0.0,4.7572,4.7205,4.8196,4.893,0.0,4.7131,4.6287,4.4562,0.0,0.0,0.0,0.0,0.0,0.0,0.0,0.0,4.5883,4.7315,4.8306,4.8306,4.8306,4.7645,4.603,4.5883,4.5149,4.3424,4.258,4.2103,4.1992,4.0524,0.0,0.0,0.0,0.0,0.0,0.0,0.0,0.0,0.0,0.0,0.0,0.0,0.0,0.0,0.0,0.0,0.0,0.0,0.0,0.0,0.0,0.0,0.0,0.0,0.0,0.0,0.0,0.0,0.0,3.9606,4.0891,4.1699,4.1479,4.1258,0.0,0.0,0.0,0.0,0.0,0.0,0.0,0.0,0.0,4.3461,4.4378,4.5186,4.5883,4.5883,4.614,4.6581,4.6581,4.6801,4.7241,4.7241,4.7241,4.7241,4.7241,4.7241,4.7131,4.5516,4.4856,4.4782,0.0,0.0,0.0,0.0,0.0,0.0,4.4452,0.0,0.0,0.0,0.0,0.0,0.0,0.0,0.0,0.0,0.0,0.0,0.0,0.0,0.0,4.8379,4.9077,4.9481,4.9114,4.8746,4.8012,0.0,4.6434,4.6177,4.4488,0.0,0.0,0.0,0.0,0.0,4.6581,4.7572,4.8306,4.8306,4.8306,4.7829,4.6691,4.6581,4.6104,4.4929,4.4525,4.4305,4.4305,4.2763,4.1735,0.0,0.0,0.0,0.0,0.0,0.0,0.0,0.0,0.0,0.0,0.0,0.0,0.0,0.0,0.0,0.0,0.0,0.0,0.0,0.0,0.0,0.0,0.0,0.0,0.0,0.0,0.0,0.0,4.0744,0.0,4.2506,4.2433,4.2286,0.0,0.0,0.0,0.0,0.0,0.0,4.2029,4.3351,4.4195,4.4415,4.559,4.6324,4.6507,4.6507,4.6801,4.7425,4.7425,4.7719,4.8306,4.8306,4.8306,4.8306,4.8306,4.8306,4.8196,4.6801,4.6214,4.6177,4.5993,4.5883,0.0,4.5883,4.603,4.625,4.6654,4.6544,4.6104,4.5516,0.0,4.4709,4.313,0.0,0.0,0.0,0.0,4.6397,4.7205,0.0,4.7719,4.8967,4.9444,4.9591,4.9591,4.9591,4.915,0.0,4.7719,4.7425,4.5626,0.0,0.0,0.0,0.0,4.7131,4.7131,4.7792,4.8306,4.8306,4.8306,4.7976,4.7205,4.7131,4.6764,4.5957,4.5883,4.5883,4.5883,4.4745,4.4011,0.0,0.0,0.0,0.0,0.0,0.0,0.0,0.0,0.0,0.0,0.0,0.0,0.0,0.0,0.0,0.0,0.0,0.0,0.0,0.0,0.0,0.0,0.0,0.0,0.0,0.0,0.0,0.0,0.0,0.0,4.324,4.2763,0.0,0.0,0.0,0.0,4.2176,4.2947,4.3718,4.4488,4.5333,4.614,4.6911,4.7021,4.7425,4.8159,4.8196,4.8196,4.8233,4.8233,4.8269,4.8306,4.8306,4.8306,4.8306,4.8306,4.8306,4.8233,4.7388,4.7058,4.6985,4.6214,4.5883,4.5883,4.5883,4.6397,4.6948,4.6214,4.6434,4.7058,4.7021,4.6471,4.5957,4.6617,4.581,0.0,0.0,4.7021,4.7241,4.8049,4.8233,4.8269,4.8343,4.9003,4.9591,4.9591,4.9591,4.9334,0.0,4.7682,4.7094,4.7021,0.0,0.0,4.5847,4.6581,4.7131,4.7131,4.7792,4.8306,4.8306,4.8306,4.7976,4.7205,4.7131,4.6764,4.5957,4.5883,4.5883,4.5883,4.581,4.5406,4.4672,4.3754,0.0,0.0,0.0,0.0,0.0,0.0,0.0,0.0,0.0,0.0,0.0,0.0,0.0,0.0,0.0,0.0,0.0,0.0,0.0,0.0,0.0,0.0,0.0,0.0,0.0,0.0,0.0,0.0,4.3351,4.2923,0.0,0.0,4.2485,4.2596,4.3756,4.4121,4.4635,4.5443,4.625,4.6801,4.7057,4.7609,4.8012,4.8306,4.8306,4.8306,4.8306,4.8306,4.8306,4.8306,4.8306,4.8306,4.8306,4.8306,4.8306,4.8269,4.8012,4.7865,4.7865,4.7572,4.7462,4.7462,4.7462,4.7645,4.7829,4.7535,4.7645,4.7865,4.7865,4.6985,4.614,4.7462,4.7131,4.6471,4.7572,4.7865,4.7939,4.8233,4.8306,4.8306,4.8306,4.8526,4.8746,4.8746,4.8746,4.8673,4.8379,4.8086,4.7719,4.7205,4.7315,4.7278,4.6764,4.7388,4.7865,4.7865,4.8122,4.8306,4.8306,4.8306,4.8196,4.7902,4.7865,4.7755,4.7462,4.7462,4.7462,4.7462,4.6948,4.6544,4.625,4.4452,4.2559,0.0,0.0,0.0,0.0,0.0,0.0,0.0,0.0,0.0,0.0,0.0,0.0,0.0,0.0,0.0,0.0,0.0,0.0,0.0,0.0,0.0,0.0,0.0,0.0,0.0,0.0,4.2616,4.3387,4.3032,4.2884,4.3463,4.2995,4.3139,4.4196,4.4819,4.5333,4.5883,4.6911,4.7498,4.7498,4.8012,4.8306,4.8306,4.8306,4.8306,4.8306,4.8306,4.8306,4.8306,4.8306,4.8306,4.8306,4.8306,4.8306,4.8306,4.8306,4.8306,4.8306,4.8306,4.8306,4.8306,4.8306,4.8306,4.8306,4.8306,4.8306,4.8306,4.8306,4.7572,4.6911,4.7976,4.7939,4.7645,4.8159,4.8306,4.8306,4.8306,4.8306,4.8306,4.8306,4.8306,4.8306,4.8306,4.8306,4.8306,4.8306,4.8306,4.8122,4.7609,4.7976,4.8122,4.7609,4.7976,4.8306,4.8306,4.8306,4.8306,4.8306,4.8306,4.8306,4.8306,4.8049,4.8012,4.8269,4.8049,4.8012,4.8306,4.7535,4.7131,4.7131,4.5002,4.3141,4.1547,0.0,0.0,0.0,0.0,0.0,0.0,0.0,0.0,0.0,0.0,0.0,0.0,0.0,0.0,0.0,0.0,0.0,0.0,0.0,0.0,0.0,0.0,0.0,4.2286,4.2323,4.2616,4.3387,4.3032,4.2884,4.3391,4.3032,4.292,4.3463,4.5002,4.592,4.5957,4.7462,4.8306,4.8306,4.8306,4.8306,4.8306,4.8306,4.8306,4.8306,4.8306,4.8306,4.8306,4.8306,4.8306,4.8306,4.8306,4.8306,4.8306,4.8306,4.8306,4.8306,4.8306,4.8306,4.8306,4.8306,4.8306,4.8306,4.8306,4.8306,4.8306,4.8306,4.8306,4.8306,4.8306,4.8306,4.8306,4.8306,4.8306,4.8306,4.8306,4.8306,4.8306,4.8306,4.8306,4.8306,4.8306,4.8306,4.8306,4.8306,4.8306,4.8306,4.8306,4.8306,4.8306,4.8306,4.8306,0.0,4.8306,4.8306,4.8306,4.8343,4.8343,4.8343,4.8343,4.7645,4.7498,4.8269,4.7572,4.7498,4.8306,4.7609,4.7205,4.7168,4.559,4.4229,4.3022,0.0,0.0,0.0,0.0,0.0,0.0,0.0,0.0,0.0,0.0,0.0,0.0,0.0,0.0,0.0,0.0,0.0,0.0,0.0,0.0,0.0,0.0,4.2286,4.2286,4.28,4.324,4.3461,4.3032,4.2732,4.292,4.277,4.3023,4.3756,4.5113,4.614,4.6764,4.7755,4.8306,4.8306,4.8306,4.8306,4.8306,4.8306,4.8306,4.8306,4.8306,4.8306,4.8306,4.8306,4.8306,4.8306,4.8306,4.8306,4.8306,4.8306,4.8306,4.8306,4.8306,4.8306,4.8306,4.8306,4.8306,4.8306,4.8306,4.8306,4.8306,4.8306,4.8306,4.8306,4.8306,4.8306,4.8306,4.8306,4.8306,4.8306,4.8306,4.8306,4.8306,4.8306,4.8306,4.8306,4.8306,4.8306,4.8306,4.8306,4.8306,4.8306,4.8306,4.8306,4.8306,4.8306,0.0,0.0,4.8306,4.8306,4.8526,4.9187,4.9224,4.9224,4.9224,4.9003,4.871,0.0,4.8086,4.8343,4.9187,4.9003,4.86,4.7976,4.7189,4.5791,0.0,0.0,0.0,0.0,0.0,0.0,0.0,0.0,0.0,0.0,0.0,0.0,0.0,0.0,0.0,0.0,0.0,0.0,0.0,0.0,0.0,0.0,4.1956,4.28,4.28,4.3204,4.3497,4.3497,4.3032,4.277,4.3032,4.2808,4.2987,4.365,4.5077,4.6104,4.6581,4.7682,4.8306,4.8306,4.8306,4.8306,4.8306,4.8306,4.8306,4.8306,4.8306,4.8306,4.8306,4.8306,4.8306,0.0,4.8306,4.8306,4.8306,4.8306,4.8306,0.0,0.0,0.0,0.0,0.0,4.8306,4.8306,4.8306,4.8306,4.8306,4.8306,4.8306,4.8306,4.8306,4.8306,4.8306,4.8306,4.8306,4.8306,4.8306,4.8306,4.8306,4.8306,4.8306,4.8306,4.8306,4.8306,4.8306,4.8306,0.0,0.0,4.8306,4.8306,4.8306,4.8306,4.8306,4.8416,0.0,4.882,4.915,4.9994,5.0105,5.0105,5.0105,4.9738,0.0,0.0,0.0,4.904,4.9517,0.0,0.0,0.0,0.0,0.0,0.0,0.0,0.0,0.0,4.5079,4.5096,0.0,0.0,0.0,0.0,0.0,0.0,0.0,0.0,0.0,0.0,0.0,0.0,0.0,0.0,0.0,0.0,4.2983,4.3497,4.3497,4.3497,4.3497,4.3497,4.3105,4.2921,4.3356,4.3032,4.2995,4.3356,4.4967,4.5883,0.0,0.0,0.0,0.0,0.0,4.8306,4.8306,4.8306,4.8306,4.8306,4.8306,4.8306,4.8306,4.8306,4.8306,4.8306,4.8306,4.8306,4.8306,4.8306,4.8306,4.8306,4.8306,4.8306,4.8306,4.8306,4.8306,0.0,0.0,0.0,0.0,4.8306,4.8306,4.8306,4.8306,4.8306,4.8306,4.8306,4.8306,4.8306,4.8306,4.8306,4.8306,4.8306,4.8306,4.8306,4.8306,4.8306,4.8306,4.8306,4.8306,4.8343,4.8416,4.8379,4.8343,4.8416,4.8453,0.0,4.9591,4.9664,4.9994,5.0839,0.0,0.0,5.0949,5.0288,5.0141,5.0765,5.0251,4.9958,5.0031,5.0178,5.0545,5.1206,5.1316,5.1974,5.3315,5.4045,5.3675,5.2272,4.772,4.7148,0.0,0.0,0.0,0.0,0.0,0.0,0.0,0.0,0.0,0.0,0.0,0.0,0.0,0.0,0.0,4.2139,4.2983,4.3497,4.3497,4.3497,4.3497,4.3497,4.3428,4.3214,4.292,4.3142,4.3214,4.2884,4.4748,4.5883,4.5883,4.7425,0.0,4.8306,4.8306,4.8306,4.8306,4.8306,4.8306,4.8306,0.0,0.0,4.8306,4.8306,4.8306,4.8306,4.8306,4.8306,4.8306,4.8306,4.8306,4.8306,4.8306,4.8306,4.8306,4.8306,4.8306,4.8306,4.8306,4.8306,4.8306,4.8306,4.8306,4.8306,4.8306,4.8306,0.0,4.8306,4.8306,4.8306,4.8306,4.8306,4.8306,4.8306,4.8306,4.8306,4.8306,4.8306,4.8306,4.8306,4.8306,4.8526,4.9224,4.8783,4.8526,4.9224,4.9334,4.9627,5.0472,5.0545,5.0875,5.1683,5.1756,5.1756,5.1756,5.161,5.1316,5.0839,5.1867,5.2784,5.3445,5.4069,5.4216,5.3702,5.4326,5.4245,5.3315,5.4134,5.408,5.3175,5.2161,5.1409,0.0,0.0,0.0,0.0,0.0,0.0,0.0,0.0,0.0,0.0,0.0,3.968,0.0,0.0,4.1956,4.2763,4.324,4.3497,4.3497,4.3497,4.3497,4.3497,4.3497,4.3391,4.3142,4.3321,4.3391,4.3142,4.4821,4.5883,4.5883,4.7425,4.8306,4.8306,4.8306,4.8306,4.8306,4.8306,4.8306,4.8306,4.8306,4.8306,4.8306,4.8306,4.8306,4.8306,4.8306,4.8306,4.8306,4.8306,4.8306,4.8306,4.8306,4.8306,4.8306,4.8306,4.8306,4.8306,4.8306,4.8306,4.8306,4.8306,4.8306,4.8306,4.8306,4.8306,4.8306,4.8306,4.8306,4.8306,4.8306,4.8636,4.893,4.893,4.926,4.9554,4.9554,4.9554,4.9554,4.9554,4.9554,4.9701,5.0141,4.9848,4.9701,5.0141,5.0178,5.0472,5.1279,5.1389,5.172,5.2527,5.2968,5.3188,5.3188,5.3555,5.3628,5.3225,5.3959,5.4583,5.4987,5.539,5.5611,5.5611,5.6014,5.6026,5.5676,5.6113,5.5685,5.4555,5.4555,5.3717,0.0,0.0,0.0,0.0,0.0,0.0,0.0,0.0,3.9643,4.0414,4.0598,4.1001,4.2286,4.2543,4.2763,4.3387,4.3497,4.3497,4.3497,4.3497,4.3497,4.3497,4.3497,4.3497,4.3497,4.3497,4.3497,4.3497,4.5002,4.5883,4.5883,4.7425,4.8306,4.8306,4.8306,4.8306,4.8306,4.8306,4.8306,4.8306,4.8306,4.8306,4.8306,4.8306,4.8306,4.8306,4.8306,4.8306,4.8306,4.8306,4.8306,4.8306,4.8306,4.8306,4.8306,4.8306,4.8306,4.8306,4.8306,4.8306,4.8306,4.8306,4.8306,4.8306,4.8306,4.8306,4.8306,4.8306,4.8416,4.8563,4.8563,4.9187,4.9811,4.9811,5.0325,5.0802,5.0802,5.0802,5.0802,5.0802,5.0802,5.0839,5.1022,5.1022,5.1022,5.1022,5.1022,5.1316,5.2123,5.2234,5.2527,5.3371,5.3995,5.4473,5.462,5.5207,5.5647,5.5794,5.5831,5.5904,5.6051,5.6051,5.6381,5.7042,5.7042,5.7336,5.7997,5.7997,5.7216,5.5724,5.5724,5.4887,4.1295,4.1111,0.0,4.1882,4.1442,4.1222,0.0,0.0,4.2139,4.291,4.3094,4.313,4.3314,4.3351,4.3387,4.3497,4.3497,4.3497,4.3497,4.3497,4.3497,4.3497,4.3497,4.3497,4.3497,4.3497,4.3497,4.3497,4.5002,4.5883,4.5883,4.7425,4.8306,4.8306,4.8306,4.8306,4.8306,4.8306,4.8306,4.8306,4.8306,4.8306,4.8306,4.8306,4.8306,4.8306,4.8306,4.8306,4.8306,4.8306,4.8306,4.8306,4.8306,4.8306,4.8306,4.8306,4.8306,4.8306,4.8306,4.8306,4.8306,4.8306,4.8306,4.8306,4.8306,4.8306,4.8306,4.8306,4.8857,4.9444,4.9444,5.0068,5.0655,5.0655,5.0729,5.0802,5.0802,5.0802,5.0802,5.0802,5.0802,5.1022,5.172,5.1867,5.1867,5.1867,5.1867,5.216,5.2968,5.3078,5.3371,5.4179,5.4363,5.4693,5.539,5.5537,5.5904,5.6638,5.6675,5.7005,5.7703,5.774,5.7776,5.785,5.7886,5.7923,5.7997,5.7997,5.7216,5.5724,5.5724,5.4904,4.2323,0.0,0.0,0.0,4.2763,4.2653,4.3351,4.324,4.3094,4.3424,4.3497,4.3497,4.3497,4.3497,4.3497,0.0,4.3497,4.3497,4.3497,4.3497,4.3497,4.3497,4.3901,4.4011,4.3534,4.3497,4.3497,4.3497,4.5002,4.5883,4.5883,4.7425,4.8306,4.8306,4.8306,4.8306,4.8306,4.8306,4.8306,4.8306,4.8306,4.8306,4.8306,4.8306,4.8306,4.8306,4.8306,4.8306,4.8306,4.8306,4.8306,4.8306,4.8306,4.8306,4.8306,4.8306,4.8306,4.8306,4.8306,4.8306,4.8306,4.8306,4.8306,4.8306,4.8306,4.8636,4.904,4.904,4.9664,5.0288,5.0288,5.0912,5.1499,5.1499,5.1867,5.2197,5.2197,5.2197,5.2197,5.2197,5.2197,5.2307,5.2637,5.2711,5.2711,5.2711,5.2711,5.2821,5.3188,5.3628,5.4399,5.5647,5.5794,5.6124,5.6932,5.7005,5.7152,5.7483,5.7483,5.7666,5.7997,5.7997,5.7997,5.7997,5.7997,5.7997,5.7997,5.7997,5.7449,5.6367,5.6367,5.5816,4.2837,0.0,0.0,4.3277,4.3497,4.3497,4.3497,4.3497,4.3497,4.3497,4.3497,4.3497,4.3497,4.3497,0.0,4.3497,4.3497,4.3497,4.3497,4.3497,4.3497,4.3497,4.4011,4.4232,4.3864,4.4011,4.4158,4.4158,4.5443,4.625,4.625,4.7572,4.8306,4.8306,4.8306,4.8306,4.8306,4.8306,4.8306,4.8306,4.8306,4.8306,4.8306,4.8306,4.8306,4.8306,4.8306,4.8306,4.8306,4.8306,4.8306,4.8343,4.8563,4.8673,4.8673,4.893,4.8857,4.8673,4.893,4.9003,4.9003,4.9003,4.9003,4.9003,4.9003,4.9444,4.9921,4.9921,5.0508,5.1132,5.1132,5.172,5.2344,5.2344,5.2784,5.3225,5.3225,5.3225,5.3225,5.3225,5.3408,5.3555,5.3555,5.3739,5.3849,5.3849,5.3849,5.3775,5.3555,5.4436,5.55,5.6675,5.7005,5.7373,5.796,5.7997,5.7997,5.7997,5.7997,5.7997,5.7997,5.7997,5.7997,5.7997,5.7997,5.7997,5.7997,5.7997,5.7631,5.6912,5.6912,5.6367,0.0,0.0,4.2506,4.3277,4.3497,4.3497,4.3497,4.3497,4.3497,4.3497,4.3497,4.3497,4.3497,4.3497,4.3497,4.3497,4.3497,4.3497,4.3497,4.3497,4.3497,4.3497,4.3497,4.3828,0.0,4.5369,4.581,4.581,4.6617,4.7095,4.7095,4.7865,4.8306,4.8306,4.8306,4.8306,4.8306,4.8306,4.8306,4.8306,4.8306,4.8306,4.8306,4.8306,4.8306,4.8306,4.8306,4.8306,4.8306,4.8306,4.8306,4.8379,4.9224,4.9554,4.9627,5.0435,5.0215,4.9664,5.0435,5.0729,5.0729,5.0729,5.0729,5.0729,5.0729,5.0729,5.0765,5.0765,5.1353,5.194,5.194,5.2564,5.3188,5.3188,5.3188,5.3225,5.3225,5.3225,5.3225,5.3225,5.3849,5.4363,5.4363,5.4987,5.5537,5.5537,5.5537,5.5244,5.4473,5.5757,5.6748,5.6785,5.7483,5.796,5.7997,5.7997,5.7997,5.7997,5.7997,5.7997,5.7997,5.7997,5.7997,5.7997,5.7997,5.7997,5.7997,5.7997,5.7631,5.6912,5.6912,5.6095,0.0,0.0,4.2506,4.3277,4.3497,4.3497,4.3497,4.3497,4.3497,4.3497,4.3497,4.3497,4.3497,4.3497,4.3497,4.3497,4.3497,4.3497,4.3497,4.3975,4.4305,4.4305,4.5259,0.0,0.0,0.0,0.0,4.5847,4.6654,4.7131,4.7131,4.7865,4.8306,4.8306,4.8306,4.8306,4.8306,4.8857,4.915,4.915,4.9701,4.9958,4.9958,4.9958,4.9958,4.9958,4.9958,4.9958,4.9958,4.9958,4.9958,4.9994,5.0288,5.0398,5.0472,5.1279,5.1426,5.1132,5.0875,5.0802,5.0802,5.0802,5.0802,5.0802,5.0802,5.1169,5.161,5.161,5.2197,5.2821,5.2821,5.3004,5.3225,5.3225,5.3225,5.3371,5.3885,5.3995,5.4142,5.4693,5.4987,5.5207,5.5207,5.5427,5.5757,5.6308,5.5941,5.5684,5.5978,5.6492,5.7005,5.7556,5.785,5.7997,5.7997,5.7997,5.7997,5.7997,5.7997,5.7997,5.7997,5.7997,5.7997,5.7997,5.7997,5.7997,5.7997,5.7997,5.7867,5.7631,5.7631,5.7315,0.0,4.2286,4.2506,4.3277,4.3497,4.3497,4.3497,4.3497,4.3497,4.3497,4.3321,4.325,4.3463,4.3321,4.3286,4.3497,4.3718,4.3938,4.3938,4.4635,4.5149,4.5149,4.6067,0.0,0.0,0.0,0.0,4.6691,4.7241,4.7535,4.7535,4.8012,4.8306,4.8306,4.8306,4.8453,4.8746,4.9297,4.9738,5.0031,5.0545,5.0802,5.0802,5.0802,5.0802,5.0802,5.0802,5.0802,5.0802,5.0802,5.0802,5.0839,5.1132,5.1242,5.1316,5.2123,5.2417,5.2344,5.183,5.1683,5.1683,5.1683,5.1683,5.1683,5.1683,5.2013,5.2417,5.2417,5.2821,5.3225,5.3225,5.3408,5.3628,5.3628,5.3849,5.4216,5.473,5.484,5.4987,5.55,5.5831,5.6014,5.6014,5.6271,5.6638,5.7152,5.6785,5.6638,5.7152,5.7226,5.7446,5.7923,5.7997,5.7997,5.7997,5.7997,5.7997,5.7997,5.7997,5.7997,5.7997,5.7997,5.7997,5.7997,5.829,5.8437,5.8437,5.8731,5.8841,5.8841,5.8547,5.826,4.2103,4.2323,4.2543,4.3314,4.3497,4.3497,4.3497,4.3497,4.3497,4.3497,4.3069,4.2846,0.0,0.0,4.2918,4.3465,4.4232,4.4782,4.4782,4.5443,4.5957,0.0,0.0,0.0,0.0,0.0,0.0,4.8306,0.0,4.8343,4.8379,4.8343,4.8343,4.8379,4.8379,4.8783,4.9627,4.9701,5.0105,5.0912,5.0912,5.0912,5.0912,5.0912,5.0912,5.0912,5.0912,5.0912,5.0912,5.0912,5.0912,5.0986,5.1756,5.205,5.216,5.2931,5.3225,5.3225,5.3225,5.3225,5.3225,5.3225,5.3225,5.3225,5.3225,5.3225,5.3225,5.3225,5.3225,5.3261,5.3261,5.3849,5.4473,5.4473,5.5023,5.5611,5.5647,5.5647,5.5647,5.5684,5.6345,5.6859,5.6859,5.7483,5.7997,5.7997,5.7997,5.7997,5.7997,5.7997,5.7997,5.7997,5.7997,5.7997,5.7997,5.7997,5.7997,5.7997,5.7997,5.7997,5.7997,5.7997,5.8033,5.807,5.8804,5.9245,5.9281,6.0052,6.0419,6.0382,5.9648,5.8872,4.2249,4.2727,4.324,4.3424,4.3497,4.3497,4.3497,4.3497,4.3497,4.3497,4.3069,4.2846,0.0,0.0,0.0,4.4307,4.5076,0.0,4.559,4.6287,0.0,0.0,0.0,4.7792,4.7976,4.8012,0.0,0.0,4.8673,4.86,4.9224,4.8636,4.86,4.9224,4.926,4.9664,5.0472,5.1096,5.1793,5.2601,5.2601,5.2601,5.2601,5.2601,5.2601,5.2601,5.2601,5.2601,5.2601,5.2601,5.2601,5.2637,5.2821,5.2894,5.2931,5.3115,5.3225,5.3225,5.3225,5.3225,5.3225,5.3225,5.3225,5.3225,5.3225,5.3225,5.3225,5.3225,5.3628,5.4106,5.4106,5.4693,5.528,5.528,5.5427,5.5757,5.6345,5.6492,5.6675,5.7262,5.7556,5.7703,5.7703,5.785,5.7997,5.7997,5.7997,5.7997,5.7997,5.7997,5.7997,5.7997,5.7997,5.7997,5.7997,5.7997,5.7997,5.7997,5.7997,5.7997,5.7997,5.7997,5.829,5.8877,5.9098,5.9501,6.0089,6.0309,6.0419,6.0419,6.0199,5.9663,4.2727,4.3167,4.3497,4.3497,4.3497,4.3497,4.3497,4.3497,4.3497,4.3497,4.2884,0.0,0.0,0.0,0.0,0.0,0.0,0.0,4.6434,4.7131,4.7645,0.0,4.8049,0.0,4.8306,4.8636,4.9224,0.0,0.0,4.9224,5.0068,4.9664,4.9627,5.0105,5.0105,5.0508,5.1316,5.2123,5.2747,5.3225,5.3225,5.3225,5.3225,5.3225,5.3225,5.3225,0.0,5.3225,5.3225,5.3225,5.3225,5.3225,5.3225,5.3225,5.3225,5.3225,5.3225,5.3225,5.3225,5.3225,5.3225,5.3225,5.3225,5.3225,5.3225,5.3225,5.3298,5.3628,5.4069,5.4473,5.484,5.55,5.6124,5.6124,5.6381,5.6785,5.7226,5.7336,5.7446,5.7923,5.7997,5.7997,5.7997,5.7997,5.7997,5.7997,5.7997,5.7997,5.7997,5.7997,5.7997,5.7997,5.7997,5.7997,5.7997,5.7997,5.7997,5.7997,5.7997,5.7997,5.7997,5.8327,5.8767,5.9208,5.9905,6.0493,6.0933,6.13,6.1447,6.1447,6.108,6.0676,4.3314,4.3497,4.3497,4.3497,4.3497,4.3497,4.3497,4.3497,4.3497,4.3497,0.0,0.0,4.3321,0.0,4.3668,4.4821,0.0,4.7498,4.7609,4.8196,4.8636,4.8636,4.8636,4.8636,4.8636,4.9297,5.0068,5.0912,5.0288,5.0215,5.0912,5.0875,5.0839,5.0949,5.1059,5.1463,5.216,5.2858,5.3225,5.3225,5.3225,5.3225,5.3225,5.3225,5.3225,5.3225,0.0,0.0,5.3225,5.3225,5.3225,5.3225,5.3225,5.3225,5.3225,5.3225,5.3225,5.3225,5.3335,5.3371,5.3335,5.3225,5.3298,5.3335,5.3225,5.3371,5.3665,5.4216,5.4546,5.4876,5.5574,5.6345,5.6969,5.6969,5.7483,5.7997,5.7997,5.7997,5.7997,5.7997,5.7997,5.7997,5.7997,5.7997,5.7997,5.7997,5.7997,5.7997,5.7997,5.7997,5.7997,5.7997,5.7997,5.7997,5.7997,5.7997,5.8033,5.8143,5.8143,5.8217,5.8327,5.8988,5.9428,5.9538,6.0896,6.163,6.1741,6.2475,6.2805,6.2805,6.2071,6.1704,4.3461,4.3497,4.3497,4.3497,4.3497,4.3497,4.3497,4.3497,0.0,0.0,0.0,4.2732,4.3356,4.4195,0.0,4.6469,0.0,0.0,0.0,0.0,5.0362,0.0,0.0,0.0,0.0,0.0,0.0,0.0,0.0,0.0,5.1756,5.1169,5.1096,5.1756,5.2454,5.2858,5.3004,5.3151,5.3225,5.3225,5.3225,5.3225,5.3225,5.3225,5.3225,5.3225,0.0,0.0,5.3225,5.3225,5.3225,5.3225,5.3225,5.3225,5.3225,5.3225,5.3225,5.3298,5.3959,5.4179,5.4069,5.3445,5.3665,5.4069,5.3408,5.4142,5.506,5.4546,5.5354,5.6418,5.6565,5.7189,5.7776,5.7776,5.7886,5.7997,5.7997,5.7997,5.7997,5.7997,5.7997,5.7997,5.7997,5.7997,5.7997,5.7997,5.7997,5.7997,5.7997,5.7997,5.7997,5.7997,5.7997,5.7997,5.7997,5.7997,5.829,5.8951,5.8988,5.9281,5.9979,6.0126,6.0493,6.1153,6.1447,6.1924,6.2585,6.2732,6.2805,6.2805,6.2658,6.2254,4.3497,4.3497,4.3497,4.3497,4.3497,4.3497,4.3497,0.0,0.0,0.0,0.0,4.285,4.3389,4.4052,0.0,0.0,0.0,0.0,0.0,0.0,0.0,0.0,0.0,0.0,0.0,0.0,0.0,0.0,0.0,0.0,0.0,5.227,5.2234,5.2601,5.3004,5.3225,5.3225,5.3225,5.3225,5.3225,5.3628,5.3812,5.3849,5.4252,5.4436,5.4436,0.0,0.0,5.3849,5.4289,5.4216,5.3885,5.4289,5.4436,5.4436,5.4436,5.4436,5.4509,5.4876,5.5023,5.495,5.4583,5.4693,5.495,5.4583,5.4987,5.5611,5.5647,5.6198,5.6895,5.7336,5.7703,5.7997,5.7997,5.7997,5.7997,5.7997,5.7997,5.7997,5.7997,5.7997,5.7997,5.7997,5.7997,5.7997,5.7997,5.7997,5.7997,5.7997,5.7997,5.7997,5.7997,5.8364,5.8621,5.8621,5.9024,5.9428,5.9795,5.9832,6.0015,6.0382,6.0786,6.119,6.1594,6.1998,6.2401,6.2805,6.2805,6.2805,6.2805,6.2805,6.2585,4.3497,4.3497,4.3497,4.3497,4.3497,4.3497,4.3497,4.3497,0.0,0.0,0.0,4.3023,4.3424,4.3798,4.4562,0.0,0.0,0.0,0.0,0.0,0.0,0.0,0.0,0.0,0.0,0.0,0.0,0.0,0.0,0.0,0.0,5.3225,5.3225,5.3225,5.3225,5.3298,5.3482,5.3482,5.3555,5.3739,5.4363,5.4656,5.4693,5.5317,5.5574,5.5574,0.0,0.0,0.0,5.5317,5.5207,5.473,5.5354,5.5574,5.5574,5.5574,5.5574,5.5611,5.5794,5.5868,5.5868,5.6051,5.5978,5.5794,5.5647,5.5831,5.6198,5.6675,5.6932,5.7189,5.785,5.7997,5.7997,5.7997,5.7997,5.7997,5.7997,5.7997,5.7997,5.7997,5.7997,5.7997,5.7997,5.7997,5.7997,5.7997,5.7997,5.7997,5.7997,5.8143,5.8253,5.8253,5.8841,5.9281,5.9465,6.0052,6.0456,6.0639,6.0676,6.075,6.0933,6.152,6.1851,6.1851,6.2475,6.2805,6.2805,6.2805,6.2805,6.2805,6.2805,6.2805,4.3497,4.3497,4.3497,4.3497,4.3497,4.3497,4.3497,0.0,0.0,0.0,4.3461,4.3424,4.3497,4.412,4.5144,0.0,0.0,0.0,0.0,0.0,0.0,0.0,0.0,0.0,0.0,0.0,0.0,0.0,0.0,0.0,0.0,5.3225,5.3225,5.3225,5.3225,5.3555,5.4289,5.4289,5.4656,5.5354,5.5427,5.5464,5.5464,5.5574,5.5574,5.5574,0.0,0.0,0.0,5.5574,5.5537,5.55,5.5574,5.5574,5.5574,5.5574,5.5574,5.5684,5.6455,5.6712,5.6822,5.7556,5.7299,5.6565,5.5794,5.6602,5.7629,5.6969,5.7336,5.7923,5.796,5.7997,5.7997,5.7997,5.7997,5.7997,5.7997,5.7997,5.7997,5.7997,5.7997,5.7997,5.7997,5.7997,5.7997,5.7997,5.7997,5.7997,5.7997,5.8657,5.9098,5.9098,5.9171,5.9501,6.0236,6.0382,6.0713,6.1447,6.1484,6.1814,6.2548,6.2658,6.2695,6.2695,6.2768,6.2805,6.2805,6.2805,6.2805,6.2805,6.2805,6.2805,4.3497,4.3497,4.3642,4.4081,4.386,4.3642,4.4081,0.0,0.0,4.3497,4.3497,4.3497,4.3497,4.3752,4.4518,0.0,0.0,0.0,0.0,0.0,0.0,0.0,0.0,0.0,0.0,0.0,0.0,0.0,0.0,0.0,0.0,0.0,5.3922,5.3922,5.4399,5.4803,5.5097,5.5097,5.528,5.5611,5.6088,5.6308,5.6345,5.6822,5.7042,0.0,0.0,0.0,0.0,5.6822,5.6748,5.6381,5.6859,5.7042,5.7042,5.7042,5.7042,5.7079,5.7409,5.7519,5.7593,5.7886,5.7776,5.7446,5.7152,5.7483,5.7923,5.7593,5.774,5.7997,5.7997,5.7997,5.7997,5.7997,5.7997,5.7997,5.7997,5.7997,5.7997,5.7997,5.7997,5.7997,5.7997,5.7997,5.7997,5.7997,5.7997,5.818,5.8657,5.9024,5.9575,6.0529,6.0639,6.0786,6.108,6.1594,6.1998,6.2291,6.2328,6.2475,6.2805,6.2805,6.2805,6.2805,6.3319,6.3576,6.3576,6.409,6.4053,6.3576,6.3576,6.3319,4.3789,4.3826,4.4044,4.4847,4.445,4.4014,0.0,0.0,4.3497,4.3497,4.3497,4.3497,4.3497,4.3497,4.4046,0.0,0.0,0.0,0.0,0.0,0.0,0.0,0.0,0.0,0.0,0.0,0.0,0.0,0.0,0.0,0.0,0.0,5.4987,5.4766,5.528,5.5684,5.5941,5.5941,5.6051,5.6308,5.6895,5.7152,5.7189,5.774,5.7997,0.0,0.0,0.0,0.0,5.7776,5.7666,5.7226,5.7776,5.7997,5.7997,5.7997,5.7997,5.7997,5.7997,5.7997,5.7997,5.7997,5.7997,5.7997,5.7997,5.7997,5.7997,5.7997,5.7997,5.7997,5.7997,5.7997,5.7997,5.7997,5.7997,5.7997,5.7997,5.7997,5.7997,5.7997,5.7997,5.7997,5.7997,5.8217,5.8364,5.8364,5.8547,5.8914,5.9501,5.9758,6.0346,6.1484,6.1814,6.1961,6.1961,6.2475,6.2805,6.2805,6.2805,6.2805,6.2805,6.2805,6.2915,6.3172,6.3796,6.42,6.4457,6.5007,6.5007,6.4457,6.4457,6.4016,4.4481,4.4665,4.4884,4.569,4.526,4.4709,0.0,4.4081,4.3497,4.3497,4.3497,4.3497,4.3497,4.3497,4.4014,4.5623,4.6537,0.0,0.0,0.0,0.0,0.0,0.0,0.0,0.0,0.0,0.0,0.0,0.0,0.0,0.0,0.0,5.6418,5.5611,5.5574,5.5978,5.6785,5.6785,5.7189,5.796,5.796,5.7997,5.7997,5.7997,0.0,0.0,0.0,0.0,0.0,5.7997,5.7997,5.7997,5.7997,5.7997,5.7997,5.7997,5.7997,5.7997,5.7997,5.7997,5.7997,5.7997,5.7997,5.7997,5.7997,5.7997,5.7997,5.7997,5.7997,5.7997,5.7997,5.7997,5.7997,5.7997,5.7997,5.7997,5.7997,5.7997,5.7997,5.7997,5.7997,5.7997,5.7997,5.8657,5.9208,5.9208,5.9869,6.0382,6.0382,6.108,6.1557,6.1594,6.2328,6.2805,6.2805,6.2805,6.2805,6.2805,6.2805,6.2805,6.2805,6.2805,6.3209,6.4053,6.409,6.4494,6.5301,6.5301,6.5301,6.5301,6.5301,6.4861,4.3789,4.387,4.4053,4.4894,4.4489,4.4051,4.456,4.4081,4.3497,4.3497,4.3497,4.3497,4.3497,4.3497,4.4381,4.7083,4.7729,0.0,0.0,0.0,0.0,0.0,0.0,0.0,0.0,0.0,0.0,0.0,0.0,0.0,0.0,0.0,0.0,5.6455,5.6932,5.7373,5.7629,5.7629,5.774,5.7997,5.7997,5.7997,5.7997,0.0,0.0,0.0,0.0,0.0,0.0,5.7997,5.7997,5.7997,5.7997,5.7997,5.7997,5.7997,5.7997,5.7997,5.7997,5.7997,5.7997,5.7997,5.7997,5.7997,5.7997,5.7997,5.7997,5.7997,5.7997,5.7997,5.7997,5.7997,5.7997,5.7997,5.7997,5.7997,5.7997,5.7997,5.7997,5.7997,5.8437,5.8841,5.8841,5.9501,6.0015,6.0015,6.0236,6.0603,6.1153,6.1447,6.1814,6.2365,6.2658,6.2805,6.2805,6.2805,6.2805,6.2805,6.3356,6.3686,6.3686,6.4237,6.464,6.4897,6.5448,6.5852,6.6109,6.6659,6.6659,6.6109,6.5558,6.5154,0.0,4.3942,4.4126,4.4967,4.4565,4.409,4.4595,4.4081,4.3497,4.3497,4.3497,4.3497,4.3497,4.3754,4.4711,4.7015,4.7882,0.0,0.0,0.0,0.0,0.0,0.0,0.0,0.0,0.0,0.0,0.0,0.0,0.0,0.0,0.0,0.0,5.7262,5.774,5.7997,5.7997,5.7997,5.7997,5.7997,5.7997,5.7997,5.7997,0.0,0.0,0.0,0.0,0.0,0.0,5.7997,5.7997,5.7997,5.7997,5.7997,5.7997,5.7997,5.7997,5.7997,5.7997,5.7997,5.7997,5.7997,5.7997,5.7997,5.7997,5.7997,5.7997,5.7997,5.7997,5.7997,5.7997,5.7997,5.7997,5.7997,5.7997,5.7997,5.7997,5.8253,5.8437,5.8437,5.9098,5.9648,5.9648,6.0309,6.086,6.086,6.1117,6.1484,6.1998,6.2034,6.2254,6.2768,6.2805,6.2805,6.2805,6.2805,6.2952,6.3282,6.3796,6.4237,6.453,6.5044,6.5448,6.5742,6.6256,6.6659,6.6953,6.7467,6.743,6.6953,6.6439,6.6035,0.0,4.4628,4.481,4.5542,4.5176,4.4628,4.4628,4.4044,0.0,4.3497,4.3497,4.3534,4.3644,4.4232,4.504,4.6103,4.7497,0.0,0.0,0.0,0.0,0.0,0.0,0.0,0.0,0.0,0.0,0.0,0.0,0.0,0.0,0.0,0.0,0.0,5.8033,5.8033,5.7997,5.7997,5.7997,5.7997,5.7997,5.7997,5.7997,0.0,0.0,0.0,0.0,0.0,0.0,5.8042,5.7997,5.7997,5.7997,5.7997,5.7997,5.7997,5.7997,5.7997,5.7997,5.7997,5.7997,5.7997,5.7997,5.7997,5.7997,5.7997,5.7997,5.7997,5.7997,5.7997,5.7997,5.7997,5.7997,5.7997,5.8033,5.8107,5.8107,5.8731,5.9318,5.9318,5.9942,6.0493,6.0493,6.1153,6.1704,6.1704,6.2328,6.2805,6.2805,6.2805,6.2805,6.2805,6.2879,6.2915,6.2915,6.2915,6.3246,6.4053,6.42,6.4604,6.5375,6.5448,6.5815,6.6549,6.6586,6.6953,6.7687,6.7687,6.7687,6.7687,6.7687,6.7283,4.3716,0.0,4.3826,4.4007,4.3934,4.3789,0.0,4.3642,0.0,0.0,0.0,4.3864,4.5112,4.5002,4.581,4.9111,0.0,0.0,0.0,0.0,0.0,0.0,0.0,0.0,0.0,0.0,0.0,0.0,0.0,0.0,0.0,0.0,0.0,0.0,5.8336,5.8373,5.7997,5.7997,5.7997,5.7997,5.7997,5.7997,0.0,0.0,0.0,0.0,0.0,0.0,0.0,5.8157,5.7997,5.7997,5.7997,5.7997,5.7997,5.7997,5.7997,5.7997,5.7997,5.7997,5.7997,5.7997,5.7997,5.7997,5.7997,5.7997,5.7997,5.7997,5.7997,5.7997,5.7997,5.7997,5.7997,5.7997,5.8474,5.8914,5.8914,5.9575,6.0126,6.0126,6.0786,6.13,6.13,6.1998,6.2511,6.2511,6.2695,6.2805,6.2805,6.2805,6.2805,6.2805,6.3392,6.3796,6.3796,6.3796,6.387,6.409,6.5264,6.5999,6.6219,6.6806,6.721,6.7393,6.7393,6.7504,6.7687,6.7687,6.7687,6.7687,6.7687,6.7577,4.3497,4.3497,4.3497,4.3497,4.3497,4.3497,4.3497,0.0,0.0,0.0,0.0,0.0,0.0,0.0,0.0,0.0,0.0,0.0,0.0,0.0,0.0,0.0,0.0,0.0,0.0,0.0,0.0,0.0,0.0,0.0,0.0,0.0,0.0,0.0,0.0,5.8603,5.8336,5.852,5.8646,5.8646,5.8646,5.8615,0.0,0.0,0.0,0.0,0.0,0.0,5.8689,5.8438,5.8164,5.7997,5.7997,5.7997,5.7997,5.7997,5.7997,5.7997,5.7997,5.7997,5.7997,5.7997,5.7997,5.7997,5.7997,5.7997,5.7997,5.7997,5.7997,5.7997,5.7997,5.7997,5.8107,5.8474,5.8877,5.9318,5.9685,6.0382,6.0933,6.0933,6.1594,6.2144,6.2144,6.2511,6.2805,6.2805,6.2805,6.2805,6.2805,6.2805,6.2952,6.3356,6.3796,6.4237,6.4604,6.4971,6.5191,6.5191,6.5999,6.6659,6.7026,6.7467,6.7687,6.7687,6.7687,6.7687,6.7687,6.7687,6.7687,6.7687,6.7687,6.7687,4.3497,4.3605,4.3679,4.3605,4.3534,4.3497,0.0,0.0,0.0,0.0,0.0,0.0,0.0,0.0,0.0,0.0,0.0,0.0,0.0,0.0,0.0,0.0,0.0,0.0,0.0,0.0,0.0,0.0,0.0,0.0,0.0,0.0,0.0,0.0,0.0,0.0,5.8924,5.9239,5.94,5.9388,5.9418,5.9387,5.942,0.0,0.0,0.0,0.0,0.0,5.8802,5.8726,5.8479,5.8097,5.8097,5.8097,5.8097,5.8042,5.7997,5.7997,5.7997,5.7997,5.7997,5.7997,5.7997,5.7997,5.7997,5.7997,5.7997,5.7997,5.7997,5.8033,5.8143,5.818,5.84,5.9208,5.9501,5.9758,6.0456,6.1227,6.1777,6.1777,6.2328,6.2805,6.2805,6.2805,6.2805,6.2805,6.2805,6.2805,6.2805,6.2915,6.3282,6.4016,6.431,6.4751,6.5448,6.6219,6.6659,6.6659,6.6659,6.699,6.765,6.7687,6.7687,6.7687,6.7687,6.7687,6.7687,6.7687,6.7687,6.7687,6.7687,6.7687,4.3497,4.4007,4.441,4.4007,4.3716,4.3569,0.0,0.0,0.0,0.0,0.0,0.0,0.0,0.0,0.0,0.0,0.0,0.0,0.0,0.0,0.0,0.0,0.0,0.0,0.0,0.0,0.0,0.0,0.0,0.0,0.0,0.0,0.0,0.0,0.0,0.0,0.0,5.954,5.9383,5.9388,5.9387,5.9391,5.9381,5.9379,0.0,0.0,0.0,0.0,5.9246,5.8876,5.8635,5.8591,5.8591,5.8591,5.8549,5.8142,5.7997,5.7997,5.7997,5.7997,5.7997,5.7997,5.7997,5.7997,5.7997,5.7997,5.7997,5.7997,5.7997,5.8143,5.8841,5.9024,5.9245,6.0015,6.075,6.1263,6.1374,6.2034,6.2622,6.2622,6.2732,6.2805,6.2805,6.2805,6.2805,6.2805,6.2805,6.2805,6.2805,6.3429,6.3943,6.409,6.5301,6.6182,6.6292,6.7026,6.7504,6.7504,6.7504,6.7577,6.7687,6.7687,6.7687,6.7687,6.7687,6.7687,6.7687,6.7687,6.7687,6.7687,6.7687,6.7687,4.3497,4.3752,4.4156,4.4528,4.4892,0.0,0.0,0.0,0.0,0.0,0.0,0.0,0.0,0.0,0.0,0.0,0.0,0.0,0.0,0.0,0.0,0.0,0.0,0.0,0.0,0.0,0.0,0.0,0.0,0.0,0.0,0.0,0.0,0.0,0.0,0.0,0.0,6.0238,6.0142,6.0142,6.0137,6.0147,6.0147,6.0179,6.0283,0.0,0.0,5.9823,5.976,5.9526,5.9284,5.9028,5.8796,5.8713,5.8632,5.8186,5.7997,5.7997,5.7997,5.7997,5.7997,5.7997,5.7997,5.7997,5.7997,5.7997,5.8107,5.8547,5.8657,5.8731,5.9098,5.9538,6.0052,6.086,6.1337,6.1704,6.2144,6.2548,6.2805,6.2805,6.2805,6.2805,6.2805,6.2805,6.2805,6.2805,6.2805,6.2989,6.3429,6.3833,6.442,6.5301,6.6072,6.6659,6.71,6.7467,6.7687,6.7687,6.7687,6.7687,6.7687,6.7687,6.7687,6.7687,6.7687,6.7687,6.7687,6.7687,6.7687,6.7687,6.7687,6.7687,4.3497,4.3679,4.4048,0.0,0.0,0.0,0.0,0.0,0.0,0.0,0.0,0.0,0.0,0.0,0.0,0.0,0.0,0.0,0.0,0.0,0.0,0.0,0.0,0.0,0.0,0.0,0.0,0.0,0.0,0.0,0.0,0.0,0.0,0.0,0.0,0.0,0.0,6.0781,6.0781,6.0781,6.0781,6.0781,6.0781,6.0781,6.0781,6.0781,6.0671,6.0456,6.0103,6.0103,5.9885,5.9526,5.9139,5.899,5.8796,5.8338,5.8157,5.8157,5.8051,5.7997,5.7997,5.7997,5.7997,5.7997,5.7997,5.8143,5.8437,5.9061,5.9501,5.9758,5.9758,6.0236,6.0896,6.1704,6.1887,6.2034,6.2695,6.2805,6.2805,6.2805,6.2805,6.2805,6.2805,6.2805,6.2805,6.2805,6.2989,6.3356,6.4016,6.442,6.5118,6.6366,6.6659,6.7026,6.765,6.7687,6.776,6.7944,6.7797,6.7687,6.7687,6.7687,6.7687,6.7687,6.7687,6.7687,6.7687,6.7687,6.7687,6.7687,6.7687,6.7687,4.3497,4.4262,0.0,0.0,0.0,0.0,0.0,0.0,0.0,0.0,0.0,0.0,0.0,0.0,0.0,0.0,0.0,0.0,0.0,0.0,0.0,0.0,0.0,0.0,0.0,0.0,0.0,0.0,0.0,0.0,0.0,0.0,0.0,0.0,0.0,0.0,0.0,6.0781,6.0781,6.0781,6.0781,6.0781,6.0781,6.0781,6.0781,6.0757,6.0338,6.0132,6.0103,6.0103,6.0103,6.0074,6.0006,5.9722,5.9319,5.8802,5.865,5.8569,5.8157,5.7997,5.7997,5.7997,5.7997,5.7997,5.7997,5.8547,5.9124,5.9208,6.0272,6.141,6.141,6.1484,6.1704,6.2548,6.2732,6.2732,6.2805,6.2805,6.2805,6.2805,6.2805,6.2805,6.2805,6.2805,6.2805,6.2805,6.3503,6.4016,6.409,6.5411,6.6366,6.6476,6.7173,6.7614,6.7687,6.7687,6.8017,6.8788,6.8091,6.7687,6.7687,6.7687,6.7687,6.7687,6.7687,6.7687,6.7687,6.7687,6.7687,6.7687,6.7687,6.7687,4.3569,4.4189,0.0,0.0,0.0,0.0,0.0,0.0,0.0,0.0,0.0,0.0,0.0,0.0,0.0,0.0,0.0,0.0,0.0,0.0,0.0,0.0,0.0,0.0,0.0,0.0,0.0,0.0,0.0,0.0,0.0,0.0,0.0,0.0,0.0,0.0,0.0,0.0,6.0781,6.0781,6.0781,6.0781,6.0781,6.0781,6.0781,6.0781,6.0622,6.0533,6.0533,6.0533,6.0533,6.0508,6.0189,5.9823,5.9351,5.9194,5.9135,5.9061,5.8607,5.8447,5.8373,5.807,5.8364,5.8721,5.8721,5.9307,6.0052,6.0566,6.1117,6.1594,6.1594,6.1961,6.2438,6.2732,6.2805,6.2805,6.2805,6.2805,6.2805,6.2805,6.2805,6.2805,6.2805,6.2805,6.2989,6.3539,6.387,6.4457,6.5448,6.6109,6.6696,6.7173,6.7504,6.7687,6.7687,6.8164,6.8568,6.8898,6.8605,6.8678,6.9155,6.8715,6.8458,6.8458,6.7944,6.7687,6.7687,6.7687,6.7687,6.7687,6.7687,6.7687,4.386,4.4262,0.0,0.0,0.0,0.0,0.0,0.0,0.0,0.0,0.0,0.0,0.0,0.0,0.0,0.0,0.0,0.0,0.0,0.0,0.0,0.0,0.0,0.0,0.0,0.0,0.0,0.0,0.0,0.0,0.0,0.0,0.0,0.0,0.0,0.0,0.0,0.0,6.0781,6.0781,6.0781,6.0781,6.0781,6.0781,6.0781,6.0781,6.0781,6.0781,6.0781,6.0781,6.0781,6.0757,6.0456,6.0132,5.9817,5.9693,5.9619,5.9534,5.9103,5.8899,5.8911,5.8868,5.9079,5.9465,5.978,6.0267,6.0885,6.1447,6.1777,6.1998,6.1998,6.2401,6.2805,6.2805,6.2805,6.2805,6.2805,6.2805,6.2805,6.2805,6.2805,6.2805,6.2805,6.3025,6.3429,6.4016,6.453,6.5264,6.6366,6.6733,6.71,6.7614,6.7907,6.8091,6.8091,6.8825,6.9412,6.9633,6.9669,6.9779,7.0073,6.9559,6.9302,6.9302,6.8495,6.8091,6.8091,6.7797,6.7834,6.8091,6.8091,6.8201,4.4444,4.4628,0.0,0.0,0.0,0.0,0.0,0.0,0.0,0.0,0.0,0.0,0.0,0.0,0.0,0.0,0.0,0.0,0.0,0.0,0.0,0.0,0.0,0.0,0.0,0.0,0.0,0.0,0.0,0.0,0.0,0.0,0.0,0.0,0.0,0.0,0.0,0.0,6.0781,6.0781,6.0781,6.0781,6.0781,6.0781,6.0781,6.0781,6.0781,6.0781,6.0781,6.0781,6.0781,6.0781,6.0781,6.0781,6.0742,6.0258,6.0104,6.0027,5.9542,5.9407,5.954,6.041,6.0356,6.0073,6.0948,6.1419,6.1642,6.163,6.2181,6.2805,6.2805,6.2805,6.2805,6.2805,6.2805,6.2805,6.2805,6.2805,6.2805,6.2805,6.2805,6.2805,6.2805,6.3539,6.409,6.4127,6.5485,6.6512,6.6512,6.721,6.7687,6.7687,6.8421,6.8898,6.8898,6.9633,7.044,7.1248,7.1321,7.0954,7.0146,7.011,7.011,7.011,6.9339,6.8898,6.8898,6.8091,6.8128,6.8898,6.8898,6.9339,4.4448,0.0,0.0,0.0,0.0,0.0,0.0,0.0,0.0,0.0,0.0,0.0,0.0,0.0,0.0,0.0,0.0,0.0,0.0,0.0,0.0,0.0,0.0,0.0,0.0,0.0,0.0,0.0,0.0,0.0,0.0,0.0,0.0,0.0,0.0,0.0,0.0,0.0,6.0781,6.0781,6.0781,6.0781,6.0781,6.0781,6.0781,6.0781,6.0781,6.0781,6.0781,6.0781,6.0781,6.0781,6.0781,6.0781,6.0781,6.0627,6.0589,6.0503,6.0047,5.9874,6.0007,6.0513,6.0713,6.0914,6.1768,6.2501,6.302,6.3029,6.3177,6.3363,6.3363,6.3073,6.2805,6.2805,6.2805,6.2805,6.2805,6.2805,6.2805,6.2805,6.3319,6.3723,6.3723,6.4383,6.5154,6.5705,6.6182,6.6696,6.7247,6.754,6.7687,6.7687,6.8421,6.8898,6.8898,7.0183,7.1064,7.1284,7.1835,7.2055,7.1798,7.1248,7.0954,7.0954,7.0146,6.9743,6.9743,6.9486,6.9486,6.9743,6.9743,6.9853,0.0,0.0,0.0,0.0,0.0,0.0,0.0,0.0,0.0,0.0,0.0,0.0,0.0,0.0,0.0,0.0,0.0,0.0,0.0,0.0,0.0,0.0,0.0,0.0,0.0,0.0,0.0,0.0,0.0,0.0,0.0,0.0,0.0,0.0,0.0,0.0,0.0,0.0,0.0,6.0781,6.0781,6.0781,6.0781,6.0781,6.0781,6.0781,6.0781,6.0781,6.0781,6.0781,6.0781,6.0781,6.0781,6.0781,6.0781,6.0781,6.0781,6.0757,6.0482,6.0365,6.0529,6.1446,6.1709,6.1921,6.3088,6.3646,6.3934,6.3934,6.3934,6.3892,6.3637,6.3363,6.3062,6.2855,6.2805,6.2805,6.2805,6.2805,6.2915,6.3246,6.3723,6.42,6.453,6.5228,6.5925,6.6439,6.6769,6.7136,6.7614,6.7687,6.7797,6.8128,6.8898,6.9522,6.9853,7.1064,7.1798,7.1798,7.2239,7.2496,7.2496,7.2055,7.1798,7.1798,7.0991,7.0587,7.0587,7.0257,7.0257,7.0587,7.0587,7.077,0.0,0.0,0.0,0.0,0.0,0.0,0.0,0.0,0.0,0.0,0.0,0.0,0.0,0.0,0.0,0.0,0.0,0.0,0.0,0.0,0.0,0.0,0.0,0.0,0.0,0.0,0.0,0.0,0.0,0.0,0.0,0.0,0.0,0.0,0.0,0.0,0.0,0.0,0.0,0.0,0.0,6.0781,6.0781,6.0781,6.0781,6.0781,6.0781,6.0781,6.0781,6.0781,6.0781,6.0781,6.0781,6.0781,6.0781,6.0781,6.0781,6.0781,6.0781,6.0858,6.1166,6.2781,6.3023,6.3009,6.4603,6.4799,6.4444,6.4444,6.4444,6.4332,6.3892,6.3798,6.3654,6.3124,6.2965,6.2952,6.3025,6.3025,6.3282,6.4053,6.4273,6.453,6.5301,6.6072,6.6623,6.6623,6.721,6.7687,6.7687,6.7687,6.7981,6.8715,6.9596,7.0403,7.1138,7.2018,7.2496,7.2496,7.2496,7.2496,7.2496,7.2496,7.2496,7.2496,7.1798,7.1431,7.1431,7.0697,7.0697,7.1431,7.1431,7.1798,0.0,0.0,0.0,0.0,0.0,0.0,0.0,0.0,0.0,0.0,0.0,0.0,0.0,0.0,0.0,0.0,0.0,0.0,0.0,0.0,0.0,0.0,0.0,0.0,0.0,0.0,0.0,0.0,0.0,0.0,0.0,0.0,0.0,0.0,0.0,0.0,6.0781,6.0781,6.0781,0.0,6.0781,6.0781,6.0781,6.0781,6.0781,6.0781,6.0781,6.0781,6.0781,6.0781,6.0781,6.0781,6.0781,6.0781,6.0781,6.0781,6.0781,6.0781,6.0781,6.1243,6.1973,6.2974,6.3433,6.3764,6.4794,6.5035,6.4932,6.4932,6.4932,6.49,6.4799,6.4972,6.5038,6.4517,6.4118,6.398,6.464,6.4787,6.4824,6.5007,6.5558,6.6035,6.6219,6.6916,6.743,6.743,6.7577,6.7687,6.7687,6.7687,6.776,6.7944,6.9229,7.0183,7.033,7.1688,7.2496,7.2496,7.2496,7.2496,7.2496,7.2496,7.2496,7.2496,7.2349,7.2239,7.2239,7.2055,7.2055,7.2239,7.2239,7.2349,0.0,0.0,0.0,0.0,0.0,0.0,0.0,0.0,0.0,0.0,0.0,0.0,0.0,0.0,0.0,0.0,0.0,0.0,0.0,0.0,0.0,0.0,0.0,0.0,0.0,0.0,0.0,0.0,0.0,0.0,0.0,0.0,0.0,0.0,0.0,0.0,6.0781,6.0781,6.0781,6.0781,6.0781,6.0781,6.0781,6.0781,6.0781,6.0781,6.0781,6.0781,6.0781,6.0781,6.0781,6.0781,6.0781,6.0781,6.0781,6.0781,6.0781,6.0858,6.1304,6.1728,6.2305,6.3537,6.4065,6.4364,6.5207,6.5475,6.5475,6.5475,6.5475,6.5417,6.5161,6.5546,6.5878,6.5447,6.5227,6.5078,6.5243,6.5301,6.5411,6.5815,6.6219,6.6623,6.699,6.7393,6.7687,6.7687,6.7687,6.7687,6.7687,6.7687,6.7981,6.8752,6.9596,7.0403,7.1174,7.2018,7.2496,7.2496,7.2496,7.2496,7.2496,7.2496,7.2496,7.2496,7.2496,7.2496,7.2496,7.2496,7.2496,7.2496,7.2496,7.2496,0.0,0.0,0.0,0.0,0.0,0.0,0.0,0.0,0.0,0.0,0.0,0.0,0.0,0.0,0.0,0.0,0.0,0.0,0.0,0.0,0.0,0.0,0.0,0.0,0.0,0.0,0.0,0.0,0.0,0.0,0.0,0.0,0.0,0.0,0.0,6.0781,6.0781,6.0781,6.0781,6.0781,6.0781,6.0781,6.0781,6.0781,6.0781,6.0781,6.0781,6.0781,6.0781,6.0781,6.0781,6.0781,6.0781,6.0781,6.0781,6.0781,6.0896,6.1151,6.1843,6.229,6.2752,6.4152,6.4691,6.496,6.5667,6.5897,6.5897,6.5897,6.5897,6.5846,6.5541,6.6101,6.6679,6.6411,6.653,6.6499,6.5823,6.5705,6.5925,6.6586,6.6696,6.6916,6.7577,6.7687,6.7687,6.7687,6.7687,6.7687,6.7687,6.7687,6.8238,6.9743,7.0,7.0697,7.2165,7.2422,7.2496,7.2496,7.2496,7.2496,7.2496,7.2496,7.2496,7.2496,7.2496,7.2496,7.2496,7.2496,7.2496,7.2496,7.2496,7.2496,0.0,0.0,0.0,0.0,0.0,0.0,0.0,0.0,0.0,0.0,0.0,0.0,0.0,0.0,0.0,0.0,0.0,0.0,0.0,0.0,0.0,0.0,0.0,0.0,0.0,0.0,0.0,0.0,0.0,0.0,0.0,0.0,6.0781,6.0781,6.0781,0.0,6.0781,6.0781,6.0781,6.0781,6.0781,6.0781,6.0781,6.0781,6.0781,6.0781,6.0781,6.0781,6.0781,6.0781,6.0781,6.0781,6.0781,6.0781,6.0781,6.0781,6.1304,6.1944,6.2059,6.3036,6.4306,6.4537,6.5114,6.5743,6.5859,6.5897,6.5897,6.5897,6.5897,6.6051,6.6653,6.7472,6.808,6.7807,6.8323,6.8634,6.7635,6.7357,6.7393,6.7504,6.754,6.7577,6.765,6.7687,6.7687,6.7687,6.7687,6.7687,6.7687,6.7687,6.8054,6.8972,6.9669,7.0477,7.1394,7.2092,7.2496,7.2496,7.2496,7.2496,7.2496,7.2496,7.2496,7.2496,7.2496,7.2496,7.2496,7.2496,7.2496,7.2496,7.2496,7.2496,0.0,0.0,0.0,0.0,0.0,0.0,0.0,0.0,0.0,0.0,0.0,0.0,0.0,0.0,0.0,0.0,0.0,0.0,0.0,0.0,0.0,0.0,0.0,0.0,0.0,0.0,0.0,0.0,0.0,0.0,0.0,6.0781,6.0781,6.0781,6.0781,0.0,6.0781,6.0781,6.0781,6.0781,6.0781,6.0781,6.0781,6.0781,6.0781,6.0781,6.0781,6.0781,6.0781,6.0781,6.0781,6.0781,6.0781,6.0781,6.0858,6.1343,6.1766,6.2228,6.3152,6.396,6.4691,6.5166,6.559,6.5897,6.5897,6.5897,6.5897,6.5897,6.5897,6.609,6.6898,6.7744,6.8416,6.8438,6.9093,6.9472,6.8368,6.7878,6.7687,6.7687,6.7687,6.7687,6.7687,6.7687,6.7687,6.7687,6.7687,6.7834,6.8311,6.8385,6.8862,7.011,7.0587,7.1101,7.1908,7.2312,7.2496,7.2496,7.2496,7.2496,7.2496,7.2496,7.2496,7.2496,7.2496,7.2496,7.2496,7.2496,7.2496,7.2496,7.2496,7.2496,0.0,0.0,0.0,0.0,0.0,0.0,0.0,0.0,0.0,0.0,0.0,0.0,0.0,0.0,0.0,0.0,0.0,0.0,0.0,0.0,0.0,0.0,0.0,0.0,0.0,0.0,0.0,0.0,0.0,0.0,6.0781,6.0781,6.0781,6.0781,6.0781,6.0781,6.0781,6.0781,6.0781,6.0781,6.0781,6.0781,6.0781,6.0781,6.0781,6.0781,6.0781,6.0781,6.0781,6.0781,6.0781,6.0781,6.0781,6.0781,6.0896,6.1781,6.2243,6.2603,6.4089,6.4768,6.5013,6.5667,6.5897,6.5897,6.5897,6.5897,6.5897,6.5897,6.6051,6.6397,6.7205,6.809,6.8789,6.9088,6.9637,6.9811,6.875,6.8097,6.7687,6.7687,6.7687,6.7687,6.7687,6.7687,6.7687,6.7687,6.7871,6.8201,6.8825,6.9082,6.9743,7.1174,7.1321,7.1651,7.2422,7.2496,7.2496,7.2496,7.2496,7.2496,7.2496,7.2496,7.2496,7.2496,7.2496,7.2496,7.2496,7.2496,7.2496,7.2496,7.2496,7.2496,0.0,0.0,0.0,0.0,0.0,0.0,0.0,0.0,0.0,0.0,0.0,0.0,0.0,0.0,0.0,0.0,0.0,0.0,0.0,0.0,0.0,0.0,0.0,0.0,0.0,0.0,0.0,0.0,0.0,0.0,6.0781,6.0781,6.0781,6.0781,6.0781,6.0781,6.0781,6.0781,6.0781,6.0781,6.0781,6.0781,6.0781,6.0781,6.0781,6.0781,6.0781,6.0781,6.0781,6.0781,6.0781,6.0781,6.0781,6.0781,6.0896,6.1785,6.2567,6.3361,6.427,6.5141,6.582,6.5897,6.5897,6.5897,6.5897,6.5897,6.5897,6.5897,6.6436,6.7244,6.8129,6.8975,6.9701,6.9966,7.0057,6.9811,6.875,6.8097,6.7687,6.7687,6.7687,6.7687,6.7687,6.7687,6.7687,6.7687,6.8348,6.8862,6.8898,6.9559,7.0367,7.1211,7.1321,7.1651,7.2422,7.2496,7.2496,7.2496,7.2496,7.2496,7.2496,7.2496,7.2496,7.2496,7.2496,7.2496,7.2496,7.2496,7.2496,7.2496,7.2496,7.2496,0.0,0.0,0.0,0.0,0.0,0.0,0.0,0.0,0.0,0.0,0.0,0.0,0.0,0.0,0.0,0.0,0.0,0.0,0.0,0.0,0.0,0.0,0.0,0.0,0.0,0.0,0.0,0.0,0.0,0.0,6.0781,6.0781,6.0781,6.0781,6.0781,6.0781,6.0781,6.0781,6.0781,6.0781,6.0781,6.0781,6.0781,6.0781,6.0781,6.0781,6.0781,6.0781,6.0781,6.0781,6.0781,6.0781,6.0781,6.0781,6.0973,6.2373,6.304,6.3501,6.4949,6.5628,6.5897,6.5897,6.5897,6.5897,6.5897,6.5897,6.6013,6.6513,6.6859,6.7436,6.8859,6.9475,6.9871,7.046,7.033,6.9988,6.9626,6.8803,6.821,6.821,6.8511,6.8614,6.8259,6.8511,6.8614,6.8259,6.8915,6.9503,6.9651,7.0367,7.1174,7.1982,7.2092,7.2202,7.2496,7.2496,7.2496,7.2496,7.2496,7.2496,7.2496,7.2496,7.2496,7.2496,7.2496,7.2496,7.2496,7.2496,7.2496,7.2496,7.2496,7.2496,0.0,0.0,0.0,0.0,0.0,0.0,0.0,0.0,0.0,0.0,0.0,0.0,0.0,0.0,0.0,0.0,0.0,0.0,0.0,0.0,0.0,0.0,0.0,0.0,0.0,0.0,0.0,0.0,0.0,0.0,6.0781,6.0781,6.0781,6.0781,6.0781,6.0781,6.0781,6.0781,6.0781,6.0781,6.0781,6.0781,6.0781,6.0781,6.0781,6.0781,6.0781,6.0781,6.0781,6.0781,6.0781,6.0781,6.0781,6.0973,6.1396,6.2781,6.3488,6.3911,6.5397,6.5897,6.5897,6.5897,6.5897,6.5897,6.5897,6.609,6.6397,6.6936,6.7513,6.8244,6.9398,6.9898,7.0244,7.0783,7.0494,7.0129,7.033,6.955,6.8795,6.8795,6.9064,6.919,6.884,6.9064,6.9106,6.8567,6.9405,7.009,7.011,7.1027,7.1908,7.2459,7.2496,7.2496,7.2496,7.2496,7.2496,7.2496,7.2496,7.2496,7.2496,7.2496,7.2496,7.2496,7.2496,7.2496,7.2496,7.2496,7.2496,7.2496,7.2496,7.2496,0.0,0.0,0.0,0.0,0.0,0.0,0.0,0.0,0.0,0.0,0.0,0.0,0.0,0.0,0.0,0.0,0.0,0.0,0.0,0.0,0.0,0.0,0.0,0.0,0.0,0.0,0.0,0.0,0.0,6.0781,6.0781,6.0781,6.0781,6.0781,6.0781,6.0781,6.0781,6.0781,6.0781,6.0781,6.0781,6.0781,6.0781,6.0781,6.0781,6.0781,6.0781,6.0781,6.0781,6.0781,6.0781,6.0781,6.0781,6.132,6.2204,6.2988,6.3834,6.4705,6.559,6.5897,6.5897,6.5897,6.5897,6.5897,6.5936,6.6474,6.709,6.7167,6.8398,6.9706,6.9744,7.0321,7.0898,7.0898,7.0494,7.0266,7.0777,7.0061,6.9353,6.9313,6.9353,6.9353,6.9313,6.9353,6.9148,6.8651,6.9889,7.0721,7.022,7.1505,7.2496,7.2496,7.2496,7.2496,7.2496,7.2496,7.2496,7.2496,7.2496,7.2496,7.2496,7.2496,7.2496,7.2496,7.2496,7.2496,7.2496,7.2496,7.2496,7.2496,7.2496,7.2496,4.2727,0.0,0.0,0.0,0.0,0.0,0.0,0.0,0.0,0.0,0.0,0.0,0.0,0.0,0.0,0.0,0.0,0.0,0.0,0.0,0.0,0.0,0.0,0.0,0.0,0.0,0.0,0.0,0.0,6.0781,6.0781,6.0781,6.0781,6.0781,6.0781,6.0781,6.0781,6.0781,6.0781,6.0781,6.0781,6.0781,6.0781,6.0781,6.0781,6.0781,6.0781,6.0781,6.0781,6.0781,6.0781,6.0781,6.0781,6.132,6.2204,6.3012,6.3858,6.4705,6.559,6.5897,6.5897,6.5897,6.5897,6.6013,6.659,6.6898,6.7359,6.8629,6.9321,6.9821,7.0437,7.0744,7.0898,7.0898,7.0777,7.0748,7.0871,7.0652,7.033,6.9918,7.0162,7.033,6.9957,7.0195,7.0358,7.0022,7.0787,7.1359,7.1011,7.1872,7.2496,7.2496,7.2496,7.2496,7.2496,7.2496,7.2496,7.2496,7.2496,7.2496,7.2496,7.2496,7.2496,7.2496,7.2496,7.2496,7.2496,7.2496,7.2496,7.2496,7.2496,7.2496,0.0,0.0,0.0,0.0,0.0,0.0,0.0,0.0,0.0,0.0,0.0,0.0,0.0,0.0,0.0,0.0,0.0,0.0,0.0,0.0,0.0,0.0,0.0,0.0,0.0,0.0,0.0,0.0,6.0781,6.0781,6.0781,6.0781,6.0781,6.0781,6.0781,6.0781,6.0781,6.0781,6.0781,6.0781,6.0781,6.0781,6.0781,6.0781,6.0781,6.0781,6.0781,6.0781,6.0819,6.1189,6.1151,6.0819,6.1204,6.1858,6.2704,6.3551,6.4397,6.5205,6.5705,6.5897,6.5897,6.5897,6.5897,6.6051,6.6859,6.7359,6.7936,6.9321,6.9937,7.0321,7.0783,7.0898,7.0898,7.0898,7.0898,7.0898,7.0898,7.0898,7.0805,7.0494,7.0681,7.0805,7.0494,7.0988,7.1252,7.0567,7.1497,7.1995,7.1379,7.2018,7.2496,7.2496,7.2496,7.2496,7.2496,7.2496,7.2496,7.2496,7.2496,7.2496,7.2496,7.2496,7.2496,7.2496,7.2496,7.2496,7.2496,7.2496,7.2496,7.2496,7.2496,7.2496,4.248,0.0,0.0,0.0,0.0,0.0,0.0,4.9542,0.0,0.0,0.0,0.0,0.0,0.0,0.0,0.0,0.0,0.0,0.0,0.0,0.0,0.0,0.0,0.0,0.0,0.0,0.0,6.0781,6.0781,6.0781,6.0781,6.0781,6.0781,6.0781,6.0781,6.0781,6.0781,6.0781,6.0781,6.0781,6.0781,6.0781,6.0781,6.0781,6.0781,6.0781,6.0781,6.0781,6.0858,6.1728,6.1651,6.1012,6.1897,6.2743,6.3551,6.432,6.5166,6.5897,6.5897,6.5897,6.5897,6.5897,6.5974,6.6167,6.7013,6.7859,6.8744,6.959,7.036,7.0898,7.0898,7.0898,7.0898,7.0898,7.0898,7.0898,7.0898,7.0898,7.0898,7.0898,7.0898,7.0937,7.1014,7.1668,7.1904,7.1026,7.2067,7.2641,7.1637,7.2112,7.2496,7.2496,7.2496,7.2496,7.2496,7.2496,7.2496,7.2496,7.2496,7.2496,7.2496,7.2496,7.2496,7.2496,7.2496,7.2496,7.2496,7.2496,7.2496,7.2496,7.2496,7.2496,4.3915,4.4684,0.0,0.0,0.0,0.0,0.0,4.6473,0.0,0.0,0.0,0.0,0.0,0.0,0.0,0.0,0.0,0.0,0.0,0.0,0.0,0.0,0.0,0.0,0.0,0.0,6.0781,6.0781,6.0781,6.0781,6.0781,6.0781,6.0781,6.0781,6.0781,6.0781,6.0781,6.0781,6.0781,6.0781,6.0781,6.0781,6.0781,6.0781,6.0781,6.0781,6.0781,6.0781,6.0858,6.1728,6.1997,6.1935,6.2767,6.3614,6.4359,6.4551,6.5166,6.5897,6.5897,6.5897,6.5897,6.5897,6.632,6.7013,6.7898,6.8744,6.9629,7.0437,7.0783,7.0898,7.0898,7.0898,7.0898,7.0898,7.0898,7.0898,7.0898,7.0898,7.0898,7.0898,7.0898,7.1129,7.1822,7.2091,7.2447,7.3112,7.3071,7.3011,7.2992,7.2706,7.2496,7.2496,7.2496,7.2496,7.2496,7.2496,7.2496,7.2496,7.2496,7.2496,7.2496,7.2496,7.2496,7.2496,7.2496,7.2496,7.2496,7.2496,7.2496,7.2496,7.2496,7.2496,4.4414,4.4953,0.0,4.5586,0.0,0.0,0.0,0.0,0.0,0.0,0.0,0.0,0.0,0.0,0.0,0.0,0.0,0.0,0.0,0.0,0.0,0.0,0.0,0.0,0.0,0.0,6.0781,6.0781,6.0781,6.0781,6.0781,6.0781,6.0781,6.0781,6.0781,6.0781,6.0781,6.0781,6.0781,6.0781,6.0781,6.0781,6.0781,6.0781,6.0781,6.0781,6.0781,6.1027,6.1502,6.2334,6.2949,6.3372,6.3806,6.4229,6.4628,6.5089,6.5513,6.5897,6.5897,6.5897,6.5974,6.6359,6.6782,6.7321,6.8667,6.9629,7.0398,7.0783,7.0898,7.0898,7.0898,7.0898,7.0898,7.0898,7.0898,7.0898,7.0898,7.0898,7.1014,7.1475,7.1552,7.1668,7.2129,7.2899,7.3522,7.3865,7.3757,7.3582,7.3417,7.2834,7.2496,7.2496,7.2496,7.2496,7.2496,7.2496,7.2496,7.2496,7.2496,7.2496,7.2496,7.2496,7.2496,7.2496,7.2899,7.2899,7.2496,7.2899,7.2899,7.2496,7.2496,7.2496,0.0,0.0,0.0,0.0,0.0,4.5988,0.0,0.0,0.0,0.0,0.0,0.0,0.0,0.0,0.0,0.0,0.0,0.0,0.0,0.0,0.0,0.0,0.0,0.0,0.0,0.0,6.0473,6.0781,6.0512,6.0473,6.0781,6.0781,6.0781,6.0781,6.0781,6.0781,6.0781,6.0781,6.0781,6.0781,6.0781,6.0781,6.0781,6.0781,6.0781,6.0781,6.0781,6.1296,6.2145,6.2977,6.3809,6.4641,6.4782,6.4845,6.4936,6.5628,6.5897,6.5897,6.5897,6.5897,6.6013,6.6821,6.7321,6.7898,6.9475,7.0398,7.0898,7.0898,7.0898,7.0898,7.0898,7.1014,7.1168,7.1168,7.1283,7.1398,7.1398,7.1398,7.1629,7.2322,7.2591,7.2668,7.2668,7.3783,7.4589,7.4312,7.4292,7.4117,7.3602,7.2943,7.2496,7.2496,7.2496,7.2496,7.2496,7.2496,7.2496,7.2496,7.2496,7.2496,7.2496,7.2642,7.2789,7.2973,7.3597,7.3597,7.2973,7.345,7.3303,7.2496,7.2496,7.2496,0.0,0.0,0.0,0.0,4.618,0.0,0.0,0.0,0.0,0.0,0.0,0.0,0.0,0.0,0.0,0.0,0.0,0.0,0.0,0.0,0.0,0.0,0.0,0.0,0.0,0.0,0.0,6.0704,5.9427,5.9235,6.0704,6.0781,6.0781,6.0781,6.0781,6.0781,6.0781,6.0781,6.0781,6.0781,6.0781,6.0781,6.0781,6.0781,6.0781,6.0781,6.0781,6.1296,6.2156,6.2977,6.3809,6.468,6.5436,6.5743,6.5743,6.5859,6.5897,6.5897,6.5897,6.5897,6.6013,6.6821,6.8129,6.9552,7.0475,7.0821,7.0898,7.0898,7.0898,7.0898,7.0898,7.1475,7.2052,7.2052,7.2629,7.3206,7.3206,7.3206,7.3245,7.3322,7.3937,7.4437,7.4437,7.4591,7.4947,7.5648,7.4905,7.4293,7.4206,7.3224,7.2496,7.2496,7.2496,7.2496,7.2496,7.2496,7.2496,7.2496,7.2496,7.2496,7.2496,7.3193,7.3891,7.4625,7.4735,7.4735,7.4625,7.4001,7.3303,7.2496,7.2496,7.2496,0.0,0.0,0.0,0.0,0.0,0.0,0.0,0.0,4.5757,0.0,0.0,0.0,0.0,0.0,0.0,0.0,0.0,0.0,0.0,0.0,0.0,0.0,0.0,0.0,0.0,0.0,0.0,0.0,0.0,5.9042,6.0704,6.0781,6.0781,6.0781,6.0781,6.0781,6.0781,6.0781,6.0781,6.0781,6.0781,6.0781,6.0781,6.0781,6.0781,6.0781,6.0781,6.155,6.2834,6.3155,6.4103,6.5397,6.5743,6.5897,6.5897,6.5897,6.5897,6.5897,6.5897,6.6205,6.6821,6.8167,6.9436,7.0475,7.0783,7.0898,7.0898,7.0898,7.0898,7.1014,7.1514,7.1937,7.2322,7.2822,7.3245,7.3514,7.3514,7.3514,7.363,7.413,7.4476,7.4861,7.5361,7.518,7.5025,7.5441,7.4509,7.3794,7.3794,7.305,7.2496,7.2496,7.2496,7.2496,7.2496,7.2496,7.2496,7.2496,7.2496,7.2936,7.3854,7.378,7.4074,7.4882,7.4918,7.4661,7.4184,7.3854,7.3523,7.3193,7.2716,7.2496,4.5663,0.0,0.0,0.0,0.0,0.0,0.0,0.0,0.0,0.0,0.0,0.0,0.0,0.0,0.0,0.0,0.0,0.0,0.0,0.0,0.0,0.0,0.0,0.0,0.0,0.0,0.0,0.0,0.0,0.0,6.0666,6.0781,6.0781,6.0781,6.0781,6.0781,6.0781,6.0781,6.0781,6.0781,6.0781,6.0781,6.0781,6.0781,6.0781,6.0781,6.0781,6.1743,6.332,6.3295,6.4359,6.5897,6.5897,6.5897,6.5897,6.5897,6.5897,6.5897,6.5897,6.659,6.7705,6.9206,7.0244,7.0898,7.0898,7.0898,7.0898,7.0898,7.0898,7.1091,7.1975,7.236,7.2783,7.363,7.4014,7.4207,7.4207,7.4207,7.4361,7.4938,7.5053,7.5245,7.5899,7.548,7.5091,7.5091,7.4124,7.3391,7.3391,7.2834,7.2496,7.2496,7.2496,7.2496,7.2496,7.2496,7.2606,7.2826,7.2826,7.356,7.5175,7.4661,7.4735,7.5542,7.5579,7.5285,7.4698,7.4478,7.4368,7.4331,7.3303,7.2936,0.0,0.0,0.0,0.0,0.0,0.0,0.0,0.0,4.687,0.0,0.0,0.0,0.0,0.0,0.0,0.0,0.0,0.0,0.0,0.0,0.0,0.0,0.0,0.0,0.0,0.0,0.0,0.0,0.0,0.0,6.0627,6.0781,6.0781,6.0781,6.0781,6.0781,6.0781,6.0781,6.0781,6.0781,6.0781,6.0781,6.0781,6.0781,6.0781,6.0781,6.0781,6.1743,6.3306,6.3281,6.432,6.5897,6.5897,6.5897,6.5897,6.5897,6.5897,6.5897,6.5897,6.6974,6.8513,6.9398,7.0244,7.0898,7.0898,7.0898,7.0898,7.0898,7.0898,7.1091,7.1975,7.2822,7.3668,7.4476,7.5322,7.5938,7.5938,7.5938,7.5938,7.5938,7.5976,7.5976,7.6015,7.548,7.5091,7.5091,7.4124,7.3391,7.3391,7.2834,7.2496,7.2496,7.2496,7.2496,7.2496,7.2496,7.2826,7.3597,7.367,7.4368,7.5983,7.6056,7.6423,7.7231,7.7231,7.7231,7.7194,7.6423,7.6019,7.5983,7.4404,7.4074,0.0,0.0,4.8561,4.6894,0.0,0.0,0.0,0.0,0.0,0.0,0.0,0.0,0.0,0.0,0.0,0.0,0.0,0.0,0.0,0.0,0.0,0.0,0.0,0.0,0.0,0.0,0.0,5.8529,5.7379,0.0,0.0,6.0781,6.0781,6.0781,6.0781,6.0781,6.0781,6.0781,6.0781,6.0781,6.0781,6.0781,6.0781,6.0781,6.0781,6.0819,6.142,6.229,6.333,6.3921,6.4859,6.5897,6.5897,6.5897,6.5897,6.5897,6.6244,6.6859,6.8013,6.8783,6.9398,7.0244,7.0667,7.0898,7.0898,7.0898,7.0898,7.0898,7.0898,7.1245,7.2668,7.3283,7.386,7.5245,7.5784,7.6015,7.6015,7.6015,7.6015,7.6015,7.6015,7.6015,7.6015,7.5239,7.4588,7.4588,7.3553,7.2816,7.2816,7.263,7.2496,7.2496,7.2496,7.2496,7.2496,7.2973,7.3634,7.4441,7.4478,7.5212,7.6827,7.6387,7.6497,7.7304,7.679,7.6533,7.6497,7.5726,7.5579,7.6093,7.5542,7.5139,4.7319,4.8337,0.0,0.0,4.7699,0.0,4.6737,0.0,0.0,0.0,0.0,0.0,0.0,0.0,0.0,0.0,0.0,0.0,0.0,0.0,0.0,0.0,0.0,0.0,0.0,0.0,5.5574,5.849,5.7357,0.0,0.0,0.0,6.0781,6.0781,6.0781,6.0781,6.0781,6.0781,6.0781,6.0781,6.0781,6.0781,6.0781,6.0781,6.0973,6.1304,6.1843,6.2752,6.383,6.4383,6.5114,6.5897,6.5897,6.5897,6.5897,6.5897,6.6397,6.7359,6.909,6.9706,6.9821,7.0629,7.0898,7.0898,7.0898,7.0898,7.0898,7.0898,7.1129,7.1706,7.3129,7.3707,7.4284,7.5668,7.6015,7.6015,7.6015,7.6015,7.6015,7.6015,7.6015,7.6015,7.6015,7.5055,7.4293,7.4293,7.3275,7.2496,7.2496,7.2496,7.2496,7.2496,7.2496,7.2606,7.2899,7.3377,7.4147,7.5285,7.5322,7.5946,7.7268,7.6827,7.679,7.7304,7.679,7.6533,7.6533,7.6019,7.6019,7.6533,7.6533,7.6276]},{"header":{"parameterUnit":"m.s-1","parameterCategory":1,"la1":30.6,"la2":29.2853,"lo1":-89.7004,"lo2":-87.6739,"dy":0.0162,"dx":0.0183,"nx":112,"ny":82,"refTime":"2024-11-22T06:00:00:Z","depth":0,"parameterNumber":3,"parameterNumberName":"V-component_of_WINDS"},"data":[0.0,0.0,0.0,0.0,0.0,0.0,0.0,0.0,0.0,0.0,0.0,0.0,0.0,0.0,0.0,0.0,0.0,0.0,0.0,0.0,0.0,0.0,0.0,0.0,0.0,0.0,0.0,0.0,0.0,0.0,0.0,0.0,0.0,0.0,0.0,0.0,0.0,0.0,0.0,0.0,0.0,0.0,0.0,0.0,0.0,0.0,0.0,0.0,0.0,0.0,0.0,0.0,0.0,0.0,0.0,0.0,0.0,0.0,0.0,0.0,0.0,0.0,0.0,0.0,0.0,0.0,0.0,0.0,0.0,0.0,0.0,0.0,0.0,0.0,0.0,0.0,0.0,0.0,0.0,0.0,0.0,0.0,0.0,0.0,0.0,0.0,0.0,0.0,0.0,0.0,0.0,-1.5899,-1.5858,-1.5832,-1.5832,-1.5832,-1.5832,-1.5832,0.0,0.0,0.0,0.0,0.0,0.0,0.0,0.0,0.0,0.0,0.0,0.0,0.0,0.0,0.0,0.0,0.0,0.0,0.0,0.0,0.0,0.0,0.0,0.0,0.0,0.0,0.0,0.0,0.0,0.0,0.0,0.0,0.0,0.0,0.0,0.0,0.0,0.0,0.0,0.0,0.0,0.0,0.0,0.0,0.0,0.0,0.0,0.0,0.0,0.0,0.0,0.0,0.0,0.0,0.0,0.0,0.0,0.0,0.0,0.0,0.0,0.0,0.0,0.0,0.0,0.0,0.0,0.0,0.0,0.0,0.0,0.0,0.0,0.0,0.0,0.0,0.0,0.0,0.0,0.0,0.0,0.0,0.0,0.0,0.0,0.0,0.0,0.0,0.0,0.0,0.0,0.0,0.0,0.0,0.0,0.0,0.0,0.0,0.0,0.0,0.0,0.0,0.0,0.0,-1.6206,-1.6206,-1.5979,-1.5832,-1.5832,-1.5832,-1.5832,-1.5832,0.0,0.0,0.0,0.0,0.0,0.0,0.0,0.0,0.0,0.0,0.0,0.0,0.0,0.0,0.0,0.0,0.0,0.0,0.0,0.0,0.0,0.0,0.0,0.0,0.0,0.0,0.0,0.0,0.0,0.0,0.0,0.0,0.0,0.0,0.0,0.0,0.0,0.0,0.0,0.0,0.0,0.0,0.0,0.0,0.0,0.0,0.0,0.0,0.0,0.0,0.0,0.0,0.0,0.0,0.0,0.0,0.0,0.0,0.0,0.0,0.0,0.0,0.0,0.0,0.0,0.0,0.0,0.0,0.0,0.0,0.0,0.0,0.0,0.0,0.0,0.0,0.0,0.0,0.0,0.0,0.0,0.0,0.0,0.0,0.0,0.0,0.0,0.0,0.0,0.0,0.0,0.0,0.0,0.0,0.0,0.0,0.0,0.0,0.0,0.0,0.0,0.0,0.0,-1.5965,-1.6099,-1.6259,-1.6005,-1.5832,-1.5832,-1.5832,-1.5832,-1.5832,-1.5404,0.0,0.0,0.0,0.0,0.0,0.0,0.0,0.0,0.0,0.0,0.0,0.0,0.0,0.0,0.0,0.0,0.0,0.0,0.0,0.0,0.0,0.0,0.0,0.0,0.0,0.0,0.0,0.0,0.0,0.0,0.0,0.0,0.0,0.0,0.0,0.0,0.0,0.0,0.0,0.0,0.0,0.0,0.0,0.0,0.0,0.0,0.0,0.0,0.0,0.0,0.0,0.0,0.0,0.0,0.0,0.0,0.0,0.0,0.0,0.0,0.0,0.0,0.0,0.0,0.0,0.0,0.0,0.0,0.0,0.0,0.0,0.0,0.0,0.0,0.0,0.0,0.0,0.0,0.0,0.0,0.0,0.0,0.0,0.0,0.0,0.0,0.0,0.0,0.0,0.0,0.0,0.0,0.0,0.0,0.0,0.0,0.0,0.0,0.0,0.0,0.0,0.0,-1.6059,-1.5965,-1.6339,-1.6046,-1.5832,-1.5832,-1.5832,-1.5832,-1.5832,-1.5284,0.0,0.0,0.0,0.0,0.0,0.0,0.0,0.0,0.0,0.0,0.0,0.0,0.0,0.0,0.0,0.0,0.0,0.0,0.0,0.0,0.0,0.0,0.0,0.0,0.0,0.0,0.0,0.0,0.0,0.0,0.0,0.0,0.0,0.0,0.0,0.0,0.0,0.0,0.0,0.0,0.0,0.0,0.0,0.0,0.0,0.0,0.0,0.0,0.0,0.0,0.0,0.0,0.0,0.0,0.0,0.0,0.0,0.0,0.0,0.0,0.0,0.0,0.0,0.0,0.0,0.0,0.0,0.0,0.0,0.0,0.0,0.0,0.0,0.0,0.0,0.0,0.0,0.0,0.0,0.0,0.0,0.0,0.0,0.0,0.0,0.0,0.0,0.0,0.0,0.0,0.0,0.0,0.0,0.0,0.0,0.0,0.0,0.0,0.0,0.0,0.0,0.0,-1.6179,-1.6046,-1.662,-1.6166,-1.5832,-1.5832,-1.5832,-1.5832,-1.5832,-1.5284,0.0,0.0,0.0,0.0,0.0,0.0,0.0,0.0,0.0,0.0,0.0,0.0,0.0,0.0,0.0,0.0,0.0,0.0,0.0,0.0,0.0,0.0,0.0,0.0,0.0,0.0,0.0,0.0,0.0,0.0,0.0,0.0,0.0,0.0,0.0,0.0,0.0,0.0,0.0,0.0,0.0,0.0,0.0,0.0,0.0,0.0,0.0,0.0,0.0,0.0,0.0,0.0,0.0,0.0,0.0,0.0,0.0,0.0,0.0,0.0,0.0,0.0,0.0,0.0,0.0,0.0,0.0,0.0,0.0,0.0,0.0,0.0,0.0,0.0,0.0,0.0,0.0,0.0,0.0,0.0,0.0,0.0,0.0,0.0,0.0,0.0,0.0,0.0,0.0,0.0,0.0,0.0,0.0,0.0,0.0,0.0,0.0,0.0,0.0,0.0,0.0,0.0,-1.6513,-1.646,0.0,-1.6353,-1.6032,-1.5845,-1.5832,-1.5752,-1.5565,0.0,0.0,0.0,0.0,0.0,0.0,0.0,0.0,0.0,0.0,0.0,0.0,0.0,0.0,0.0,0.0,0.0,0.0,0.0,0.0,0.0,0.0,0.0,0.0,0.0,0.0,0.0,0.0,0.0,0.0,0.0,0.0,0.0,0.0,0.0,0.0,0.0,0.0,0.0,0.0,0.0,0.0,0.0,0.0,0.0,0.0,0.0,0.0,0.0,0.0,0.0,0.0,0.0,0.0,0.0,0.0,0.0,0.0,0.0,0.0,0.0,0.0,0.0,0.0,0.0,0.0,0.0,0.0,0.0,0.0,0.0,0.0,0.0,0.0,0.0,0.0,0.0,0.0,0.0,0.0,0.0,0.0,0.0,0.0,0.0,0.0,0.0,0.0,0.0,0.0,0.0,0.0,0.0,0.0,0.0,0.0,0.0,0.0,0.0,0.0,0.0,0.0,-1.6633,-1.67,-1.674,0.0,-1.658,-1.6286,-1.5992,-1.5965,-1.5805,-1.5418,0.0,0.0,0.0,0.0,0.0,0.0,0.0,0.0,0.0,0.0,0.0,0.0,0.0,0.0,0.0,0.0,0.0,0.0,0.0,0.0,0.0,0.0,0.0,0.0,0.0,0.0,0.0,0.0,0.0,0.0,0.0,0.0,0.0,0.0,0.0,0.0,0.0,0.0,0.0,0.0,0.0,0.0,0.0,0.0,0.0,0.0,0.0,0.0,0.0,0.0,0.0,0.0,0.0,0.0,0.0,0.0,0.0,0.0,0.0,0.0,0.0,0.0,0.0,0.0,0.0,0.0,0.0,0.0,0.0,0.0,0.0,0.0,0.0,0.0,0.0,0.0,0.0,0.0,0.0,0.0,0.0,0.0,0.0,0.0,0.0,0.0,0.0,0.0,0.0,0.0,0.0,0.0,0.0,0.0,0.0,0.0,0.0,0.0,0.0,0.0,0.0,0.0,-1.6633,-1.6714,-1.6834,-1.7114,-1.6887,-1.6593,-1.6299,-1.6273,-1.6019,0.0,0.0,0.0,0.0,0.0,0.0,0.0,0.0,0.0,0.0,0.0,0.0,0.0,0.0,0.0,0.0,0.0,0.0,0.0,0.0,0.0,0.0,0.0,0.0,0.0,0.0,0.0,0.0,0.0,0.0,0.0,0.0,0.0,0.0,0.0,0.0,0.0,0.0,0.0,0.0,0.0,0.0,0.0,0.0,0.0,0.0,0.0,0.0,0.0,0.0,0.0,0.0,0.0,0.0,0.0,0.0,0.0,0.0,0.0,0.0,0.0,0.0,0.0,0.0,0.0,0.0,0.0,0.0,0.0,0.0,0.0,0.0,0.0,0.0,0.0,0.0,0.0,0.0,0.0,0.0,0.0,0.0,0.0,0.0,0.0,0.0,0.0,0.0,0.0,0.0,0.0,0.0,0.0,0.0,0.0,0.0,0.0,0.0,0.0,0.0,0.0,0.0,0.0,0.0,-1.7061,-1.7275,-1.7168,-1.7074,-1.682,-1.6313,-1.6273,-1.5939,-1.5137,0.0,0.0,0.0,0.0,0.0,0.0,0.0,0.0,0.0,0.0,0.0,0.0,0.0,0.0,0.0,0.0,0.0,0.0,0.0,0.0,0.0,0.0,0.0,0.0,0.0,0.0,0.0,0.0,0.0,0.0,0.0,0.0,0.0,0.0,0.0,0.0,0.0,0.0,0.0,0.0,0.0,0.0,0.0,0.0,0.0,0.0,0.0,0.0,0.0,0.0,0.0,0.0,0.0,0.0,0.0,0.0,0.0,0.0,0.0,0.0,0.0,0.0,0.0,0.0,0.0,0.0,0.0,0.0,0.0,0.0,0.0,0.0,0.0,0.0,0.0,0.0,0.0,0.0,0.0,0.0,0.0,0.0,0.0,0.0,0.0,0.0,0.0,0.0,0.0,0.0,0.0,0.0,0.0,0.0,0.0,0.0,0.0,0.0,0.0,0.0,0.0,0.0,-1.666,-1.7221,-1.7515,-1.7341,-1.7328,-1.7088,-1.65,-1.6446,-1.6019,-1.503,0.0,0.0,0.0,0.0,0.0,0.0,0.0,0.0,0.0,0.0,0.0,0.0,0.0,0.0,0.0,0.0,0.0,0.0,0.0,0.0,0.0,0.0,0.0,0.0,0.0,0.0,0.0,0.0,0.0,0.0,0.0,0.0,0.0,0.0,0.0,0.0,0.0,0.0,0.0,0.0,0.0,0.0,0.0,0.0,0.0,0.0,0.0,0.0,0.0,0.0,0.0,0.0,0.0,0.0,0.0,0.0,0.0,0.0,0.0,0.0,0.0,0.0,0.0,0.0,0.0,0.0,0.0,0.0,0.0,0.0,0.0,0.0,0.0,0.0,0.0,0.0,0.0,0.0,0.0,0.0,0.0,0.0,0.0,0.0,0.0,0.0,0.0,0.0,0.0,0.0,0.0,0.0,0.0,0.0,0.0,0.0,0.0,0.0,0.0,0.0,0.0,0.0,-1.6633,-1.7221,-1.7582,-1.7582,-1.7582,-1.7341,-1.6754,-1.67,-1.6219,-1.507,0.0,0.0,0.0,0.0,0.0,0.0,0.0,0.0,0.0,0.0,0.0,0.0,0.0,0.0,0.0,0.0,0.0,0.0,0.0,0.0,0.0,0.0,0.0,0.0,0.0,0.0,0.0,0.0,0.0,0.0,0.0,0.0,0.0,0.0,0.0,0.0,0.0,0.0,0.0,0.0,0.0,0.0,0.0,0.0,0.0,0.0,0.0,0.0,0.0,0.0,0.0,0.0,0.0,0.0,0.0,0.0,0.0,0.0,0.0,0.0,-1.4496,0.0,0.0,0.0,0.0,0.0,0.0,0.0,0.0,0.0,0.0,0.0,0.0,0.0,0.0,0.0,0.0,0.0,0.0,0.0,0.0,0.0,0.0,0.0,0.0,0.0,0.0,0.0,0.0,0.0,0.0,0.0,0.0,0.0,0.0,0.0,0.0,0.0,0.0,0.0,0.0,0.0,-1.666,-1.7221,-1.7582,-1.7582,-1.7582,-1.7341,-1.6754,-1.67,-1.6299,-1.5364,0.0,0.0,0.0,0.0,0.0,0.0,0.0,0.0,0.0,0.0,0.0,0.0,0.0,0.0,0.0,0.0,0.0,0.0,0.0,0.0,0.0,0.0,0.0,0.0,0.0,0.0,0.0,0.0,0.0,0.0,0.0,0.0,0.0,0.0,0.0,0.0,0.0,0.0,0.0,0.0,0.0,0.0,0.0,0.0,0.0,0.0,0.0,0.0,0.0,0.0,0.0,0.0,0.0,0.0,0.0,0.0,0.0,0.0,0.0,0.0,0.0,-1.4897,0.0,0.0,0.0,0.0,0.0,0.0,0.0,0.0,0.0,0.0,0.0,0.0,0.0,0.0,0.0,0.0,0.0,0.0,0.0,0.0,0.0,0.0,0.0,0.0,0.0,0.0,0.0,0.0,0.0,0.0,0.0,0.0,0.0,0.0,0.0,0.0,0.0,0.0,0.0,0.0,-1.6673,-1.7221,-1.7582,-1.7582,-1.7582,-1.7341,-1.6754,-1.67,-1.6326,-1.5458,-1.5124,0.0,0.0,0.0,0.0,0.0,0.0,0.0,0.0,0.0,0.0,0.0,0.0,0.0,0.0,0.0,0.0,0.0,0.0,0.0,0.0,0.0,0.0,0.0,0.0,0.0,0.0,0.0,0.0,0.0,0.0,0.0,0.0,0.0,0.0,0.0,0.0,0.0,0.0,0.0,0.0,0.0,0.0,0.0,0.0,0.0,0.0,0.0,0.0,0.0,0.0,0.0,0.0,0.0,0.0,0.0,-1.6353,-1.6353,-1.6353,-1.6313,-1.5578,-1.5404,-1.5591,0.0,0.0,0.0,0.0,0.0,0.0,0.0,0.0,0.0,0.0,0.0,0.0,0.0,0.0,0.0,0.0,0.0,0.0,0.0,0.0,0.0,0.0,0.0,0.0,0.0,-1.7235,-1.7021,0.0,0.0,0.0,0.0,0.0,0.0,0.0,0.0,0.0,0.0,0.0,0.0,-1.6673,-1.7221,-1.7582,-1.7582,-1.7582,-1.7341,-1.6754,-1.67,-1.6353,-1.5524,-1.5204,-1.4923,0.0,0.0,0.0,0.0,0.0,0.0,0.0,0.0,0.0,0.0,0.0,0.0,0.0,0.0,0.0,0.0,0.0,0.0,0.0,0.0,0.0,0.0,0.0,0.0,0.0,0.0,0.0,0.0,0.0,0.0,0.0,0.0,-1.4522,-1.487,0.0,0.0,0.0,0.0,0.0,0.0,0.0,0.0,0.0,0.0,0.0,0.0,0.0,0.0,-1.6473,-1.6473,-1.6513,-1.6593,-1.6593,-1.6607,-1.6647,-1.6647,-1.6647,-1.6647,-1.6526,0.0,-1.6486,-1.5939,0.0,0.0,0.0,0.0,0.0,0.0,0.0,0.0,0.0,0.0,0.0,0.0,0.0,0.0,0.0,0.0,0.0,0.0,0.0,0.0,0.0,0.0,-1.7315,-1.7181,-1.7542,-1.7809,0.0,-1.7154,-1.6847,-1.6219,0.0,0.0,0.0,0.0,0.0,0.0,0.0,0.0,-1.67,-1.7221,-1.7582,-1.7582,-1.7582,-1.7341,-1.6754,-1.67,-1.6433,-1.5805,-1.5498,-1.5324,-1.5284,-1.475,0.0,0.0,0.0,0.0,0.0,0.0,0.0,0.0,0.0,0.0,0.0,0.0,0.0,0.0,0.0,0.0,0.0,0.0,0.0,0.0,0.0,0.0,0.0,0.0,0.0,0.0,0.0,0.0,0.0,-1.4416,-1.4883,-1.5177,-1.5097,-1.5017,0.0,0.0,0.0,0.0,0.0,0.0,0.0,0.0,0.0,-1.5818,-1.6152,-1.6446,-1.67,-1.67,-1.6794,-1.6954,-1.6954,-1.7034,-1.7194,-1.7194,-1.7194,-1.7194,-1.7194,-1.7194,-1.7154,-1.6567,-1.6326,-1.6299,0.0,0.0,0.0,0.0,0.0,0.0,-1.6179,0.0,0.0,0.0,0.0,0.0,0.0,0.0,0.0,0.0,0.0,0.0,0.0,0.0,0.0,-1.7609,-1.7862,-1.8009,-1.7876,-1.7742,-1.7475,0.0,-1.6901,-1.6807,-1.6192,0.0,0.0,0.0,0.0,0.0,-1.6954,-1.7315,-1.7582,-1.7582,-1.7582,-1.7408,-1.6994,-1.6954,-1.678,-1.6353,-1.6206,-1.6126,-1.6126,-1.5565,-1.519,0.0,0.0,0.0,0.0,0.0,0.0,0.0,0.0,0.0,0.0,0.0,0.0,0.0,0.0,0.0,0.0,0.0,0.0,0.0,0.0,0.0,0.0,0.0,0.0,0.0,0.0,0.0,0.0,-1.483,0.0,-1.5471,-1.5444,-1.5391,0.0,0.0,0.0,0.0,0.0,0.0,-1.5297,-1.5778,-1.6086,-1.6166,-1.6593,-1.686,-1.6927,-1.6927,-1.7034,-1.7261,-1.7261,-1.7368,-1.7582,-1.7582,-1.7582,-1.7582,-1.7582,-1.7582,-1.7542,-1.7034,-1.682,-1.6807,-1.674,-1.67,0.0,-1.67,-1.6754,-1.6834,-1.6981,-1.6941,-1.678,-1.6567,0.0,-1.6273,-1.5698,0.0,0.0,0.0,0.0,-1.6887,-1.7181,0.0,-1.7368,-1.7822,-1.7996,-1.805,-1.805,-1.805,-1.7889,0.0,-1.7368,-1.7261,-1.6607,0.0,0.0,0.0,0.0,-1.7154,-1.7154,-1.7395,-1.7582,-1.7582,-1.7582,-1.7462,-1.7181,-1.7154,-1.7021,-1.6727,-1.67,-1.67,-1.67,-1.6286,-1.6019,0.0,0.0,0.0,0.0,0.0,0.0,0.0,0.0,0.0,0.0,0.0,0.0,0.0,0.0,0.0,0.0,0.0,0.0,0.0,0.0,0.0,0.0,0.0,0.0,0.0,0.0,0.0,0.0,0.0,0.0,-1.5738,-1.5565,0.0,0.0,0.0,0.0,-1.5351,-1.5631,-1.5912,-1.6192,-1.65,-1.6794,-1.7074,-1.7114,-1.7261,-1.7528,-1.7542,-1.7542,-1.7555,-1.7555,-1.7569,-1.7582,-1.7582,-1.7582,-1.7582,-1.7582,-1.7582,-1.7555,-1.7248,-1.7128,-1.7101,-1.682,-1.67,-1.67,-1.67,-1.6887,-1.7088,-1.682,-1.6901,-1.7128,-1.7114,-1.6914,-1.6727,-1.6967,-1.6673,0.0,0.0,-1.7114,-1.7194,-1.7488,-1.7555,-1.7569,-1.7595,-1.7836,-1.805,-1.805,-1.805,-1.7956,0.0,-1.7355,-1.7257,-1.7114,0.0,0.0,-1.6687,-1.6954,-1.7154,-1.7154,-1.7395,-1.7582,-1.7582,-1.7582,-1.7462,-1.7181,-1.7154,-1.7021,-1.6727,-1.67,-1.67,-1.67,-1.6673,-1.6526,-1.6259,-1.5925,0.0,0.0,0.0,0.0,0.0,0.0,0.0,0.0,0.0,0.0,0.0,0.0,0.0,0.0,0.0,0.0,0.0,0.0,0.0,0.0,0.0,0.0,0.0,0.0,0.0,0.0,0.0,0.0,-1.5778,-1.6476,0.0,0.0,-1.6309,-1.6565,-1.6034,-1.6059,-1.6246,-1.654,-1.6834,-1.7034,-1.7244,-1.7328,-1.7475,-1.7582,-1.7582,-1.7582,-1.7582,-1.7582,-1.7582,-1.7582,-1.7582,-1.7582,-1.7582,-1.7582,-1.7582,-1.7569,-1.7475,-1.7422,-1.7422,-1.7315,-1.7275,-1.7275,-1.7275,-1.7341,-1.7408,-1.7301,-1.7341,-1.7422,-1.7422,-1.7101,-1.6794,-1.7275,-1.7154,-1.6914,-1.7315,-1.7422,-1.7448,-1.7555,-1.7582,-1.7582,-1.7582,-1.7662,-1.7742,-1.7742,-1.7742,-1.7716,-1.7609,-1.7502,-1.7368,-1.7181,-1.7221,-1.7208,-1.7021,-1.7248,-1.7422,-1.7422,-1.7515,-1.7582,-1.7582,-1.7582,-1.7542,-1.7435,-1.7422,-1.7382,-1.7275,-1.7275,-1.7275,-1.7275,-1.7088,-1.6941,-1.6834,-1.6179,-1.6443,0.0,0.0,0.0,0.0,0.0,0.0,0.0,0.0,0.0,0.0,0.0,0.0,0.0,0.0,0.0,0.0,0.0,0.0,0.0,0.0,0.0,0.0,0.0,0.0,0.0,0.0,-1.5511,-1.5792,-1.6951,-1.7217,-1.5927,-1.6936,-1.7211,-1.6195,-1.6313,-1.65,-1.67,-1.7074,-1.7288,-1.7288,-1.7475,-1.7582,-1.7582,-1.7582,-1.7582,-1.7582,-1.7582,-1.7582,-1.7582,-1.7582,-1.7582,-1.7582,-1.7582,-1.7582,-1.7582,-1.7582,-1.7582,-1.7582,-1.7582,-1.7582,-1.7582,-1.7582,-1.7582,-1.7582,-1.7582,-1.7582,-1.7582,-1.7582,-1.7315,-1.7074,-1.7462,-1.7448,-1.7341,-1.7528,-1.7582,-1.7582,-1.7582,-1.7582,-1.7582,-1.7582,-1.7582,-1.7582,-1.7582,-1.7582,-1.7582,-1.7582,-1.7582,-1.7515,-1.7328,-1.7462,-1.7515,-1.7328,-1.7462,-1.7582,-1.7582,-1.7582,-1.7582,-1.7582,-1.7582,-1.7582,-1.7582,-1.7488,-1.7475,-1.7569,-1.7488,-1.7475,-1.7582,-1.7301,-1.7154,-1.7154,-1.638,-1.6994,-1.9043,0.0,0.0,0.0,0.0,0.0,0.0,0.0,0.0,0.0,0.0,0.0,0.0,0.0,0.0,0.0,0.0,0.0,0.0,0.0,0.0,0.0,0.0,0.0,-1.5391,-1.5404,-1.5511,-1.5792,-1.6951,-1.7217,-1.6008,-1.6951,-1.7232,-1.5927,-1.638,-1.6714,-1.6727,-1.7275,-1.7582,-1.7582,-1.7582,-1.7582,-1.7582,-1.7582,-1.7582,-1.7582,-1.7582,-1.7582,-1.7582,-1.7582,-1.7582,-1.7582,-1.7582,-1.7582,-1.7582,-1.7582,-1.7582,-1.7582,-1.7582,-1.7582,-1.7582,-1.7582,-1.7582,-1.7582,-1.7582,-1.7582,-1.7582,-1.7582,-1.7582,-1.7582,-1.7582,-1.7582,-1.7582,-1.7582,-1.7582,-1.7582,-1.7582,-1.7582,-1.7582,-1.7582,-1.7582,-1.7582,-1.7582,-1.7582,-1.7582,-1.7582,-1.7582,-1.7582,-1.7582,-1.7582,-1.7582,-1.7582,-1.7582,0.0,-1.7582,-1.7582,-1.7582,-1.7595,-1.7595,-1.7595,-1.7595,-1.7341,-1.7288,-1.7569,-1.7315,-1.7288,-1.7582,-1.7328,-1.7181,-1.7168,-1.6706,-1.7534,-1.9947,0.0,0.0,0.0,0.0,0.0,0.0,0.0,0.0,0.0,0.0,0.0,0.0,0.0,0.0,0.0,0.0,0.0,0.0,0.0,0.0,0.0,0.0,-1.5391,-1.5391,-1.5578,-1.5738,-1.5818,-1.6951,-1.7591,-1.7232,-1.7498,-1.7601,-1.7457,-1.698,-1.6794,-1.7021,-1.7382,-1.7582,-1.7582,-1.7582,-1.7582,-1.7582,-1.7582,-1.7582,-1.7582,-1.7582,-1.7582,-1.7582,-1.7582,-1.7582,-1.7582,-1.7582,-1.7582,-1.7582,-1.7582,-1.7582,-1.7582,-1.7582,-1.7582,-1.7582,-1.7582,-1.7582,-1.7582,-1.7582,-1.7582,-1.7582,-1.7582,-1.7582,-1.7582,-1.7582,-1.7582,-1.7582,-1.7582,-1.7582,-1.7582,-1.7582,-1.7582,-1.7582,-1.7582,-1.7582,-1.7582,-1.7582,-1.7582,-1.7582,-1.7582,-1.7582,-1.7582,-1.7582,-1.7582,-1.7582,-1.7582,0.0,0.0,-1.7582,-1.7582,-1.7662,-1.7903,-1.7916,-1.7916,-1.7916,-1.7836,-1.7729,0.0,-1.7502,-1.7595,-1.7903,-1.7836,-1.7689,-1.7462,-1.8114,-1.9085,0.0,0.0,0.0,0.0,0.0,0.0,0.0,0.0,0.0,0.0,0.0,0.0,0.0,0.0,0.0,0.0,0.0,0.0,0.0,0.0,0.0,0.0,-1.5271,-1.5578,-1.5578,-1.5725,-1.5832,-1.5832,-1.6951,-1.7498,-1.6951,-1.7404,-1.7586,-1.7194,-1.6854,-1.678,-1.6954,-1.7355,-1.7582,-1.7582,-1.7582,-1.7582,-1.7582,-1.7582,-1.7582,-1.7582,-1.7582,-1.7582,-1.7582,-1.7582,-1.7582,0.0,-1.7582,-1.7582,-1.7582,-1.7582,-1.7582,0.0,0.0,0.0,0.0,0.0,-1.7582,-1.7582,-1.7582,-1.7582,-1.7582,-1.7582,-1.7582,-1.7582,-1.7582,-1.7582,-1.7582,-1.7582,-1.7582,-1.7582,-1.7582,-1.7582,-1.7582,-1.7582,-1.7582,-1.7582,-1.7582,-1.7582,-1.7582,-1.7582,0.0,0.0,-1.7582,-1.7582,-1.7582,-1.7582,-1.7582,-1.7622,0.0,-1.7769,-1.7889,-1.8196,-1.8237,-1.8237,-1.8237,-1.8103,0.0,0.0,0.0,-1.7849,-1.8023,0.0,0.0,0.0,0.0,0.0,0.0,0.0,0.0,0.0,-2.3717,-2.3601,0.0,0.0,0.0,0.0,0.0,0.0,0.0,0.0,0.0,0.0,0.0,0.0,0.0,0.0,0.0,0.0,-1.5645,-1.5832,-1.5832,-1.5832,-1.5832,-1.5832,-1.6763,-1.7124,-1.6103,-1.6951,-1.7044,-1.6103,-1.6478,-1.67,0.0,0.0,0.0,0.0,0.0,-1.7582,-1.7582,-1.7582,-1.7582,-1.7582,-1.7582,-1.7582,-1.7582,-1.7582,-1.7582,-1.7582,-1.7582,-1.7582,-1.7582,-1.7582,-1.7582,-1.7582,-1.7582,-1.7582,-1.7582,-1.7582,-1.7582,0.0,0.0,0.0,0.0,-1.7582,-1.7582,-1.7582,-1.7582,-1.7582,-1.7582,-1.7582,-1.7582,-1.7582,-1.7582,-1.7582,-1.7582,-1.7582,-1.7582,-1.7582,-1.7582,-1.7582,-1.7582,-1.7582,-1.7582,-1.7595,-1.7622,-1.7609,-1.7595,-1.7622,-1.7635,0.0,-1.805,-1.8076,-1.8196,-1.8504,0.0,0.0,-1.8544,-1.8303,-1.825,-1.8477,-1.829,-1.8183,-1.821,-1.8263,-1.8397,-1.8637,-1.8677,-1.9821,-2.1948,-2.0746,-2.1686,-2.4514,-2.524,-2.5069,0.0,0.0,0.0,0.0,0.0,0.0,0.0,0.0,0.0,0.0,0.0,0.0,0.0,0.0,0.0,-1.5337,-1.5645,-1.5832,-1.5832,-1.5832,-1.5832,-1.5832,-1.6021,-1.648,-1.7232,-1.6669,-1.648,-1.7217,-1.6953,-1.67,-1.67,-1.7261,0.0,-1.7582,-1.7582,-1.7582,-1.7582,-1.7582,-1.7582,-1.7582,0.0,0.0,-1.7582,-1.7582,-1.7582,-1.7582,-1.7582,-1.7582,-1.7582,-1.7582,-1.7582,-1.7582,-1.7582,-1.7582,-1.7582,-1.7582,-1.7582,-1.7582,-1.7582,-1.7582,-1.7582,-1.7582,-1.7582,-1.7582,-1.7582,-1.7582,0.0,-1.7582,-1.7582,-1.7582,-1.7582,-1.7582,-1.7582,-1.7582,-1.7582,-1.7582,-1.7582,-1.7582,-1.7582,-1.7582,-1.7582,-1.7662,-1.7916,-1.7756,-1.7662,-1.7916,-1.7956,-1.8063,-1.837,-1.8397,-1.8517,-1.8811,-1.8838,-1.8838,-1.8838,-1.8784,-1.8677,-1.8504,-1.8878,-1.9212,-1.9452,-1.9679,-1.9733,-1.9546,-1.9773,-2.0552,-2.1948,-2.2009,-2.2955,-2.4796,-2.502,-2.5492,0.0,0.0,0.0,0.0,0.0,0.0,0.0,0.0,0.0,0.0,0.0,-1.4442,0.0,0.0,-1.5271,-1.5565,-1.5738,-1.5832,-1.5832,-1.5832,-1.5832,-1.5832,-1.5832,-1.6008,-1.6669,-1.6197,-1.6008,-1.6669,-1.6758,-1.67,-1.67,-1.7261,-1.7582,-1.7582,-1.7582,-1.7582,-1.7582,-1.7582,-1.7582,-1.7582,-1.7582,-1.7582,-1.7582,-1.7582,-1.7582,-1.7582,-1.7582,-1.7582,-1.7582,-1.7582,-1.7582,-1.7582,-1.7582,-1.7582,-1.7582,-1.7582,-1.7582,-1.7582,-1.7582,-1.7582,-1.7582,-1.7582,-1.7582,-1.7582,-1.7582,-1.7582,-1.7582,-1.7582,-1.7582,-1.7582,-1.7582,-1.7702,-1.7809,-1.7809,-1.7929,-1.8036,-1.8036,-1.8036,-1.8036,-1.8036,-1.8036,-1.809,-1.825,-1.8143,-1.809,-1.825,-1.8263,-1.837,-1.8664,-1.8704,-1.8824,-1.9118,-1.9279,-1.9359,-1.9359,-1.9492,-1.9519,-1.9372,-1.9639,-1.9867,-2.0013,-2.016,-2.0241,-2.0241,-2.0388,-2.0808,-2.1512,-2.168,-2.3066,-2.544,-2.544,-2.6199,0.0,0.0,0.0,0.0,0.0,0.0,0.0,0.0,-1.4429,-1.471,-1.4776,-1.4923,-1.5391,-1.5484,-1.5565,-1.5792,-1.5832,-1.5832,-1.5832,-1.5832,-1.5832,-1.5832,-1.5832,-1.5832,-1.5832,-1.5832,-1.5832,-1.5832,-1.638,-1.67,-1.67,-1.7261,-1.7582,-1.7582,-1.7582,-1.7582,-1.7582,-1.7582,-1.7582,-1.7582,-1.7582,-1.7582,-1.7582,-1.7582,-1.7582,-1.7582,-1.7582,-1.7582,-1.7582,-1.7582,-1.7582,-1.7582,-1.7582,-1.7582,-1.7582,-1.7582,-1.7582,-1.7582,-1.7582,-1.7582,-1.7582,-1.7582,-1.7582,-1.7582,-1.7582,-1.7582,-1.7582,-1.7582,-1.7622,-1.7675,-1.7675,-1.7903,-1.813,-1.813,-1.8317,-1.849,-1.849,-1.849,-1.849,-1.849,-1.849,-1.8504,-1.8571,-1.8571,-1.8571,-1.8571,-1.8571,-1.8677,-1.8971,-1.9011,-1.9118,-1.9426,-1.9653,-1.9826,-1.988,-2.0094,-2.0254,-2.0307,-2.0321,-2.0347,-2.0401,-2.0401,-2.0521,-2.0762,-2.0762,-2.0869,-2.1109,-2.1109,-2.2827,-2.5984,-2.5984,-2.6919,-1.503,-1.4963,0.0,-1.5244,-1.5084,-1.5003,0.0,0.0,-1.5337,-1.5618,-1.5685,-1.5698,-1.5765,-1.5778,-1.5792,-1.5832,-1.5832,-1.5832,-1.5832,-1.5832,-1.5832,-1.5832,-1.5832,-1.5832,-1.5832,-1.5832,-1.5832,-1.5832,-1.638,-1.67,-1.67,-1.7261,-1.7582,-1.7582,-1.7582,-1.7582,-1.7582,-1.7582,-1.7582,-1.7582,-1.7582,-1.7582,-1.7582,-1.7582,-1.7582,-1.7582,-1.7582,-1.7582,-1.7582,-1.7582,-1.7582,-1.7582,-1.7582,-1.7582,-1.7582,-1.7582,-1.7582,-1.7582,-1.7582,-1.7582,-1.7582,-1.7582,-1.7582,-1.7582,-1.7582,-1.7582,-1.7582,-1.7582,-1.7782,-1.7996,-1.7996,-1.8223,-1.8437,-1.8437,-1.8464,-1.849,-1.849,-1.849,-1.849,-1.849,-1.849,-1.8571,-1.8824,-1.8878,-1.8878,-1.8878,-1.8878,-1.8985,-1.9279,-1.9319,-1.9426,-1.972,-1.9786,-1.9907,-2.016,-2.0214,-2.0347,-2.0615,-2.0628,-2.0748,-2.1002,-2.1015,-2.1029,-2.1056,-2.1069,-2.1082,-2.1109,-2.1109,-2.2827,-2.5984,-2.5984,-2.7674,-1.5404,0.0,0.0,0.0,-1.5565,-1.5524,-1.5778,-1.5738,-1.5685,-1.5805,-1.5832,-1.5832,-1.5832,-1.5832,-1.5832,0.0,-1.5832,-1.5832,-1.5832,-1.5832,-1.5832,-1.5832,-1.5979,-1.6019,-1.5845,-1.5832,-1.5832,-1.5832,-1.638,-1.67,-1.67,-1.7261,-1.7582,-1.7582,-1.7582,-1.7582,-1.7582,-1.7582,-1.7582,-1.7582,-1.7582,-1.7582,-1.7582,-1.7582,-1.7582,-1.7582,-1.7582,-1.7582,-1.7582,-1.7582,-1.7582,-1.7582,-1.7582,-1.7582,-1.7582,-1.7582,-1.7582,-1.7582,-1.7582,-1.7582,-1.7582,-1.7582,-1.7582,-1.7582,-1.7582,-1.7702,-1.7849,-1.7849,-1.8076,-1.8303,-1.8303,-1.8531,-1.8744,-1.8744,-1.8878,-1.8998,-1.8998,-1.8998,-1.8998,-1.8998,-1.8998,-1.9038,-1.9158,-1.9185,-1.9185,-1.9185,-1.9185,-1.9225,-1.9359,-1.9519,-1.98,-2.0254,-2.0307,-2.0428,-2.0722,-2.0748,-2.0802,-2.0922,-2.0922,-2.0989,-2.1109,-2.1109,-2.1109,-2.1109,-2.1109,-2.1109,-2.1109,-2.1109,-2.2341,-2.4655,-2.4655,-2.5879,-1.5591,0.0,0.0,-1.5752,-1.5832,-1.5832,-1.5832,-1.5832,-1.5832,-1.5832,-1.5832,-1.5832,-1.5832,-1.5832,0.0,-1.5832,-1.5832,-1.5832,-1.5832,-1.5832,-1.5832,-1.5832,-1.6019,-1.6099,-1.5965,-1.6019,-1.6072,-1.6072,-1.654,-1.6834,-1.6834,-1.7315,-1.7582,-1.7582,-1.7582,-1.7582,-1.7582,-1.7582,-1.7582,-1.7582,-1.7582,-1.7582,-1.7582,-1.7582,-1.7582,-1.7582,-1.7582,-1.7582,-1.7582,-1.7582,-1.7582,-1.7595,-1.7675,-1.7716,-1.7716,-1.7809,-1.7782,-1.7716,-1.7809,-1.7836,-1.7836,-1.7836,-1.7836,-1.7836,-1.7836,-1.7996,-1.817,-1.817,-1.8384,-1.8611,-1.8611,-1.8824,-1.9052,-1.9052,-1.9212,-1.9372,-1.9372,-1.9372,-1.9372,-1.9372,-1.9439,-1.9492,-1.9492,-1.9559,-1.9599,-1.9599,-1.9599,-1.9573,-1.9492,-1.9813,-2.0201,-2.0628,-2.0748,-2.0882,-2.1096,-2.1109,-2.1109,-2.1109,-2.1109,-2.1109,-2.1109,-2.1109,-2.1109,-2.1109,-2.1109,-2.1109,-2.1109,-2.1109,-2.1978,-2.3574,-2.3574,-2.4655,0.0,0.0,-1.5471,-1.5752,-1.5832,-1.5832,-1.5832,-1.5832,-1.5832,-1.5832,-1.5832,-1.5832,-1.5832,-1.5832,-1.5832,-1.5832,-1.5832,-1.5832,-1.5832,-1.5832,-1.5832,-1.5832,-1.5832,-1.5952,0.0,-1.6513,-1.6673,-1.6673,-1.6967,-1.7141,-1.7141,-1.7422,-1.7582,-1.7582,-1.7582,-1.7582,-1.7582,-1.7582,-1.7582,-1.7582,-1.7582,-1.7582,-1.7582,-1.7582,-1.7582,-1.7582,-1.7582,-1.7582,-1.7582,-1.7582,-1.7582,-1.7609,-1.7916,-1.8036,-1.8063,-1.8357,-1.8277,-1.8076,-1.8357,-1.8464,-1.8464,-1.8464,-1.8464,-1.8464,-1.8464,-1.8464,-1.8477,-1.8477,-1.8691,-1.8905,-1.8905,-1.9132,-1.9359,-1.9359,-1.9359,-1.9372,-1.9372,-1.9372,-1.9372,-1.9372,-1.9599,-1.9786,-1.9786,-2.0013,-2.0214,-2.0214,-2.0214,-2.0107,-1.9826,-2.0294,-2.0655,-2.0668,-2.0922,-2.1096,-2.1109,-2.1109,-2.1109,-2.1109,-2.1109,-2.1109,-2.1109,-2.1109,-2.1109,-2.1109,-2.1109,-2.1109,-2.1109,-2.1109,-2.1978,-2.3574,-2.3574,-2.5269,0.0,0.0,-1.5471,-1.5752,-1.5832,-1.5832,-1.5832,-1.5832,-1.5832,-1.5832,-1.5832,-1.5832,-1.5832,-1.5832,-1.5832,-1.5832,-1.5832,-1.5832,-1.5832,-1.6005,-1.6126,-1.6126,-1.6473,0.0,0.0,0.0,0.0,-1.6687,-1.6981,-1.7154,-1.7154,-1.7422,-1.7582,-1.7582,-1.7582,-1.7582,-1.7582,-1.7782,-1.7889,-1.7889,-1.809,-1.8183,-1.8183,-1.8183,-1.8183,-1.8183,-1.8183,-1.8183,-1.8183,-1.8183,-1.8183,-1.8196,-1.8303,-1.8343,-1.837,-1.8664,-1.8718,-1.8611,-1.8517,-1.849,-1.849,-1.849,-1.849,-1.849,-1.849,-1.8624,-1.8784,-1.8784,-1.8998,-1.9225,-1.9225,-1.9292,-1.9372,-1.9372,-1.9372,-1.9426,-1.9613,-1.9653,-1.9706,-1.9907,-2.0013,-2.0094,-2.0094,-2.0174,-2.0294,-2.0494,-2.0361,-2.0267,-2.0374,-2.0561,-2.0748,-2.0949,-2.1056,-2.1109,-2.1109,-2.1109,-2.1109,-2.1109,-2.1109,-2.1109,-2.1109,-2.1109,-2.1109,-2.1109,-2.1109,-2.1109,-2.1109,-2.1109,-2.1348,-2.1978,-2.1978,-2.2577,0.0,-1.5391,-1.5471,-1.5752,-1.5832,-1.5832,-1.5832,-1.5832,-1.5832,-1.5832,-1.6197,-1.6386,-1.5927,-1.6197,-1.6292,-1.5832,-1.5912,-1.5992,-1.5992,-1.6246,-1.6433,-1.6433,-1.6767,0.0,0.0,0.0,0.0,-1.6994,-1.7194,-1.7301,-1.7301,-1.7475,-1.7582,-1.7582,-1.7582,-1.7635,-1.7742,-1.7943,-1.8103,-1.821,-1.8397,-1.849,-1.849,-1.849,-1.849,-1.849,-1.849,-1.849,-1.849,-1.849,-1.849,-1.8504,-1.8611,-1.8651,-1.8677,-1.8971,-1.9078,-1.9052,-1.8865,-1.8811,-1.8811,-1.8811,-1.8811,-1.8811,-1.8811,-1.8931,-1.9078,-1.9078,-1.9225,-1.9372,-1.9372,-1.9439,-1.9519,-1.9519,-1.9599,-1.9733,-1.992,-1.996,-2.0013,-2.0201,-2.0321,-2.0388,-2.0388,-2.0481,-2.0615,-2.0802,-2.0668,-2.0615,-2.0802,-2.0828,-2.0909,-2.1082,-2.1109,-2.1109,-2.1109,-2.1109,-2.1109,-2.1109,-2.1109,-2.1109,-2.1109,-2.1109,-2.1109,-2.1109,-2.1216,-2.1269,-2.1269,-2.1376,-2.1416,-2.1416,-2.1309,-2.1638,-1.5324,-1.5404,-1.5484,-1.5765,-1.5832,-1.5832,-1.5832,-1.5832,-1.5832,-1.5832,-1.6857,-1.7311,0.0,0.0,-1.734,-1.6035,-1.6099,-1.6299,-1.6299,-1.654,-1.6727,0.0,0.0,0.0,0.0,0.0,0.0,-1.7582,0.0,-1.7595,-1.7609,-1.7595,-1.7595,-1.7609,-1.7609,-1.7756,-1.8063,-1.809,-1.8237,-1.8531,-1.8531,-1.8531,-1.8531,-1.8531,-1.8531,-1.8531,-1.8531,-1.8531,-1.8531,-1.8531,-1.8531,-1.8557,-1.8838,-1.8945,-1.8985,-1.9265,-1.9372,-1.9372,-1.9372,-1.9372,-1.9372,-1.9372,-1.9372,-1.9372,-1.9372,-1.9372,-1.9372,-1.9372,-1.9372,-1.9386,-1.9386,-1.9599,-1.9826,-1.9826,-2.0027,-2.0241,-2.0254,-2.0254,-2.0254,-2.0267,-2.0508,-2.0695,-2.0695,-2.0922,-2.1109,-2.1109,-2.1109,-2.1109,-2.1109,-2.1109,-2.1109,-2.1109,-2.1109,-2.1109,-2.1109,-2.1109,-2.1109,-2.1109,-2.1109,-2.1109,-2.1109,-2.1109,-2.1122,-2.1136,-2.1403,-2.1563,-2.1577,-2.1857,-2.1991,-2.1977,-2.171,-2.2452,-1.5378,-1.5551,-1.5738,-1.5805,-1.5832,-1.5832,-1.5832,-1.5832,-1.5832,-1.5832,-1.6857,-1.7311,0.0,0.0,0.0,-1.6346,-1.6406,0.0,-1.6593,-1.6847,0.0,0.0,0.0,-1.7395,-1.7462,-1.7475,0.0,0.0,-1.7716,-1.7689,-1.7916,-1.7702,-1.7689,-1.7916,-1.7929,-1.8076,-1.837,-1.8597,-1.8851,-1.9145,-1.9145,-1.9145,-1.9145,-1.9145,-1.9145,-1.9145,-1.9145,-1.9145,-1.9145,-1.9145,-1.9145,-1.9158,-1.9225,-1.9252,-1.9265,-1.9332,-1.9372,-1.9372,-1.9372,-1.9372,-1.9372,-1.9372,-1.9372,-1.9372,-1.9372,-1.9372,-1.9372,-1.9372,-1.9519,-1.9693,-1.9693,-1.9907,-2.012,-2.012,-2.0174,-2.0294,-2.0508,-2.0561,-2.0628,-2.0842,-2.0949,-2.1002,-2.1002,-2.1056,-2.1109,-2.1109,-2.1109,-2.1109,-2.1109,-2.1109,-2.1109,-2.1109,-2.1109,-2.1109,-2.1109,-2.1109,-2.1109,-2.1109,-2.1109,-2.1109,-2.1109,-2.1109,-2.1216,-2.143,-2.151,-2.1657,-2.1871,-2.1951,-2.1991,-2.1991,-2.1911,-2.2011,-1.5551,-1.5712,-1.5832,-1.5832,-1.5832,-1.5832,-1.5832,-1.5832,-1.5832,-1.5832,-1.7217,0.0,0.0,0.0,0.0,0.0,0.0,0.0,-1.6901,-1.7154,-1.7341,0.0,-1.7488,0.0,-1.7582,-1.7702,-1.7916,0.0,0.0,-1.7916,-1.8223,-1.8076,-1.8063,-1.8237,-1.8237,-1.8384,-1.8677,-1.8971,-1.9199,-1.9372,-1.9372,-1.9372,-1.9372,-1.9372,-1.9372,-1.9372,0.0,-1.9372,-1.9372,-1.9372,-1.9372,-1.9372,-1.9372,-1.9372,-1.9372,-1.9372,-1.9372,-1.9372,-1.9372,-1.9372,-1.9372,-1.9372,-1.9372,-1.9372,-1.9372,-1.9372,-1.9399,-1.9519,-1.9679,-1.9826,-1.996,-2.0201,-2.0428,-2.0428,-2.0521,-2.0668,-2.0828,-2.0869,-2.0909,-2.1082,-2.1109,-2.1109,-2.1109,-2.1109,-2.1109,-2.1109,-2.1109,-2.1109,-2.1109,-2.1109,-2.1109,-2.1109,-2.1109,-2.1109,-2.1109,-2.1109,-2.1109,-2.1109,-2.1109,-2.1109,-2.1109,-2.1229,-2.139,-2.155,-2.1804,-2.2017,-2.2178,-2.2311,-2.2365,-2.2365,-2.2231,-2.2084,-1.5765,-1.5832,-1.5832,-1.5832,-1.5832,-1.5832,-1.5832,-1.5832,-1.5832,-1.5832,0.0,0.0,-1.6197,0.0,-1.8987,-1.6758,0.0,-1.7288,-1.7328,-1.7542,-1.7702,-1.7702,-1.7702,-1.7702,-1.7702,-1.7943,-1.8223,-1.8531,-1.8303,-1.8277,-1.8531,-1.8517,-1.8504,-1.8544,-1.8584,-1.8731,-1.8985,-1.9239,-1.9372,-1.9372,-1.9372,-1.9372,-1.9372,-1.9372,-1.9372,-1.9372,0.0,0.0,-1.9372,-1.9372,-1.9372,-1.9372,-1.9372,-1.9372,-1.9372,-1.9372,-1.9372,-1.9372,-1.9412,-1.9426,-1.9412,-1.9372,-1.9399,-1.9412,-1.9372,-1.9426,-1.9533,-1.9733,-1.9853,-1.9973,-2.0227,-2.0508,-2.0735,-2.0735,-2.0922,-2.1109,-2.1109,-2.1109,-2.1109,-2.1109,-2.1109,-2.1109,-2.1109,-2.1109,-2.1109,-2.1109,-2.1109,-2.1109,-2.1109,-2.1109,-2.1109,-2.1109,-2.1109,-2.1109,-2.1109,-2.1109,-2.1122,-2.1162,-2.1162,-2.1189,-2.1229,-2.147,-2.163,-2.167,-2.2164,-2.2432,-2.2472,-2.2739,-2.2859,-2.2859,-2.2592,-2.2458,-1.5818,-1.5832,-1.5832,-1.5832,-1.5832,-1.5832,-1.5832,-1.5832,0.0,0.0,0.0,-1.7591,-1.6103,-1.7409,0.0,-1.7259,0.0,0.0,0.0,0.0,-1.833,0.0,0.0,0.0,0.0,0.0,0.0,0.0,0.0,0.0,-1.8838,-1.8624,-1.8597,-1.8838,-1.9092,-1.9239,-1.9292,-1.9345,-1.9372,-1.9372,-1.9372,-1.9372,-1.9372,-1.9372,-1.9372,-1.9372,0.0,0.0,-1.9372,-1.9372,-1.9372,-1.9372,-1.9372,-1.9372,-1.9372,-1.9372,-1.9372,-1.9399,-1.9639,-1.972,-1.9679,-1.9452,-1.9533,-1.9679,-1.9439,-1.9706,-2.004,-1.9853,-2.0147,-2.0535,-2.0588,-2.0815,-2.1029,-2.1029,-2.1069,-2.1109,-2.1109,-2.1109,-2.1109,-2.1109,-2.1109,-2.1109,-2.1109,-2.1109,-2.1109,-2.1109,-2.1109,-2.1109,-2.1109,-2.1109,-2.1109,-2.1109,-2.1109,-2.1109,-2.1109,-2.1109,-2.1216,-2.1456,-2.147,-2.1577,-2.183,-2.1884,-2.2017,-2.2258,-2.2365,-2.2539,-2.2779,-2.2832,-2.2859,-2.2859,-2.2806,-2.2659,-1.5832,-1.5832,-1.5832,-1.5832,-1.5832,-1.5832,-1.5832,0.0,0.0,0.0,0.0,-1.6556,-1.59,-1.7131,0.0,0.0,0.0,0.0,0.0,0.0,0.0,0.0,0.0,0.0,0.0,0.0,0.0,0.0,0.0,0.0,0.0,-1.9025,-1.9011,-1.9145,-1.9292,-1.9372,-1.9372,-1.9372,-1.9372,-1.9372,-1.9519,-1.9586,-1.9599,-1.9746,-1.9813,-1.9813,0.0,0.0,-1.9599,-1.976,-1.9733,-1.9613,-1.976,-1.9813,-1.9813,-1.9813,-1.9813,-1.984,-1.9973,-2.0027,-2.0,-1.9867,-1.9907,-2.0,-1.9867,-2.0013,-2.0241,-2.0254,-2.0454,-2.0708,-2.0869,-2.1002,-2.1109,-2.1109,-2.1109,-2.1109,-2.1109,-2.1109,-2.1109,-2.1109,-2.1109,-2.1109,-2.1109,-2.1109,-2.1109,-2.1109,-2.1109,-2.1109,-2.1109,-2.1109,-2.1109,-2.1109,-2.1243,-2.1336,-2.1336,-2.1483,-2.163,-2.1764,-2.1777,-2.1844,-2.1977,-2.2124,-2.2271,-2.2418,-2.2565,-2.2712,-2.2859,-2.2859,-2.2859,-2.2859,-2.2859,-2.2779,-1.5832,-1.5832,-1.5832,-1.5832,-1.5832,-1.5832,-1.5832,-1.5832,0.0,0.0,0.0,-1.5765,-1.5805,-1.6812,-1.7329,0.0,0.0,0.0,0.0,0.0,0.0,0.0,0.0,0.0,0.0,0.0,0.0,0.0,0.0,0.0,0.0,-1.9372,-1.9372,-1.9372,-1.9372,-1.9399,-1.9466,-1.9466,-1.9492,-1.9559,-1.9786,-1.9893,-1.9907,-2.0134,-2.0227,-2.0227,0.0,0.0,0.0,-2.0134,-2.0094,-1.992,-2.0147,-2.0227,-2.0227,-2.0227,-2.0227,-2.0241,-2.0307,-2.0334,-2.0334,-2.0401,-2.0374,-2.0307,-2.0254,-2.0321,-2.0454,-2.0628,-2.0722,-2.0815,-2.1056,-2.1109,-2.1109,-2.1109,-2.1109,-2.1109,-2.1109,-2.1109,-2.1109,-2.1109,-2.1109,-2.1109,-2.1109,-2.1109,-2.1109,-2.1109,-2.1109,-2.1109,-2.1109,-2.1162,-2.1203,-2.1203,-2.1416,-2.1577,-2.1643,-2.1857,-2.2004,-2.2071,-2.2084,-2.2111,-2.2178,-2.2392,-2.2512,-2.2512,-2.2739,-2.2859,-2.2859,-2.2859,-2.2859,-2.2859,-2.2859,-2.2859,-1.5832,-1.5832,-1.5832,-1.5832,-1.5832,-1.5832,-1.5832,0.0,0.0,0.0,-1.5818,-1.5805,-1.5832,-1.5949,-1.5986,0.0,0.0,0.0,0.0,0.0,0.0,0.0,0.0,0.0,0.0,0.0,0.0,0.0,0.0,0.0,0.0,-1.9372,-1.9372,-1.9372,-1.9372,-1.9492,-1.976,-1.976,-1.9893,-2.0147,-2.0174,-2.0187,-2.0187,-2.0227,-2.0227,-2.0227,0.0,0.0,0.0,-2.0227,-2.0214,-2.0201,-2.0227,-2.0227,-2.0227,-2.0227,-2.0227,-2.0267,-2.0548,-2.0641,-2.0681,-2.0949,-2.0855,-2.0588,-2.0307,-2.0601,-2.0975,-2.0735,-2.0869,-2.1082,-2.1096,-2.1109,-2.1109,-2.1109,-2.1109,-2.1109,-2.1109,-2.1109,-2.1109,-2.1109,-2.1109,-2.1109,-2.1109,-2.1109,-2.1109,-2.1109,-2.1109,-2.1109,-2.1109,-2.1349,-2.151,-2.151,-2.1537,-2.1657,-2.1924,-2.1977,-2.2098,-2.2365,-2.2378,-2.2498,-2.2766,-2.2806,-2.2819,-2.2819,-2.2846,-2.2859,-2.2859,-2.2859,-2.2859,-2.2859,-2.2859,-2.2859,-1.5832,-1.5832,-1.5777,-1.5827,-1.5747,-1.5777,-1.5827,0.0,0.0,-1.5832,-1.5832,-1.5832,-1.5832,-1.5817,-1.5765,0.0,0.0,0.0,0.0,0.0,0.0,0.0,0.0,0.0,0.0,0.0,0.0,0.0,0.0,0.0,0.0,0.0,-1.9626,-1.9626,-1.98,-1.9947,-2.0054,-2.0054,-2.012,-2.0241,-2.0414,-2.0494,-2.0508,-2.0681,-2.0762,0.0,0.0,0.0,0.0,-2.0681,-2.0655,-2.0521,-2.0695,-2.0762,-2.0762,-2.0762,-2.0762,-2.0775,-2.0895,-2.0935,-2.0962,-2.1069,-2.1029,-2.0909,-2.0802,-2.0922,-2.1082,-2.0962,-2.1015,-2.1109,-2.1109,-2.1109,-2.1109,-2.1109,-2.1109,-2.1109,-2.1109,-2.1109,-2.1109,-2.1109,-2.1109,-2.1109,-2.1109,-2.1109,-2.1109,-2.1109,-2.1109,-2.1176,-2.1349,-2.1483,-2.1683,-2.2031,-2.2071,-2.2124,-2.2231,-2.2418,-2.2565,-2.2672,-2.2686,-2.2739,-2.2859,-2.2859,-2.2859,-2.2859,-2.3046,-2.314,-2.314,-2.3327,-2.3313,-2.314,-2.314,-2.3046,-1.583,-1.5843,-1.5813,-1.5771,-1.6069,-1.6238,0.0,0.0,-1.5832,-1.5832,-1.5832,-1.5832,-1.5832,-1.5832,-1.5923,0.0,0.0,0.0,0.0,0.0,0.0,0.0,0.0,0.0,0.0,0.0,0.0,0.0,0.0,0.0,0.0,0.0,-2.0013,-1.9933,-2.012,-2.0267,-2.0361,-2.0361,-2.0401,-2.0494,-2.0708,-2.0802,-2.0815,-2.1015,-2.1109,0.0,0.0,0.0,0.0,-2.1029,-2.0989,-2.0828,-2.1029,-2.1109,-2.1109,-2.1109,-2.1109,-2.1109,-2.1109,-2.1109,-2.1109,-2.1109,-2.1109,-2.1109,-2.1109,-2.1109,-2.1109,-2.1109,-2.1109,-2.1109,-2.1109,-2.1109,-2.1109,-2.1109,-2.1109,-2.1109,-2.1109,-2.1109,-2.1109,-2.1109,-2.1109,-2.1109,-2.1109,-2.1189,-2.1243,-2.1243,-2.1309,-2.1443,-2.1657,-2.175,-2.1964,-2.2378,-2.2498,-2.2552,-2.2552,-2.2739,-2.2859,-2.2859,-2.2859,-2.2859,-2.2859,-2.2859,-2.2899,-2.2993,-2.322,-2.3367,-2.346,-2.3661,-2.3661,-2.346,-2.346,-2.33,-1.5751,-1.5817,-1.5784,-1.5844,-1.6697,-1.7274,0.0,-1.5827,-1.5832,-1.5832,-1.5832,-1.5832,-1.5832,-1.5832,-1.6238,-1.7399,-1.7631,0.0,0.0,0.0,0.0,0.0,0.0,0.0,0.0,0.0,0.0,0.0,0.0,0.0,0.0,0.0,-2.0535,-2.0241,-2.0227,-2.0374,-2.0668,-2.0668,-2.0815,-2.1096,-2.1096,-2.1109,-2.1109,-2.1109,0.0,0.0,0.0,0.0,0.0,-2.1109,-2.1109,-2.1109,-2.1109,-2.1109,-2.1109,-2.1109,-2.1109,-2.1109,-2.1109,-2.1109,-2.1109,-2.1109,-2.1109,-2.1109,-2.1109,-2.1109,-2.1109,-2.1109,-2.1109,-2.1109,-2.1109,-2.1109,-2.1109,-2.1109,-2.1109,-2.1109,-2.1109,-2.1109,-2.1109,-2.1109,-2.1109,-2.1109,-2.1109,-2.1349,-2.155,-2.155,-2.179,-2.1977,-2.1977,-2.2231,-2.2405,-2.2418,-2.2686,-2.2859,-2.2859,-2.2859,-2.2859,-2.2859,-2.2859,-2.2859,-2.2859,-2.2859,-2.3006,-2.3313,-2.3327,-2.3474,-2.3768,-2.3768,-2.3768,-2.3768,-2.3768,-2.3607,-1.583,-1.6402,-1.7021,-1.7009,-1.7301,-1.7241,-1.6109,-1.5827,-1.5832,-1.5832,-1.5832,-1.5832,-1.5832,-1.5832,-1.6373,-1.7956,-1.8561,0.0,0.0,0.0,0.0,0.0,0.0,0.0,0.0,0.0,0.0,0.0,0.0,0.0,0.0,0.0,0.0,-2.0548,-2.0722,-2.0882,-2.0975,-2.0975,-2.1015,-2.1109,-2.1109,-2.1109,-2.1109,0.0,0.0,0.0,0.0,0.0,0.0,-2.1109,-2.1109,-2.1109,-2.1109,-2.1109,-2.1109,-2.1109,-2.1109,-2.1109,-2.1109,-2.1109,-2.1109,-2.1109,-2.1109,-2.1109,-2.1109,-2.1109,-2.1109,-2.1109,-2.1109,-2.1109,-2.1109,-2.1109,-2.1109,-2.1109,-2.1109,-2.1109,-2.1109,-2.1109,-2.1109,-2.1109,-2.1269,-2.1416,-2.1416,-2.1657,-2.1844,-2.1844,-2.1924,-2.2058,-2.2258,-2.2365,-2.2498,-2.2699,-2.2806,-2.2859,-2.2859,-2.2859,-2.2859,-2.2859,-2.306,-2.318,-2.318,-2.338,-2.3527,-2.3621,-2.3821,-2.3968,-2.4062,-2.4262,-2.4262,-2.4062,-2.3861,-2.3714,0.0,-1.632,-1.6938,-1.6924,-1.6884,-1.6704,-1.6011,-1.5827,-1.5832,-1.5832,-1.5832,-1.5832,-1.5832,-1.5925,-1.6495,-1.7695,-1.838,0.0,0.0,0.0,0.0,0.0,0.0,0.0,0.0,0.0,0.0,0.0,0.0,0.0,0.0,0.0,0.0,-2.0842,-2.1015,-2.1109,-2.1109,-2.1109,-2.1109,-2.1109,-2.1109,-2.1109,-2.1109,0.0,0.0,0.0,0.0,0.0,0.0,-2.1109,-2.1109,-2.1109,-2.1109,-2.1109,-2.1109,-2.1109,-2.1109,-2.1109,-2.1109,-2.1109,-2.1109,-2.1109,-2.1109,-2.1109,-2.1109,-2.1109,-2.1109,-2.1109,-2.1109,-2.1109,-2.1109,-2.1109,-2.1109,-2.1109,-2.1109,-2.1109,-2.1109,-2.1203,-2.1269,-2.1269,-2.151,-2.171,-2.171,-2.1951,-2.2151,-2.2151,-2.2245,-2.2378,-2.2565,-2.2579,-2.2659,-2.2846,-2.2859,-2.2859,-2.2859,-2.2859,-2.2913,-2.3033,-2.322,-2.338,-2.3487,-2.3674,-2.3821,-2.3928,-2.4115,-2.4262,-2.4369,-2.4556,-2.4543,-2.4369,-2.4182,-2.4035,0.0,-1.5804,-1.5758,-1.5793,-1.5776,-1.5804,-1.5804,-1.5813,0.0,-1.5832,-1.5832,-1.5845,-1.5885,-1.6099,-1.6505,-1.7008,-1.7405,0.0,0.0,0.0,0.0,0.0,0.0,0.0,0.0,0.0,0.0,0.0,0.0,0.0,0.0,0.0,0.0,0.0,-2.1122,-2.1122,-2.1109,-2.1109,-2.1109,-2.1109,-2.1109,-2.1109,-2.1109,0.0,0.0,0.0,0.0,0.0,0.0,-2.0982,-2.1109,-2.1109,-2.1109,-2.1109,-2.1109,-2.1109,-2.1109,-2.1109,-2.1109,-2.1109,-2.1109,-2.1109,-2.1109,-2.1109,-2.1109,-2.1109,-2.1109,-2.1109,-2.1109,-2.1109,-2.1109,-2.1109,-2.1109,-2.1109,-2.1122,-2.1149,-2.1149,-2.1376,-2.159,-2.159,-2.1817,-2.2017,-2.2017,-2.2258,-2.2458,-2.2458,-2.2686,-2.2859,-2.2859,-2.2859,-2.2859,-2.2859,-2.2886,-2.2899,-2.2899,-2.2899,-2.302,-2.3313,-2.3367,-2.3514,-2.3794,-2.3821,-2.3955,-2.4222,-2.4235,-2.4369,-2.4636,-2.4636,-2.4636,-2.4636,-2.4636,-2.4489,-1.5803,0.0,-1.5843,-1.58,-1.5774,-1.583,0.0,-1.5777,0.0,0.0,0.0,-1.5965,-1.642,-1.638,-1.6673,-1.7996,0.0,0.0,0.0,0.0,0.0,0.0,0.0,0.0,0.0,0.0,0.0,0.0,0.0,0.0,0.0,0.0,0.0,0.0,-2.1089,-2.1102,-2.1109,-2.1109,-2.1109,-2.1109,-2.1109,-2.1109,0.0,0.0,0.0,0.0,0.0,0.0,0.0,-2.0309,-2.1109,-2.1109,-2.1109,-2.1109,-2.1109,-2.1109,-2.1109,-2.1109,-2.1109,-2.1109,-2.1109,-2.1109,-2.1109,-2.1109,-2.1109,-2.1109,-2.1109,-2.1109,-2.1109,-2.1109,-2.1109,-2.1109,-2.1109,-2.1109,-2.1283,-2.1443,-2.1443,-2.1683,-2.1884,-2.1884,-2.2124,-2.2311,-2.2311,-2.2565,-2.2752,-2.2752,-2.2819,-2.2859,-2.2859,-2.2859,-2.2859,-2.2859,-2.3073,-2.322,-2.322,-2.322,-2.3247,-2.3327,-2.3754,-2.4022,-2.4102,-2.4315,-2.4462,-2.4529,-2.4529,-2.4569,-2.4636,-2.4636,-2.4636,-2.4636,-2.4636,-2.4596,-1.5832,-1.5832,-1.5832,-1.5832,-1.5832,-1.5832,-1.5832,0.0,0.0,0.0,0.0,0.0,0.0,0.0,0.0,0.0,0.0,0.0,0.0,0.0,0.0,0.0,0.0,0.0,0.0,0.0,0.0,0.0,0.0,0.0,0.0,0.0,0.0,0.0,0.0,-2.1041,-2.1089,-2.1155,-1.948,-1.6264,-1.6264,-1.7224,0.0,0.0,0.0,0.0,0.0,0.0,-1.7663,-1.8988,-2.017,-2.1109,-2.1109,-2.1109,-2.1109,-2.1109,-2.1109,-2.1109,-2.1109,-2.1109,-2.1109,-2.1109,-2.1109,-2.1109,-2.1109,-2.1109,-2.1109,-2.1109,-2.1109,-2.1109,-2.1109,-2.1109,-2.1149,-2.1283,-2.143,-2.159,-2.1724,-2.1977,-2.2178,-2.2178,-2.2418,-2.2619,-2.2619,-2.2752,-2.2859,-2.2859,-2.2859,-2.2859,-2.2859,-2.2859,-2.2913,-2.306,-2.322,-2.338,-2.3514,-2.3647,-2.3728,-2.3728,-2.4022,-2.4262,-2.4396,-2.4556,-2.4636,-2.4636,-2.4636,-2.4636,-2.4636,-2.4636,-2.4636,-2.4636,-2.4636,-2.4636,-1.5832,-1.5763,-1.579,-1.5763,-1.5845,-1.5832,0.0,0.0,0.0,0.0,0.0,0.0,0.0,0.0,0.0,0.0,0.0,0.0,0.0,0.0,0.0,0.0,0.0,0.0,0.0,0.0,0.0,0.0,0.0,0.0,0.0,0.0,0.0,0.0,0.0,0.0,-2.0002,-1.9678,-1.6613,-1.0739,-1.1012,-1.2759,-1.5644,0.0,0.0,0.0,0.0,0.0,-1.7418,-1.7674,-1.886,-2.0716,-2.0716,-2.0716,-2.0716,-2.0982,-2.1109,-2.1109,-2.1109,-2.1109,-2.1109,-2.1109,-2.1109,-2.1109,-2.1109,-2.1109,-2.1109,-2.1109,-2.1109,-2.1122,-2.1162,-2.1176,-2.1256,-2.155,-2.1657,-2.175,-2.2004,-2.2285,-2.2485,-2.2485,-2.2686,-2.2859,-2.2859,-2.2859,-2.2859,-2.2859,-2.2859,-2.2859,-2.2859,-2.2899,-2.3033,-2.33,-2.3407,-2.3567,-2.3821,-2.4102,-2.4262,-2.4262,-2.4262,-2.4382,-2.4623,-2.4636,-2.4636,-2.4636,-2.4636,-2.4636,-2.4636,-2.4636,-2.4636,-2.4636,-2.4636,-2.4636,-1.5832,-1.58,-1.5835,-1.58,-1.5803,-1.575,0.0,0.0,0.0,0.0,0.0,0.0,0.0,0.0,0.0,0.0,0.0,0.0,0.0,0.0,0.0,0.0,0.0,0.0,0.0,0.0,0.0,0.0,0.0,0.0,0.0,0.0,0.0,0.0,0.0,0.0,0.0,-1.3336,-1.1812,-1.0739,-1.2759,-1.3985,-1.453,-1.5495,0.0,0.0,0.0,0.0,-1.6291,-1.772,-1.8628,-1.8896,-1.8896,-1.8896,-1.9024,-2.0589,-2.1109,-2.1109,-2.1109,-2.1109,-2.1109,-2.1109,-2.1109,-2.1109,-2.1109,-2.1109,-2.1109,-2.1109,-2.1109,-2.1162,-2.1416,-2.1483,-2.1563,-2.1844,-2.2111,-2.2298,-2.2338,-2.2579,-2.2792,-2.2792,-2.2832,-2.2859,-2.2859,-2.2859,-2.2859,-2.2859,-2.2859,-2.2859,-2.2859,-2.3086,-2.3273,-2.3327,-2.3768,-2.4088,-2.4128,-2.4396,-2.4569,-2.4569,-2.4569,-2.4596,-2.4636,-2.4636,-2.4636,-2.4636,-2.4636,-2.4636,-2.4636,-2.4636,-2.4636,-2.4636,-2.4636,-2.4636,-1.5832,-1.5817,-1.5963,-1.6648,-1.4154,0.0,0.0,0.0,0.0,0.0,0.0,0.0,0.0,0.0,0.0,0.0,0.0,0.0,0.0,0.0,0.0,0.0,0.0,0.0,0.0,0.0,0.0,0.0,0.0,0.0,0.0,0.0,0.0,0.0,0.0,0.0,0.0,-1.13,-1.074,-1.074,-1.1826,-1.2374,-1.2374,-1.2791,-1.2676,0.0,0.0,-1.4362,-1.4623,-1.5394,-1.6302,-1.7205,-1.8116,-1.8512,-1.8768,-2.0462,-2.1109,-2.1109,-2.1109,-2.1109,-2.1109,-2.1109,-2.1109,-2.1109,-2.1109,-2.1109,-2.1149,-2.1309,-2.1349,-2.1376,-2.151,-2.167,-2.1857,-2.2151,-2.2325,-2.2458,-2.2619,-2.2766,-2.2859,-2.2859,-2.2859,-2.2859,-2.2859,-2.2859,-2.2859,-2.2859,-2.2859,-2.2926,-2.3086,-2.3233,-2.3447,-2.3768,-2.4048,-2.4262,-2.4422,-2.4556,-2.4636,-2.4636,-2.4636,-2.4636,-2.4636,-2.4636,-2.4636,-2.4636,-2.4636,-2.4636,-2.4636,-2.4636,-2.4636,-2.4636,-2.4636,-2.4636,-1.5832,-1.579,-1.6032,0.0,0.0,0.0,0.0,0.0,0.0,0.0,0.0,0.0,0.0,0.0,0.0,0.0,0.0,0.0,0.0,0.0,0.0,0.0,0.0,0.0,0.0,0.0,0.0,0.0,0.0,0.0,0.0,0.0,0.0,0.0,0.0,0.0,0.0,-1.0717,-1.0717,-1.0717,-1.0717,-1.0717,-1.0717,-1.0717,-1.0717,-1.0717,-1.1108,-1.2025,-1.3325,-1.3325,-1.4101,-1.5394,-1.6818,-1.7474,-1.8116,-1.9661,-2.0309,-2.0309,-2.0843,-2.1109,-2.1109,-2.1109,-2.1109,-2.1109,-2.1109,-2.1162,-2.1269,-2.1496,-2.1657,-2.175,-2.175,-2.1924,-2.2164,-2.2458,-2.2525,-2.2579,-2.2819,-2.2859,-2.2859,-2.2859,-2.2859,-2.2859,-2.2859,-2.2859,-2.2859,-2.2859,-2.2926,-2.306,-2.33,-2.3447,-2.3701,-2.4155,-2.4262,-2.4396,-2.4623,-2.4636,-2.4663,-2.473,-2.4676,-2.4636,-2.4636,-2.4636,-2.4636,-2.4636,-2.4636,-2.4636,-2.4636,-2.4636,-2.4636,-2.4636,-2.4636,-2.4636,-1.5832,-1.5783,0.0,0.0,0.0,0.0,0.0,0.0,0.0,0.0,0.0,0.0,0.0,0.0,0.0,0.0,0.0,0.0,0.0,0.0,0.0,0.0,0.0,0.0,0.0,0.0,0.0,0.0,0.0,0.0,0.0,0.0,0.0,0.0,0.0,0.0,0.0,-1.0717,-1.0717,-1.0717,-1.0717,-1.0717,-1.0717,-1.0717,-1.0717,-1.085,-1.2413,-1.3193,-1.3325,-1.3325,-1.3325,-1.3456,-1.3578,-1.4614,-1.6172,-1.7418,-1.7791,-1.8186,-2.0309,-2.1109,-2.1109,-2.1109,-2.1109,-2.1109,-2.1109,-2.1309,-2.1666,-2.155,-2.1937,-2.2352,-2.2352,-2.2378,-2.2458,-2.2766,-2.2832,-2.2832,-2.2859,-2.2859,-2.2859,-2.2859,-2.2859,-2.2859,-2.2859,-2.2859,-2.2859,-2.2859,-2.3113,-2.33,-2.3327,-2.3808,-2.4155,-2.4195,-2.4449,-2.4609,-2.4636,-2.4636,-2.4756,-2.5037,-2.4783,-2.4636,-2.4636,-2.4636,-2.4636,-2.4636,-2.4636,-2.4636,-2.4636,-2.4636,-2.4636,-2.4636,-2.4636,-2.4636,-1.575,-1.5757,0.0,0.0,0.0,0.0,0.0,0.0,0.0,0.0,0.0,0.0,0.0,0.0,0.0,0.0,0.0,0.0,0.0,0.0,0.0,0.0,0.0,0.0,0.0,0.0,0.0,0.0,0.0,0.0,0.0,0.0,0.0,0.0,0.0,0.0,0.0,0.0,-1.0717,-1.0717,-1.0717,-1.0717,-1.0717,-1.0717,-1.0717,-1.0717,-1.1372,-1.163,-1.163,-1.163,-1.163,-1.1762,-1.2931,-1.4362,-1.5903,-1.5584,-1.64,-1.7916,-2.0323,-2.1129,-2.1102,-2.1136,-2.1243,-2.1518,-2.1518,-2.1733,-2.1857,-2.2044,-2.2245,-2.2418,-2.2418,-2.2552,-2.2726,-2.2832,-2.2859,-2.2859,-2.2859,-2.2859,-2.2859,-2.2859,-2.2859,-2.2859,-2.2859,-2.2859,-2.2926,-2.3126,-2.3247,-2.346,-2.3821,-2.4062,-2.4275,-2.4449,-2.4569,-2.4636,-2.4636,-2.481,-2.4957,-2.5077,-2.497,-2.4997,-2.517,-2.501,-2.4917,-2.4917,-2.473,-2.4636,-2.4636,-2.4636,-2.4636,-2.4636,-2.4636,-2.4636,-1.5747,-1.5783,0.0,0.0,0.0,0.0,0.0,0.0,0.0,0.0,0.0,0.0,0.0,0.0,0.0,0.0,0.0,0.0,0.0,0.0,0.0,0.0,0.0,0.0,0.0,0.0,0.0,0.0,0.0,0.0,0.0,0.0,0.0,0.0,0.0,0.0,0.0,0.0,-1.0717,-1.0717,-1.0717,-1.0717,-1.0717,-1.0717,-1.0717,-1.0717,-1.0717,-1.0717,-1.0717,-1.0717,-1.0717,-1.085,-1.2025,-1.3193,-1.4223,-1.337,-1.4038,-1.5674,-1.7227,-1.8571,-1.9426,-1.9554,-2.0631,-2.1643,-2.0876,-2.149,-2.2311,-2.2365,-2.2485,-2.2565,-2.2565,-2.2712,-2.2859,-2.2859,-2.2859,-2.2859,-2.2859,-2.2859,-2.2859,-2.2859,-2.2859,-2.2859,-2.2859,-2.2939,-2.3086,-2.33,-2.3487,-2.3754,-2.4155,-2.4289,-2.4422,-2.4609,-2.4716,-2.4783,-2.4783,-2.505,-2.5264,-2.5344,-2.5358,-2.5398,-2.5504,-2.5317,-2.5224,-2.5224,-2.493,-2.4783,-2.4783,-2.4676,-2.469,-2.4783,-2.4783,-2.4823,-1.5738,-1.5804,0.0,0.0,0.0,0.0,0.0,0.0,0.0,0.0,0.0,0.0,0.0,0.0,0.0,0.0,0.0,0.0,0.0,0.0,0.0,0.0,0.0,0.0,0.0,0.0,0.0,0.0,0.0,0.0,0.0,0.0,0.0,0.0,0.0,0.0,0.0,0.0,-1.0717,-1.0717,-1.0717,-1.0717,-1.0717,-1.0717,-1.0717,-1.0717,-1.0717,-1.0717,-1.0717,-1.0717,-1.0717,-1.0717,-1.0717,-1.0717,-1.0711,-1.0761,-1.0733,-1.0719,-1.0767,-1.3034,-1.5954,-1.6328,-1.8886,-2.1569,-1.9217,-2.055,-2.2741,-2.2432,-2.2632,-2.2859,-2.2859,-2.2859,-2.2859,-2.2859,-2.2859,-2.2859,-2.2859,-2.2859,-2.2859,-2.2859,-2.2859,-2.2859,-2.2859,-2.3126,-2.3327,-2.334,-2.3834,-2.4209,-2.4209,-2.4462,-2.4636,-2.4636,-2.4903,-2.5077,-2.5077,-2.5344,-2.5638,-2.5932,-2.5959,-2.5825,-2.5531,-2.5518,-2.5518,-2.5518,-2.5237,-2.5077,-2.5077,-2.4783,-2.4796,-2.5077,-2.5077,-2.5237,-1.1288,0.0,0.0,0.0,0.0,0.0,0.0,0.0,0.0,0.0,0.0,0.0,0.0,0.0,0.0,0.0,0.0,0.0,0.0,0.0,0.0,0.0,0.0,0.0,0.0,0.0,0.0,0.0,0.0,0.0,0.0,0.0,0.0,0.0,0.0,0.0,0.0,0.0,-1.0717,-1.0717,-1.0717,-1.0717,-1.0717,-1.0717,-1.0717,-1.0717,-1.0717,-1.0717,-1.0717,-1.0717,-1.0717,-1.0717,-1.0717,-1.0717,-1.0717,-1.069,-1.0683,-1.0941,-1.208,-1.3274,-1.4268,-1.5791,-1.7984,-2.0086,-1.9475,-2.0007,-2.0934,-2.0784,-2.0833,-2.0894,-2.0894,-2.1872,-2.2859,-2.2859,-2.2859,-2.2859,-2.2859,-2.2859,-2.2859,-2.2859,-2.3046,-2.3193,-2.3193,-2.3434,-2.3714,-2.3915,-2.4088,-2.4275,-2.4476,-2.4583,-2.4636,-2.4636,-2.4903,-2.5077,-2.5077,-2.5545,-2.5865,-2.5945,-2.6146,-2.6226,-2.6132,-2.5932,-2.5825,-2.5825,-2.5531,-2.5384,-2.5384,-2.5291,-2.5291,-2.5384,-2.5384,-2.5424,0.0,0.0,0.0,0.0,0.0,0.0,0.0,0.0,0.0,0.0,0.0,0.0,0.0,0.0,0.0,0.0,0.0,0.0,0.0,0.0,0.0,0.0,0.0,0.0,0.0,0.0,0.0,0.0,0.0,0.0,0.0,0.0,0.0,0.0,0.0,0.0,0.0,0.0,0.0,-1.0717,-1.0717,-1.0717,-1.0717,-1.0717,-1.0717,-1.0717,-1.0717,-1.0717,-1.0717,-1.0717,-1.0717,-1.0717,-1.0717,-1.0717,-1.0717,-1.0717,-1.0717,-1.085,-1.1894,-1.2281,-1.2452,-1.3763,-1.5529,-1.7318,-1.7496,-1.825,-1.8938,-1.8938,-1.8938,-1.9077,-1.9912,-2.0894,-2.2022,-2.2722,-2.2859,-2.2859,-2.2859,-2.2859,-2.2899,-2.302,-2.3193,-2.3367,-2.3487,-2.3741,-2.3995,-2.4182,-2.4302,-2.4436,-2.4609,-2.4636,-2.4676,-2.4796,-2.5077,-2.5304,-2.5424,-2.5865,-2.6132,-2.6132,-2.6293,-2.6386,-2.6386,-2.6226,-2.6132,-2.6132,-2.5838,-2.5692,-2.5692,-2.5571,-2.5571,-2.5692,-2.5692,-2.5758,0.0,0.0,0.0,0.0,0.0,0.0,0.0,0.0,0.0,0.0,0.0,0.0,0.0,0.0,0.0,0.0,0.0,0.0,0.0,0.0,0.0,0.0,0.0,0.0,0.0,0.0,0.0,0.0,0.0,0.0,0.0,0.0,0.0,0.0,0.0,0.0,0.0,0.0,0.0,0.0,0.0,-1.0717,-1.0717,-1.0717,-1.0717,-1.0717,-1.0717,-1.0717,-1.0717,-1.0717,-1.0717,-1.0717,-1.0717,-1.0717,-1.0717,-1.0717,-1.0717,-1.0717,-1.0717,-1.0731,-1.0785,-1.107,-1.2536,-1.4113,-1.4322,-1.5557,-1.6967,-1.6967,-1.6967,-1.7388,-1.9077,-1.9657,-2.0376,-2.2199,-2.2762,-2.2913,-2.2939,-2.2939,-2.3033,-2.3313,-2.3394,-2.3487,-2.3768,-2.4048,-2.4249,-2.4249,-2.4462,-2.4636,-2.4636,-2.4636,-2.4743,-2.501,-2.5331,-2.5625,-2.5892,-2.6213,-2.6386,-2.6386,-2.6386,-2.6386,-2.6386,-2.6386,-2.6386,-2.6386,-2.6132,-2.5999,-2.5999,-2.5732,-2.5732,-2.5999,-2.5999,-2.6132,0.0,0.0,0.0,0.0,0.0,0.0,0.0,0.0,0.0,0.0,0.0,0.0,0.0,0.0,0.0,0.0,0.0,0.0,0.0,0.0,0.0,0.0,0.0,0.0,0.0,0.0,0.0,0.0,0.0,0.0,0.0,0.0,0.0,0.0,0.0,0.0,-1.0717,-1.0717,-1.0717,0.0,-1.0717,-1.0717,-1.0717,-1.0717,-1.0717,-1.0717,-1.0717,-1.0717,-1.0717,-1.0717,-1.0717,-1.0717,-1.0717,-1.0717,-1.0717,-1.0717,-1.0717,-1.0717,-1.0717,-1.0799,-1.0928,-1.1104,-1.2474,-1.4136,-1.4364,-1.4716,-1.4991,-1.4991,-1.4991,-1.5132,-1.5557,-1.6803,-1.8496,-2.0497,-2.2078,-2.3287,-2.3527,-2.3581,-2.3594,-2.3661,-2.3861,-2.4035,-2.4102,-2.4356,-2.4543,-2.4543,-2.4596,-2.4636,-2.4636,-2.4636,-2.4663,-2.473,-2.5197,-2.5545,-2.5598,-2.6092,-2.6386,-2.6386,-2.6386,-2.6386,-2.6386,-2.6386,-2.6386,-2.6386,-2.6333,-2.6293,-2.6293,-2.6226,-2.6226,-2.6293,-2.6293,-2.6333,0.0,0.0,0.0,0.0,0.0,0.0,0.0,0.0,0.0,0.0,0.0,0.0,0.0,0.0,0.0,0.0,0.0,0.0,0.0,0.0,0.0,0.0,0.0,0.0,0.0,0.0,0.0,0.0,0.0,0.0,0.0,0.0,0.0,0.0,0.0,0.0,-1.0717,-1.0717,-1.0717,-1.0717,-1.0717,-1.0717,-1.0717,-1.0717,-1.0717,-1.0717,-1.0717,-1.0717,-1.0717,-1.0717,-1.0717,-1.0717,-1.0717,-1.0717,-1.0717,-1.0717,-1.0717,-1.0731,-1.0672,-1.0745,-1.0846,-1.106,-1.1874,-1.2803,-1.297,-1.3024,-1.3024,-1.3024,-1.3024,-1.3309,-1.4148,-1.5283,-1.6884,-2.0009,-2.1351,-2.2408,-2.3585,-2.3768,-2.3808,-2.3955,-2.4102,-2.4249,-2.4382,-2.4529,-2.4636,-2.4636,-2.4636,-2.4636,-2.4636,-2.4636,-2.4743,-2.5024,-2.5331,-2.5625,-2.5905,-2.6213,-2.6386,-2.6386,-2.6386,-2.6386,-2.6386,-2.6386,-2.6386,-2.6386,-2.6386,-2.6386,-2.6386,-2.6386,-2.6386,-2.6386,-2.6386,-2.6386,0.0,0.0,0.0,0.0,0.0,0.0,0.0,0.0,0.0,0.0,0.0,0.0,0.0,0.0,0.0,0.0,0.0,0.0,0.0,0.0,0.0,0.0,0.0,0.0,0.0,0.0,0.0,0.0,0.0,0.0,0.0,0.0,0.0,0.0,0.0,-1.0717,-1.0717,-1.0717,-1.0717,-1.0717,-1.0717,-1.0717,-1.0717,-1.0717,-1.0717,-1.0717,-1.0717,-1.0717,-1.0717,-1.0717,-1.0717,-1.0717,-1.0717,-1.0717,-1.0717,-1.0717,-1.0738,-1.0645,-1.0766,-1.0703,-1.0783,-1.1168,-1.1261,-1.1308,-1.1579,-1.1619,-1.1619,-1.1619,-1.1619,-1.1907,-1.3484,-1.405,-1.5241,-1.9514,-2.034,-2.0967,-2.3471,-2.3915,-2.3995,-2.4235,-2.4275,-2.4356,-2.4596,-2.4636,-2.4636,-2.4636,-2.4636,-2.4636,-2.4636,-2.4636,-2.4836,-2.5384,-2.5478,-2.5732,-2.6266,-2.636,-2.6386,-2.6386,-2.6386,-2.6386,-2.6386,-2.6386,-2.6386,-2.6386,-2.6386,-2.6386,-2.6386,-2.6386,-2.6386,-2.6386,-2.6386,-2.6386,0.0,0.0,0.0,0.0,0.0,0.0,0.0,0.0,0.0,0.0,0.0,0.0,0.0,0.0,0.0,0.0,0.0,0.0,0.0,0.0,0.0,0.0,0.0,0.0,0.0,0.0,0.0,0.0,0.0,0.0,0.0,0.0,-1.0717,-1.0717,-1.0717,0.0,-1.0717,-1.0717,-1.0717,-1.0717,-1.0717,-1.0717,-1.0717,-1.0717,-1.0717,-1.0717,-1.0717,-1.0717,-1.0717,-1.0717,-1.0717,-1.0717,-1.0717,-1.0717,-1.0717,-1.0717,-1.0672,-1.0644,-1.0664,-1.0973,-1.1194,-1.1235,-1.1335,-1.1592,-1.1613,-1.1619,-1.1619,-1.1619,-1.1619,-1.1647,-1.2053,-1.2353,-1.3542,-1.7694,-1.8787,-1.9843,-2.3619,-2.4516,-2.4529,-2.4569,-2.4583,-2.4596,-2.4623,-2.4636,-2.4636,-2.4636,-2.4636,-2.4636,-2.4636,-2.4636,-2.477,-2.5104,-2.5358,-2.5651,-2.5985,-2.6239,-2.6386,-2.6386,-2.6386,-2.6386,-2.6386,-2.6386,-2.6386,-2.6386,-2.6386,-2.6386,-2.6386,-2.6386,-2.6386,-2.6386,-2.6386,-2.6386,0.0,0.0,0.0,0.0,0.0,0.0,0.0,0.0,0.0,0.0,0.0,0.0,0.0,0.0,0.0,0.0,0.0,0.0,0.0,0.0,0.0,0.0,0.0,0.0,0.0,0.0,0.0,0.0,0.0,0.0,0.0,-1.0717,-1.0717,-1.0717,-1.0717,0.0,-1.0717,-1.0717,-1.0717,-1.0717,-1.0717,-1.0717,-1.0717,-1.0717,-1.0717,-1.0717,-1.0717,-1.0717,-1.0717,-1.0717,-1.0717,-1.0717,-1.0717,-1.0717,-1.0731,-1.0678,-1.0752,-1.0833,-1.0993,-1.1134,-1.1261,-1.1491,-1.1565,-1.1619,-1.1619,-1.1619,-1.1619,-1.1619,-1.1619,-1.1653,-1.1796,-1.1945,-1.2835,-1.5957,-1.6747,-1.7967,-2.2049,-2.387,-2.4636,-2.4636,-2.4636,-2.4636,-2.4636,-2.4636,-2.4636,-2.4636,-2.4636,-2.469,-2.4863,-2.489,-2.5064,-2.5518,-2.5692,-2.5879,-2.6172,-2.6319,-2.6386,-2.6386,-2.6386,-2.6386,-2.6386,-2.6386,-2.6386,-2.6386,-2.6386,-2.6386,-2.6386,-2.6386,-2.6386,-2.6386,-2.6386,-2.6386,0.0,0.0,0.0,0.0,0.0,0.0,0.0,0.0,0.0,0.0,0.0,0.0,0.0,0.0,0.0,0.0,0.0,0.0,0.0,0.0,0.0,0.0,0.0,0.0,0.0,0.0,0.0,0.0,0.0,0.0,-1.0717,-1.0717,-1.0717,-1.0717,-1.0717,-1.0717,-1.0717,-1.0717,-1.0717,-1.0717,-1.0717,-1.0717,-1.0717,-1.0717,-1.0717,-1.0717,-1.0717,-1.0717,-1.0717,-1.0717,-1.0717,-1.0717,-1.0717,-1.0717,-1.0738,-1.0894,-1.0975,-1.118,-1.1301,-1.1275,-1.1463,-1.1579,-1.1619,-1.1619,-1.1619,-1.1619,-1.1619,-1.1619,-1.1647,-1.1708,-1.185,-1.2006,-1.2749,-1.4843,-1.5438,-1.6599,-2.0692,-2.3116,-2.4636,-2.4636,-2.4636,-2.4636,-2.4636,-2.4636,-2.4636,-2.4636,-2.4703,-2.4823,-2.505,-2.5144,-2.5384,-2.5905,-2.5959,-2.6079,-2.636,-2.6386,-2.6386,-2.6386,-2.6386,-2.6386,-2.6386,-2.6386,-2.6386,-2.6386,-2.6386,-2.6386,-2.6386,-2.6386,-2.6386,-2.6386,-2.6386,-2.6386,0.0,0.0,0.0,0.0,0.0,0.0,0.0,0.0,0.0,0.0,0.0,0.0,0.0,0.0,0.0,0.0,0.0,0.0,0.0,0.0,0.0,0.0,0.0,0.0,0.0,0.0,0.0,0.0,0.0,0.0,-1.0717,-1.0717,-1.0717,-1.0717,-1.0717,-1.0717,-1.0717,-1.0717,-1.0717,-1.0717,-1.0717,-1.0717,-1.0717,-1.0717,-1.0717,-1.0717,-1.0717,-1.0717,-1.0717,-1.0717,-1.0717,-1.0717,-1.0717,-1.0717,-1.0738,-1.1312,-1.1596,-1.16,-1.1622,-1.1633,-1.1606,-1.1619,-1.1619,-1.1619,-1.1619,-1.1619,-1.1619,-1.1619,-1.1714,-1.1857,-1.2013,-1.2162,-1.2761,-1.5031,-1.5531,-1.6599,-2.0692,-2.3116,-2.4636,-2.4636,-2.4636,-2.4636,-2.4636,-2.4636,-2.4636,-2.4636,-2.4877,-2.5064,-2.5077,-2.5317,-2.5611,-2.5919,-2.5959,-2.6079,-2.636,-2.6386,-2.6386,-2.6386,-2.6386,-2.6386,-2.6386,-2.6386,-2.6386,-2.6386,-2.6386,-2.6386,-2.6386,-2.6386,-2.6386,-2.6386,-2.6386,-2.6386,0.0,0.0,0.0,0.0,0.0,0.0,0.0,0.0,0.0,0.0,0.0,0.0,0.0,0.0,0.0,0.0,0.0,0.0,0.0,0.0,0.0,0.0,0.0,0.0,0.0,0.0,0.0,0.0,0.0,0.0,-1.0717,-1.0717,-1.0717,-1.0717,-1.0717,-1.0717,-1.0717,-1.0717,-1.0717,-1.0717,-1.0717,-1.0717,-1.0717,-1.0717,-1.0717,-1.0717,-1.0717,-1.0717,-1.0717,-1.0717,-1.0717,-1.0717,-1.0717,-1.0717,-1.0751,-1.1138,-1.1399,-1.1483,-1.1598,-1.1572,-1.1619,-1.1619,-1.1619,-1.1619,-1.1619,-1.1619,-1.164,-1.1728,-1.1789,-1.1891,-1.2142,-1.225,-1.2477,-1.3377,-1.4629,-1.5837,-1.736,-2.038,-2.2657,-2.2657,-2.1601,-2.1141,-2.2509,-2.1601,-2.1141,-2.2509,-2.2891,-2.3593,-2.5179,-2.5611,-2.5905,-2.6199,-2.6239,-2.6279,-2.6386,-2.6386,-2.6386,-2.6386,-2.6386,-2.6386,-2.6386,-2.6386,-2.6386,-2.6386,-2.6386,-2.6386,-2.6386,-2.6386,-2.6386,-2.6386,-2.6386,-2.6386,0.0,0.0,0.0,0.0,0.0,0.0,0.0,0.0,0.0,0.0,0.0,0.0,0.0,0.0,0.0,0.0,0.0,0.0,0.0,0.0,0.0,0.0,0.0,0.0,0.0,0.0,0.0,0.0,0.0,0.0,-1.0717,-1.0717,-1.0717,-1.0717,-1.0717,-1.0717,-1.0717,-1.0717,-1.0717,-1.0717,-1.0717,-1.0717,-1.0717,-1.0717,-1.0717,-1.0717,-1.0717,-1.0717,-1.0717,-1.0717,-1.0717,-1.0717,-1.0717,-1.0751,-1.0826,-1.107,-1.1337,-1.1413,-1.1531,-1.1619,-1.1619,-1.1619,-1.1619,-1.1619,-1.1619,-1.1653,-1.1708,-1.1803,-1.1904,-1.2033,-1.2237,-1.2325,-1.2386,-1.2481,-1.4022,-1.5387,-1.4629,-1.7663,-2.0542,-2.0542,-1.9478,-1.9025,-2.0391,-1.9478,-1.9327,-2.1291,-2.1883,-2.2943,-2.5172,-2.5852,-2.6172,-2.6373,-2.6386,-2.6386,-2.6386,-2.6386,-2.6386,-2.6386,-2.6386,-2.6386,-2.6386,-2.6386,-2.6386,-2.6386,-2.6386,-2.6386,-2.6386,-2.6386,-2.6386,-2.6386,-2.6386,-2.6386,0.0,0.0,0.0,0.0,0.0,0.0,0.0,0.0,0.0,0.0,0.0,0.0,0.0,0.0,0.0,0.0,0.0,0.0,0.0,0.0,0.0,0.0,0.0,0.0,0.0,0.0,0.0,0.0,0.0,-1.0717,-1.0717,-1.0717,-1.0717,-1.0717,-1.0717,-1.0717,-1.0717,-1.0717,-1.0717,-1.0717,-1.0717,-1.0717,-1.0717,-1.0717,-1.0717,-1.0717,-1.0717,-1.0717,-1.0717,-1.0717,-1.0717,-1.0717,-1.0717,-1.0812,-1.0968,-1.1248,-1.1399,-1.1409,-1.1565,-1.1619,-1.1619,-1.1619,-1.1619,-1.1619,-1.1626,-1.1721,-1.183,-1.1843,-1.206,-1.2291,-1.2298,-1.24,-1.2501,-1.2501,-1.4022,-1.4935,-1.2958,-1.5693,-1.8421,-1.8572,-1.8421,-1.8421,-1.8572,-1.8421,-1.9176,-2.1153,-2.2036,-2.315,-2.5212,-2.6026,-2.6386,-2.6386,-2.6386,-2.6386,-2.6386,-2.6386,-2.6386,-2.6386,-2.6386,-2.6386,-2.6386,-2.6386,-2.6386,-2.6386,-2.6386,-2.6386,-2.6386,-2.6386,-2.6386,-2.6386,-2.6386,-2.6386,-0.7823,0.0,0.0,0.0,0.0,0.0,0.0,0.0,0.0,0.0,0.0,0.0,0.0,0.0,0.0,0.0,0.0,0.0,0.0,0.0,0.0,0.0,0.0,0.0,0.0,0.0,0.0,0.0,0.0,-1.0717,-1.0717,-1.0717,-1.0717,-1.0717,-1.0717,-1.0717,-1.0717,-1.0717,-1.0717,-1.0717,-1.0717,-1.0717,-1.0717,-1.0717,-1.0717,-1.0717,-1.0717,-1.0717,-1.0717,-1.0717,-1.0717,-1.0717,-1.0717,-1.0812,-1.0968,-1.1111,-1.126,-1.1409,-1.1565,-1.1619,-1.1619,-1.1619,-1.1619,-1.164,-1.1742,-1.1796,-1.1877,-1.2101,-1.2223,-1.2311,-1.242,-1.2474,-1.2501,-1.2501,-1.2958,-1.3112,-1.2656,-1.3414,-1.4629,-1.6142,-1.5234,-1.4629,-1.6151,-1.5081,-1.5437,-1.909,-2.0131,-2.1647,-2.5321,-2.6159,-2.6386,-2.6386,-2.6386,-2.6386,-2.6386,-2.6386,-2.6386,-2.6386,-2.6386,-2.6386,-2.6386,-2.6386,-2.6386,-2.6386,-2.6386,-2.6386,-2.6386,-2.6386,-2.6386,-2.6386,-2.6386,-2.6386,0.0,0.0,0.0,0.0,0.0,0.0,0.0,0.0,0.0,0.0,0.0,0.0,0.0,0.0,0.0,0.0,0.0,0.0,0.0,0.0,0.0,0.0,0.0,0.0,0.0,0.0,0.0,0.0,-1.0717,-1.0717,-1.0717,-1.0717,-1.0717,-1.0717,-1.0717,-1.0717,-1.0717,-1.0717,-1.0717,-1.0717,-1.0717,-1.0717,-1.0717,-1.0717,-1.0717,-1.0717,-1.0717,-1.0717,-1.0724,-1.0652,-1.0645,-1.0724,-1.0792,-1.0907,-1.1056,-1.1206,-1.1355,-1.1497,-1.1586,-1.1619,-1.1619,-1.1619,-1.1619,-1.1647,-1.1789,-1.1877,-1.1979,-1.2223,-1.2332,-1.24,-1.2481,-1.2501,-1.2501,-1.2501,-1.2501,-1.2501,-1.2501,-1.2501,-1.2804,-1.4022,-1.3259,-1.2804,-1.4022,-1.3317,-1.4011,-1.8414,-1.9325,-2.1155,-2.5452,-2.6213,-2.6386,-2.6386,-2.6386,-2.6386,-2.6386,-2.6386,-2.6386,-2.6386,-2.6386,-2.6386,-2.6386,-2.6386,-2.6386,-2.6386,-2.6386,-2.6386,-2.6386,-2.6386,-2.6386,-2.6386,-2.6386,-2.6386,-0.7873,0.0,0.0,0.0,0.0,0.0,0.0,-0.8069,0.0,0.0,0.0,0.0,0.0,0.0,0.0,0.0,0.0,0.0,0.0,0.0,0.0,0.0,0.0,0.0,0.0,0.0,0.0,-1.0717,-1.0717,-1.0717,-1.0717,-1.0717,-1.0717,-1.0717,-1.0717,-1.0717,-1.0717,-1.0717,-1.0717,-1.0717,-1.0717,-1.0717,-1.0717,-1.0717,-1.0717,-1.0717,-1.0717,-1.0717,-1.0731,-1.0745,-1.0732,-1.0758,-1.0914,-1.1063,-1.1206,-1.1341,-1.1491,-1.1619,-1.1619,-1.1619,-1.1619,-1.1619,-1.1633,-1.1667,-1.1816,-1.1965,-1.2121,-1.2271,-1.2406,-1.2501,-1.2501,-1.2501,-1.2501,-1.2501,-1.2501,-1.2501,-1.2501,-1.2501,-1.2501,-1.2501,-1.2501,-1.2508,-1.2522,-1.2637,-1.414,-1.8038,-1.931,-2.1173,-2.5192,-2.6069,-2.6386,-2.6386,-2.6386,-2.6386,-2.6386,-2.6386,-2.6386,-2.6386,-2.6386,-2.6386,-2.6386,-2.6386,-2.6386,-2.6386,-2.6386,-2.6386,-2.6386,-2.6386,-2.6386,-2.6386,-2.6386,-2.6386,-0.7842,-0.7979,0.0,0.0,0.0,0.0,0.0,-0.8404,0.0,0.0,0.0,0.0,0.0,0.0,0.0,0.0,0.0,0.0,0.0,0.0,0.0,0.0,0.0,0.0,0.0,0.0,-1.0717,-1.0717,-1.0717,-1.0717,-1.0717,-1.0717,-1.0717,-1.0717,-1.0717,-1.0717,-1.0717,-1.0717,-1.0717,-1.0717,-1.0717,-1.0717,-1.0717,-1.0717,-1.0717,-1.0717,-1.0717,-1.0717,-1.0731,-1.0745,-1.0792,-1.0921,-1.0926,-1.1074,-1.1348,-1.1382,-1.1491,-1.1619,-1.1619,-1.1619,-1.1619,-1.1619,-1.1694,-1.1816,-1.1972,-1.2121,-1.2277,-1.242,-1.2481,-1.2501,-1.2501,-1.2501,-1.2501,-1.2501,-1.2501,-1.2501,-1.2501,-1.2501,-1.2501,-1.2501,-1.2501,-1.2542,-1.2664,-1.2712,-1.3591,-1.6544,-1.8558,-2.0591,-2.3365,-2.5212,-2.6386,-2.6386,-2.6386,-2.6386,-2.6386,-2.6386,-2.6386,-2.6386,-2.6386,-2.6386,-2.6386,-2.6386,-2.6386,-2.6386,-2.6386,-2.6386,-2.6386,-2.6386,-2.6386,-2.6386,-2.6386,-2.6386,-0.7931,-0.8028,0.0,-0.8038,0.0,0.0,0.0,0.0,0.0,0.0,0.0,0.0,0.0,0.0,0.0,0.0,0.0,0.0,0.0,0.0,0.0,0.0,0.0,0.0,0.0,0.0,-1.0717,-1.0717,-1.0717,-1.0717,-1.0717,-1.0717,-1.0717,-1.0717,-1.0717,-1.0717,-1.0717,-1.0717,-1.0717,-1.0717,-1.0717,-1.0717,-1.0717,-1.0717,-1.0717,-1.0717,-1.0717,-1.0898,-1.1121,-1.1131,-1.1241,-1.1317,-1.1107,-1.1181,-1.1396,-1.1477,-1.1552,-1.1619,-1.1619,-1.1619,-1.1633,-1.1701,-1.1775,-1.187,-1.2108,-1.2277,-1.2413,-1.2481,-1.2501,-1.2501,-1.2501,-1.2501,-1.2501,-1.2501,-1.2501,-1.2501,-1.2501,-1.2501,-1.2522,-1.2603,-1.2617,-1.2637,-1.2718,-1.2854,-1.3792,-1.6038,-1.839,-2.0579,-2.2797,-2.5079,-2.6386,-2.6386,-2.6386,-2.6386,-2.6386,-2.6386,-2.6386,-2.6386,-2.6386,-2.6386,-2.6386,-2.6386,-2.6386,-2.6386,-2.6533,-2.6533,-2.6386,-2.6533,-2.6533,-2.6386,-2.6386,-2.6386,0.0,0.0,0.0,0.0,0.0,-0.8006,0.0,0.0,0.0,0.0,0.0,0.0,0.0,0.0,0.0,0.0,0.0,0.0,0.0,0.0,0.0,0.0,0.0,0.0,0.0,0.0,-1.0663,-1.0717,-1.067,-1.0663,-1.0717,-1.0717,-1.0717,-1.0717,-1.0717,-1.0717,-1.0717,-1.0717,-1.0717,-1.0717,-1.0717,-1.0717,-1.0717,-1.0717,-1.0717,-1.0717,-1.0717,-1.0946,-1.1518,-1.153,-1.1538,-1.1543,-1.1423,-1.1288,-1.145,-1.1572,-1.1619,-1.1619,-1.1619,-1.1619,-1.164,-1.1782,-1.187,-1.1972,-1.225,-1.2413,-1.2501,-1.2501,-1.2501,-1.2501,-1.2501,-1.2522,-1.2549,-1.2549,-1.2569,-1.2589,-1.2589,-1.2589,-1.263,-1.2752,-1.28,-1.2813,-1.2813,-1.301,-1.3824,-1.5626,-1.8179,-2.0554,-2.2327,-2.4761,-2.6386,-2.6386,-2.6386,-2.6386,-2.6386,-2.6386,-2.6386,-2.6386,-2.6386,-2.6386,-2.6386,-2.644,-2.6493,-2.656,-2.6787,-2.6787,-2.656,-2.6734,-2.668,-2.6386,-2.6386,-2.6386,0.0,0.0,0.0,0.0,-0.8039,0.0,0.0,0.0,0.0,0.0,0.0,0.0,0.0,0.0,0.0,0.0,0.0,0.0,0.0,0.0,0.0,0.0,0.0,0.0,0.0,0.0,0.0,-1.0704,-1.0746,-1.0711,-1.0704,-1.0717,-1.0717,-1.0717,-1.0717,-1.0717,-1.0717,-1.0717,-1.0717,-1.0717,-1.0717,-1.0717,-1.0717,-1.0717,-1.0717,-1.0717,-1.0717,-1.0946,-1.124,-1.153,-1.1538,-1.155,-1.1538,-1.1592,-1.1592,-1.1613,-1.1619,-1.1619,-1.1619,-1.1619,-1.164,-1.1782,-1.2013,-1.2264,-1.2427,-1.2488,-1.2501,-1.2501,-1.2501,-1.2501,-1.2501,-1.2603,-1.2705,-1.2705,-1.2807,-1.2908,-1.2908,-1.2908,-1.2915,-1.2929,-1.3037,-1.3125,-1.3125,-1.3152,-1.3384,-1.3679,-1.7293,-1.9907,-2.0231,-2.3792,-2.6386,-2.6386,-2.6386,-2.6386,-2.6386,-2.6386,-2.6386,-2.6386,-2.6386,-2.6386,-2.6386,-2.664,-2.6894,-2.7161,-2.7201,-2.7201,-2.7161,-2.6934,-2.668,-2.6386,-2.6386,-2.6386,0.0,0.0,0.0,0.0,0.0,0.0,0.0,0.0,-0.7965,0.0,0.0,0.0,0.0,0.0,0.0,0.0,0.0,0.0,0.0,0.0,0.0,0.0,0.0,0.0,0.0,0.0,0.0,0.0,0.0,-1.0677,-1.0704,-1.0717,-1.0717,-1.0717,-1.0717,-1.0717,-1.0717,-1.0717,-1.0717,-1.0717,-1.0717,-1.0717,-1.0717,-1.0717,-1.0717,-1.0717,-1.0717,-1.0853,-1.1221,-1.142,-1.1447,-1.1531,-1.1592,-1.1619,-1.1619,-1.1619,-1.1619,-1.1619,-1.1619,-1.1674,-1.1782,-1.202,-1.2244,-1.2427,-1.2481,-1.2501,-1.2501,-1.2501,-1.2501,-1.2522,-1.261,-1.2684,-1.2752,-1.284,-1.2915,-1.2963,-1.2963,-1.2963,-1.2983,-1.3071,-1.3132,-1.32,-1.3288,-1.4273,-1.5264,-1.5177,-1.8923,-2.1684,-2.1684,-2.4442,-2.6386,-2.6386,-2.6386,-2.6386,-2.6386,-2.6386,-2.6386,-2.6386,-2.6386,-2.6547,-2.6881,-2.6854,-2.6961,-2.7255,-2.7268,-2.7175,-2.7001,-2.6881,-2.676,-2.664,-2.6466,-2.6386,-0.8052,0.0,0.0,0.0,0.0,0.0,0.0,0.0,0.0,0.0,0.0,0.0,0.0,0.0,0.0,0.0,0.0,0.0,0.0,0.0,0.0,0.0,0.0,0.0,0.0,0.0,0.0,0.0,0.0,0.0,-1.0697,-1.0717,-1.0717,-1.0717,-1.0717,-1.0717,-1.0717,-1.0717,-1.0717,-1.0717,-1.0717,-1.0717,-1.0717,-1.0717,-1.0717,-1.0717,-1.0717,-1.0887,-1.1165,-1.1303,-1.1348,-1.1619,-1.1619,-1.1619,-1.1619,-1.1619,-1.1619,-1.1619,-1.1619,-1.1742,-1.1938,-1.2203,-1.2386,-1.2501,-1.2501,-1.2501,-1.2501,-1.2501,-1.2501,-1.2535,-1.2691,-1.2759,-1.2834,-1.2983,-1.3051,-1.3085,-1.3085,-1.3085,-1.3112,-1.3214,-1.3234,-1.3268,-1.3383,-1.5185,-1.6647,-1.6647,-2.0382,-2.314,-2.314,-2.5079,-2.6386,-2.6386,-2.6386,-2.6386,-2.6386,-2.6386,-2.6426,-2.6507,-2.6507,-2.6774,-2.7362,-2.7175,-2.7201,-2.7495,-2.7509,-2.7402,-2.7188,-2.7108,-2.7068,-2.7054,-2.668,-2.6547,0.0,0.0,0.0,0.0,0.0,0.0,0.0,0.0,-0.7948,0.0,0.0,0.0,0.0,0.0,0.0,0.0,0.0,0.0,0.0,0.0,0.0,0.0,0.0,0.0,0.0,0.0,0.0,0.0,0.0,0.0,-1.069,-1.0717,-1.0717,-1.0717,-1.0717,-1.0717,-1.0717,-1.0717,-1.0717,-1.0717,-1.0717,-1.0717,-1.0717,-1.0717,-1.0717,-1.0717,-1.0717,-1.0887,-1.102,-1.1158,-1.1341,-1.1619,-1.1619,-1.1619,-1.1619,-1.1619,-1.1619,-1.1619,-1.1619,-1.1809,-1.2081,-1.2237,-1.2386,-1.2501,-1.2501,-1.2501,-1.2501,-1.2501,-1.2501,-1.2535,-1.2691,-1.284,-1.299,-1.3132,-1.3281,-1.339,-1.339,-1.339,-1.339,-1.339,-1.3397,-1.3397,-1.3403,-1.5185,-1.6647,-1.6647,-2.0382,-2.314,-2.314,-2.5079,-2.6386,-2.6386,-2.6386,-2.6386,-2.6386,-2.6386,-2.6507,-2.6787,-2.6814,-2.7068,-2.7655,-2.7682,-2.7816,-2.811,-2.811,-2.811,-2.8096,-2.7816,-2.7669,-2.7655,-2.7081,-2.6961,0.0,0.0,-0.8017,-0.8269,0.0,0.0,0.0,0.0,0.0,0.0,0.0,0.0,0.0,0.0,0.0,0.0,0.0,0.0,0.0,0.0,0.0,0.0,0.0,0.0,0.0,0.0,0.0,-0.9009,-0.9988,0.0,0.0,-1.0717,-1.0717,-1.0717,-1.0717,-1.0717,-1.0717,-1.0717,-1.0717,-1.0717,-1.0717,-1.0717,-1.0717,-1.0717,-1.0717,-1.0724,-1.0692,-1.0703,-1.0882,-1.1127,-1.1436,-1.1619,-1.1619,-1.1619,-1.1619,-1.1619,-1.1681,-1.1789,-1.1993,-1.2128,-1.2237,-1.2386,-1.2461,-1.2501,-1.2501,-1.2501,-1.2501,-1.2501,-1.2501,-1.2562,-1.2813,-1.2922,-1.3024,-1.3268,-1.3363,-1.3403,-1.3403,-1.3403,-1.3403,-1.3403,-1.3403,-1.3403,-1.3403,-1.6336,-1.877,-1.877,-2.2487,-2.5251,-2.5251,-2.5898,-2.6386,-2.6386,-2.6386,-2.6386,-2.6386,-2.656,-2.68,-2.7094,-2.7108,-2.7375,-2.7963,-2.7802,-2.7843,-2.8136,-2.7949,-2.7856,-2.7843,-2.7562,-2.7509,-2.7696,-2.7495,-2.7348,-0.877,-0.8632,0.0,0.0,-0.8196,0.0,-0.8031,0.0,0.0,0.0,0.0,0.0,0.0,0.0,0.0,0.0,0.0,0.0,0.0,0.0,0.0,0.0,0.0,0.0,0.0,0.0,-0.9425,-0.9264,-1.0114,0.0,0.0,0.0,-1.0717,-1.0717,-1.0717,-1.0717,-1.0717,-1.0717,-1.0717,-1.0717,-1.0717,-1.0717,-1.0717,-1.0717,-1.0751,-1.0672,-1.0766,-1.0783,-1.0968,-1.1208,-1.1335,-1.1619,-1.1619,-1.1619,-1.1619,-1.1619,-1.1708,-1.1877,-1.2182,-1.2291,-1.2311,-1.2454,-1.2501,-1.2501,-1.2501,-1.2501,-1.2501,-1.2501,-1.2542,-1.2644,-1.2895,-1.2996,-1.3098,-1.3342,-1.3403,-1.3403,-1.3403,-1.3403,-1.3403,-1.3403,-1.3403,-1.3403,-1.3403,-1.6983,-1.9907,-1.9907,-2.3632,-2.6386,-2.6386,-2.6386,-2.6386,-2.6386,-2.6386,-2.6426,-2.6533,-2.6707,-2.6987,-2.7402,-2.7415,-2.7642,-2.8123,-2.7963,-2.7949,-2.8136,-2.7949,-2.7856,-2.7856,-2.7669,-2.7669,-2.7856,-2.7856,-2.7762]}]]